<?xml version="1.0" encoding="UTF-8" standalone="no" ?>
<gpx xmlns="http://www.topografix.com/GPX/1/1" xmlns:xsi="http://www.w3.org/2001/XMLSchema-instance" xsi:schemaLocation="http://www.topografix.com/GPX/1/1 http://www.topografix.com/GPX/1/1/gpx.xsd" version="1.1" creator="VisuGPX - https://www.visugpx.com">
  <metadata>
    <name>Relai 4 sainté-lyon</name>
    <desc><![CDATA[23km du relai 4 de la sainté lyon]]></desc>
  </metadata>
  <trk>
    <name><![CDATA[2010-12-05T07:08:39Z]]></name>
    <trkseg>
      <trkpt lat="45.67755" lon="4.69543">
        <ele>374.0900879</ele>
        <time>2010-12-05T07:08:39Z</time>
      </trkpt>
      <trkpt lat="45.67745" lon="4.69551">
        <ele>370.7255859</ele>
        <time>2010-12-05T07:08:45Z</time>
      </trkpt>
      <trkpt lat="45.67743" lon="4.69553">
        <ele>370.244873</ele>
        <time>2010-12-05T07:08:46Z</time>
      </trkpt>
      <trkpt lat="45.67737" lon="4.6957">
        <ele>368.8029785</ele>
        <time>2010-12-05T07:08:52Z</time>
      </trkpt>
      <trkpt lat="45.67734" lon="4.69579">
        <ele>368.3222656</ele>
        <time>2010-12-05T07:08:55Z</time>
      </trkpt>
      <trkpt lat="45.67735" lon="4.69591">
        <ele>368.8029785</ele>
        <time>2010-12-05T07:09:00Z</time>
      </trkpt>
      <trkpt lat="45.6774" lon="4.69597">
        <ele>368.8029785</ele>
        <time>2010-12-05T07:09:02Z</time>
      </trkpt>
      <trkpt lat="45.67743" lon="4.69602">
        <ele>369.2836914</ele>
        <time>2010-12-05T07:09:04Z</time>
      </trkpt>
      <trkpt lat="45.67749" lon="4.69616">
        <ele>369.2836914</ele>
        <time>2010-12-05T07:09:09Z</time>
      </trkpt>
      <trkpt lat="45.6775" lon="4.69619">
        <ele>368.8029785</ele>
        <time>2010-12-05T07:09:10Z</time>
      </trkpt>
      <trkpt lat="45.67751" lon="4.69625">
        <ele>367.8415527</ele>
        <time>2010-12-05T07:09:12Z</time>
      </trkpt>
      <trkpt lat="45.67755" lon="4.69637">
        <ele>367.8415527</ele>
        <time>2010-12-05T07:09:16Z</time>
      </trkpt>
      <trkpt lat="45.67751" lon="4.69653">
        <ele>367.3609619</ele>
        <time>2010-12-05T07:09:21Z</time>
      </trkpt>
      <trkpt lat="45.67755" lon="4.69658">
        <ele>367.3609619</ele>
        <time>2010-12-05T07:09:26Z</time>
      </trkpt>
      <trkpt lat="45.67759" lon="4.69654">
        <ele>367.3609619</ele>
        <time>2010-12-05T07:09:28Z</time>
      </trkpt>
      <trkpt lat="45.67767" lon="4.69643">
        <ele>369.2836914</ele>
        <time>2010-12-05T07:09:33Z</time>
      </trkpt>
      <trkpt lat="45.67773" lon="4.69635">
        <ele>370.244873</ele>
        <time>2010-12-05T07:09:36Z</time>
      </trkpt>
      <trkpt lat="45.67777" lon="4.69631">
        <ele>370.7255859</ele>
        <time>2010-12-05T07:09:38Z</time>
      </trkpt>
      <trkpt lat="45.67789" lon="4.69627">
        <ele>371.2062988</ele>
        <time>2010-12-05T07:09:42Z</time>
      </trkpt>
      <trkpt lat="45.67797" lon="4.69617">
        <ele>371.2062988</ele>
        <time>2010-12-05T07:09:47Z</time>
      </trkpt>
      <trkpt lat="45.678" lon="4.69604">
        <ele>369.7642822</ele>
        <time>2010-12-05T07:09:52Z</time>
      </trkpt>
      <trkpt lat="45.67802" lon="4.69604">
        <ele>369.2836914</ele>
        <time>2010-12-05T07:09:53Z</time>
      </trkpt>
      <trkpt lat="45.6781" lon="4.69613">
        <ele>367.8415527</ele>
        <time>2010-12-05T07:09:58Z</time>
      </trkpt>
      <trkpt lat="45.67812" lon="4.69616">
        <ele>366.880249</ele>
        <time>2010-12-05T07:09:59Z</time>
      </trkpt>
      <trkpt lat="45.67817" lon="4.69632">
        <ele>363.9963379</ele>
        <time>2010-12-05T07:10:04Z</time>
      </trkpt>
      <trkpt lat="45.67819" lon="4.69639">
        <ele>363.0350342</ele>
        <time>2010-12-05T07:10:06Z</time>
      </trkpt>
      <trkpt lat="45.67826" lon="4.6966">
        <ele>363.5157471</ele>
        <time>2010-12-05T07:10:12Z</time>
      </trkpt>
      <trkpt lat="45.67831" lon="4.69683">
        <ele>366.3995361</ele>
        <time>2010-12-05T07:10:18Z</time>
      </trkpt>
      <trkpt lat="45.67834" lon="4.69705">
        <ele>365.9189453</ele>
        <time>2010-12-05T07:10:24Z</time>
      </trkpt>
      <trkpt lat="45.67836" lon="4.69728">
        <ele>364.9576416</ele>
        <time>2010-12-05T07:10:30Z</time>
      </trkpt>
      <trkpt lat="45.67837" lon="4.69745">
        <ele>365.4383545</ele>
        <time>2010-12-05T07:10:34Z</time>
      </trkpt>
      <trkpt lat="45.67838" lon="4.69749">
        <ele>365.4383545</ele>
        <time>2010-12-05T07:10:35Z</time>
      </trkpt>
      <trkpt lat="45.67839" lon="4.69769">
        <ele>364.9576416</ele>
        <time>2010-12-05T07:10:40Z</time>
      </trkpt>
      <trkpt lat="45.67842" lon="4.69786">
        <ele>364.9576416</ele>
        <time>2010-12-05T07:10:44Z</time>
      </trkpt>
      <trkpt lat="45.67845" lon="4.69799">
        <ele>363.5157471</ele>
        <time>2010-12-05T07:10:47Z</time>
      </trkpt>
      <trkpt lat="45.67847" lon="4.69815">
        <ele>362.5543213</ele>
        <time>2010-12-05T07:10:51Z</time>
      </trkpt>
      <trkpt lat="45.67846" lon="4.69824">
        <ele>362.5543213</ele>
        <time>2010-12-05T07:10:53Z</time>
      </trkpt>
      <trkpt lat="45.67845" lon="4.69833">
        <ele>363.0350342</ele>
        <time>2010-12-05T07:10:55Z</time>
      </trkpt>
      <trkpt lat="45.67845" lon="4.69849">
        <ele>363.0350342</ele>
        <time>2010-12-05T07:10:59Z</time>
      </trkpt>
      <trkpt lat="45.67844" lon="4.69865">
        <ele>363.5157471</ele>
        <time>2010-12-05T07:11:03Z</time>
      </trkpt>
      <trkpt lat="45.67842" lon="4.69882">
        <ele>363.9963379</ele>
        <time>2010-12-05T07:11:07Z</time>
      </trkpt>
      <trkpt lat="45.67843" lon="4.69896">
        <ele>363.5157471</ele>
        <time>2010-12-05T07:11:10Z</time>
      </trkpt>
      <trkpt lat="45.67846" lon="4.69924">
        <ele>361.5931396</ele>
        <time>2010-12-05T07:11:17Z</time>
      </trkpt>
      <trkpt lat="45.67848" lon="4.69942">
        <ele>360.151123</ele>
        <time>2010-12-05T07:11:22Z</time>
      </trkpt>
      <trkpt lat="45.67852" lon="4.69962">
        <ele>358.7089844</ele>
        <time>2010-12-05T07:11:27Z</time>
      </trkpt>
      <trkpt lat="45.67856" lon="4.69985">
        <ele>356.786377</ele>
        <time>2010-12-05T07:11:33Z</time>
      </trkpt>
      <trkpt lat="45.67861" lon="4.70009">
        <ele>354.8637695</ele>
        <time>2010-12-05T07:11:39Z</time>
      </trkpt>
      <trkpt lat="45.67864" lon="4.70033">
        <ele>351.9798584</ele>
        <time>2010-12-05T07:11:45Z</time>
      </trkpt>
      <trkpt lat="45.6786" lon="4.70057">
        <ele>351.4991455</ele>
        <time>2010-12-05T07:11:51Z</time>
      </trkpt>
      <trkpt lat="45.67868" lon="4.70088">
        <ele>352.9411621</ele>
        <time>2010-12-05T07:11:58Z</time>
      </trkpt>
      <trkpt lat="45.67869" lon="4.70109">
        <ele>352.9411621</ele>
        <time>2010-12-05T07:12:03Z</time>
      </trkpt>
      <trkpt lat="45.67868" lon="4.70131">
        <ele>350.5378418</ele>
        <time>2010-12-05T07:12:08Z</time>
      </trkpt>
      <trkpt lat="45.67868" lon="4.7014">
        <ele>350.5378418</ele>
        <time>2010-12-05T07:12:10Z</time>
      </trkpt>
      <trkpt lat="45.67876" lon="4.70155">
        <ele>351.0184326</ele>
        <time>2010-12-05T07:12:13Z</time>
      </trkpt>
      <trkpt lat="45.67879" lon="4.70178">
        <ele>351.4991455</ele>
        <time>2010-12-05T07:12:18Z</time>
      </trkpt>
      <trkpt lat="45.6788" lon="4.70184">
        <ele>352.4605713</ele>
        <time>2010-12-05T07:12:19Z</time>
      </trkpt>
      <trkpt lat="45.67879" lon="4.70192">
        <ele>352.9411621</ele>
        <time>2010-12-05T07:12:21Z</time>
      </trkpt>
      <trkpt lat="45.67878" lon="4.70215">
        <ele>349.0958252</ele>
        <time>2010-12-05T07:12:27Z</time>
      </trkpt>
      <trkpt lat="45.67876" lon="4.70232">
        <ele>347.6539307</ele>
        <time>2010-12-05T07:12:31Z</time>
      </trkpt>
      <trkpt lat="45.67876" lon="4.70236">
        <ele>348.1346436</ele>
        <time>2010-12-05T07:12:32Z</time>
      </trkpt>
      <trkpt lat="45.67879" lon="4.70257">
        <ele>347.6539307</ele>
        <time>2010-12-05T07:12:37Z</time>
      </trkpt>
      <trkpt lat="45.67879" lon="4.70273">
        <ele>346.2120361</ele>
        <time>2010-12-05T07:12:41Z</time>
      </trkpt>
      <trkpt lat="45.67869" lon="4.70292">
        <ele>343.3278809</ele>
        <time>2010-12-05T07:12:46Z</time>
      </trkpt>
      <trkpt lat="45.67864" lon="4.70306">
        <ele>340.9246826</ele>
        <time>2010-12-05T07:12:50Z</time>
      </trkpt>
      <trkpt lat="45.67862" lon="4.70313">
        <ele>340.4440918</ele>
        <time>2010-12-05T07:12:52Z</time>
      </trkpt>
      <trkpt lat="45.67869" lon="4.70322">
        <ele>340.9246826</ele>
        <time>2010-12-05T07:12:57Z</time>
      </trkpt>
      <trkpt lat="45.67876" lon="4.7033">
        <ele>341.8859863</ele>
        <time>2010-12-05T07:13:01Z</time>
      </trkpt>
      <trkpt lat="45.67878" lon="4.70332">
        <ele>341.8859863</ele>
        <time>2010-12-05T07:13:02Z</time>
      </trkpt>
      <trkpt lat="45.67889" lon="4.7034">
        <ele>343.3278809</ele>
        <time>2010-12-05T07:13:07Z</time>
      </trkpt>
      <trkpt lat="45.67895" lon="4.70342">
        <ele>341.8859863</ele>
        <time>2010-12-05T07:13:12Z</time>
      </trkpt>
      <trkpt lat="45.67904" lon="4.7035">
        <ele>340.9246826</ele>
        <time>2010-12-05T07:13:15Z</time>
      </trkpt>
      <trkpt lat="45.67906" lon="4.70353">
        <ele>340.9246826</ele>
        <time>2010-12-05T07:13:16Z</time>
      </trkpt>
      <trkpt lat="45.67917" lon="4.70361">
        <ele>340.4440918</ele>
        <time>2010-12-05T07:13:19Z</time>
      </trkpt>
      <trkpt lat="45.67923" lon="4.70371">
        <ele>339.482666</ele>
        <time>2010-12-05T07:13:24Z</time>
      </trkpt>
      <trkpt lat="45.67932" lon="4.7038">
        <ele>342.3666992</ele>
        <time>2010-12-05T07:13:27Z</time>
      </trkpt>
      <trkpt lat="45.6795" lon="4.70387">
        <ele>344.2894287</ele>
        <time>2010-12-05T07:13:32Z</time>
      </trkpt>
      <trkpt lat="45.67959" lon="4.70393">
        <ele>344.2894287</ele>
        <time>2010-12-05T07:13:36Z</time>
      </trkpt>
      <trkpt lat="45.67969" lon="4.70395">
        <ele>345.7313232</ele>
        <time>2010-12-05T07:13:40Z</time>
      </trkpt>
      <trkpt lat="45.6798" lon="4.70393">
        <ele>346.692627</ele>
        <time>2010-12-05T07:13:44Z</time>
      </trkpt>
      <trkpt lat="45.67991" lon="4.70391">
        <ele>349.0958252</ele>
        <time>2010-12-05T07:13:49Z</time>
      </trkpt>
      <trkpt lat="45.67997" lon="4.70392">
        <ele>349.5765381</ele>
        <time>2010-12-05T07:13:51Z</time>
      </trkpt>
      <trkpt lat="45.68004" lon="4.70387">
        <ele>350.5378418</ele>
        <time>2010-12-05T07:13:54Z</time>
      </trkpt>
      <trkpt lat="45.68015" lon="4.70381">
        <ele>352.4605713</ele>
        <time>2010-12-05T07:13:58Z</time>
      </trkpt>
      <trkpt lat="45.6803" lon="4.70369">
        <ele>355.8251953</ele>
        <time>2010-12-05T07:14:04Z</time>
      </trkpt>
      <trkpt lat="45.68032" lon="4.70366">
        <ele>356.786377</ele>
        <time>2010-12-05T07:14:05Z</time>
      </trkpt>
      <trkpt lat="45.68045" lon="4.7035">
        <ele>358.2283936</ele>
        <time>2010-12-05T07:14:11Z</time>
      </trkpt>
      <trkpt lat="45.68051" lon="4.70347">
        <ele>356.786377</ele>
        <time>2010-12-05T07:14:13Z</time>
      </trkpt>
      <trkpt lat="45.68065" lon="4.70338">
        <ele>354.3831787</ele>
        <time>2010-12-05T07:14:18Z</time>
      </trkpt>
      <trkpt lat="45.6807" lon="4.70334">
        <ele>354.3831787</ele>
        <time>2010-12-05T07:14:20Z</time>
      </trkpt>
      <trkpt lat="45.68085" lon="4.70324">
        <ele>354.8637695</ele>
        <time>2010-12-05T07:14:26Z</time>
      </trkpt>
      <trkpt lat="45.68099" lon="4.70325">
        <ele>351.0184326</ele>
        <time>2010-12-05T07:14:30Z</time>
      </trkpt>
      <trkpt lat="45.6811" lon="4.70321">
        <ele>348.1346436</ele>
        <time>2010-12-05T07:14:34Z</time>
      </trkpt>
      <trkpt lat="45.68117" lon="4.70319">
        <ele>346.692627</ele>
        <time>2010-12-05T07:14:37Z</time>
      </trkpt>
      <trkpt lat="45.68125" lon="4.70313">
        <ele>346.2120361</ele>
        <time>2010-12-05T07:14:41Z</time>
      </trkpt>
      <trkpt lat="45.68136" lon="4.7031">
        <ele>345.2506104</ele>
        <time>2010-12-05T07:14:44Z</time>
      </trkpt>
      <trkpt lat="45.68149" lon="4.7031">
        <ele>343.8085938</ele>
        <time>2010-12-05T07:14:48Z</time>
      </trkpt>
      <trkpt lat="45.68157" lon="4.70312">
        <ele>343.8085938</ele>
        <time>2010-12-05T07:14:51Z</time>
      </trkpt>
      <trkpt lat="45.6817" lon="4.70312">
        <ele>343.3278809</ele>
        <time>2010-12-05T07:14:55Z</time>
      </trkpt>
      <trkpt lat="45.68181" lon="4.70314">
        <ele>343.8085938</ele>
        <time>2010-12-05T07:14:59Z</time>
      </trkpt>
      <trkpt lat="45.68198" lon="4.70316">
        <ele>346.692627</ele>
        <time>2010-12-05T07:15:05Z</time>
      </trkpt>
      <trkpt lat="45.68207" lon="4.70316">
        <ele>347.6539307</ele>
        <time>2010-12-05T07:15:08Z</time>
      </trkpt>
      <trkpt lat="45.68215" lon="4.70313">
        <ele>348.1346436</ele>
        <time>2010-12-05T07:15:12Z</time>
      </trkpt>
      <trkpt lat="45.68225" lon="4.70315">
        <ele>348.6152344</ele>
        <time>2010-12-05T07:15:15Z</time>
      </trkpt>
      <trkpt lat="45.6823" lon="4.70323">
        <ele>349.0958252</ele>
        <time>2010-12-05T07:15:18Z</time>
      </trkpt>
      <trkpt lat="45.68231" lon="4.7034">
        <ele>349.5765381</ele>
        <time>2010-12-05T07:15:22Z</time>
      </trkpt>
      <trkpt lat="45.68237" lon="4.70351">
        <ele>349.0958252</ele>
        <time>2010-12-05T07:15:26Z</time>
      </trkpt>
      <trkpt lat="45.68254" lon="4.70371">
        <ele>348.6152344</ele>
        <time>2010-12-05T07:15:33Z</time>
      </trkpt>
      <trkpt lat="45.68265" lon="4.70382">
        <ele>348.6152344</ele>
        <time>2010-12-05T07:15:37Z</time>
      </trkpt>
      <trkpt lat="45.68279" lon="4.70394">
        <ele>347.6539307</ele>
        <time>2010-12-05T07:15:42Z</time>
      </trkpt>
      <trkpt lat="45.68286" lon="4.704">
        <ele>347.6539307</ele>
        <time>2010-12-05T07:15:45Z</time>
      </trkpt>
      <trkpt lat="45.68293" lon="4.70409">
        <ele>349.0958252</ele>
        <time>2010-12-05T07:15:49Z</time>
      </trkpt>
      <trkpt lat="45.68302" lon="4.7042">
        <ele>349.0958252</ele>
        <time>2010-12-05T07:15:54Z</time>
      </trkpt>
      <trkpt lat="45.68311" lon="4.70433">
        <ele>350.057251</ele>
        <time>2010-12-05T07:15:59Z</time>
      </trkpt>
      <trkpt lat="45.6832" lon="4.70445">
        <ele>350.057251</ele>
        <time>2010-12-05T07:16:04Z</time>
      </trkpt>
      <trkpt lat="45.68327" lon="4.70458">
        <ele>350.5378418</ele>
        <time>2010-12-05T07:16:08Z</time>
      </trkpt>
      <trkpt lat="45.68332" lon="4.7047">
        <ele>350.5378418</ele>
        <time>2010-12-05T07:16:12Z</time>
      </trkpt>
      <trkpt lat="45.68344" lon="4.70488">
        <ele>350.057251</ele>
        <time>2010-12-05T07:16:17Z</time>
      </trkpt>
      <trkpt lat="45.68358" lon="4.70505">
        <ele>350.057251</ele>
        <time>2010-12-05T07:16:22Z</time>
      </trkpt>
      <trkpt lat="45.6836" lon="4.70508">
        <ele>350.057251</ele>
        <time>2010-12-05T07:16:23Z</time>
      </trkpt>
      <trkpt lat="45.6837" lon="4.70524">
        <ele>350.057251</ele>
        <time>2010-12-05T07:16:29Z</time>
      </trkpt>
      <trkpt lat="45.68372" lon="4.70529">
        <ele>349.5765381</ele>
        <time>2010-12-05T07:16:31Z</time>
      </trkpt>
      <trkpt lat="45.68382" lon="4.7054">
        <ele>348.1346436</ele>
        <time>2010-12-05T07:16:36Z</time>
      </trkpt>
      <trkpt lat="45.68395" lon="4.70555">
        <ele>344.7700195</ele>
        <time>2010-12-05T07:16:42Z</time>
      </trkpt>
      <trkpt lat="45.68405" lon="4.70569">
        <ele>342.84729</ele>
        <time>2010-12-05T07:16:47Z</time>
      </trkpt>
      <trkpt lat="45.68412" lon="4.70583">
        <ele>340.9246826</ele>
        <time>2010-12-05T07:16:51Z</time>
      </trkpt>
      <trkpt lat="45.68418" lon="4.70596">
        <ele>339.482666</ele>
        <time>2010-12-05T07:16:55Z</time>
      </trkpt>
      <trkpt lat="45.68427" lon="4.70613">
        <ele>338.5214844</ele>
        <time>2010-12-05T07:17:00Z</time>
      </trkpt>
      <trkpt lat="45.68437" lon="4.7063">
        <ele>338.5214844</ele>
        <time>2010-12-05T07:17:05Z</time>
      </trkpt>
      <trkpt lat="45.68448" lon="4.70643">
        <ele>338.0407715</ele>
        <time>2010-12-05T07:17:10Z</time>
      </trkpt>
      <trkpt lat="45.68463" lon="4.70663">
        <ele>336.598877</ele>
        <time>2010-12-05T07:17:17Z</time>
      </trkpt>
      <trkpt lat="45.68472" lon="4.70682">
        <ele>335.6373291</ele>
        <time>2010-12-05T07:17:22Z</time>
      </trkpt>
      <trkpt lat="45.68483" lon="4.70697">
        <ele>335.6373291</ele>
        <time>2010-12-05T07:17:27Z</time>
      </trkpt>
      <trkpt lat="45.68499" lon="4.70718">
        <ele>336.1181641</ele>
        <time>2010-12-05T07:17:34Z</time>
      </trkpt>
      <trkpt lat="45.68511" lon="4.70733">
        <ele>335.1567383</ele>
        <time>2010-12-05T07:17:39Z</time>
      </trkpt>
      <trkpt lat="45.68525" lon="4.70748">
        <ele>333.7147217</ele>
        <time>2010-12-05T07:17:44Z</time>
      </trkpt>
      <trkpt lat="45.68533" lon="4.70761">
        <ele>333.7147217</ele>
        <time>2010-12-05T07:17:48Z</time>
      </trkpt>
      <trkpt lat="45.68543" lon="4.70774">
        <ele>332.75354</ele>
        <time>2010-12-05T07:17:53Z</time>
      </trkpt>
      <trkpt lat="45.68554" lon="4.7079">
        <ele>332.2728271</ele>
        <time>2010-12-05T07:17:58Z</time>
      </trkpt>
      <trkpt lat="45.68565" lon="4.70803">
        <ele>330.8309326</ele>
        <time>2010-12-05T07:18:02Z</time>
      </trkpt>
      <trkpt lat="45.68577" lon="4.70818">
        <ele>329.8695068</ele>
        <time>2010-12-05T07:18:07Z</time>
      </trkpt>
      <trkpt lat="45.68585" lon="4.70828">
        <ele>329.388916</ele>
        <time>2010-12-05T07:18:11Z</time>
      </trkpt>
      <trkpt lat="45.6859" lon="4.70836">
        <ele>329.388916</ele>
        <time>2010-12-05T07:18:14Z</time>
      </trkpt>
      <trkpt lat="45.68609" lon="4.70851">
        <ele>328.4276123</ele>
        <time>2010-12-05T07:18:21Z</time>
      </trkpt>
      <trkpt lat="45.68617" lon="4.70861">
        <ele>328.4276123</ele>
        <time>2010-12-05T07:18:24Z</time>
      </trkpt>
      <trkpt lat="45.68628" lon="4.70871">
        <ele>327.9467773</ele>
        <time>2010-12-05T07:18:29Z</time>
      </trkpt>
      <trkpt lat="45.68637" lon="4.7088">
        <ele>326.9855957</ele>
        <time>2010-12-05T07:18:33Z</time>
      </trkpt>
      <trkpt lat="45.68649" lon="4.70892">
        <ele>325.5435791</ele>
        <time>2010-12-05T07:18:38Z</time>
      </trkpt>
      <trkpt lat="45.68661" lon="4.709">
        <ele>325.0629883</ele>
        <time>2010-12-05T07:18:42Z</time>
      </trkpt>
      <trkpt lat="45.68673" lon="4.7091">
        <ele>323.6209717</ele>
        <time>2010-12-05T07:18:46Z</time>
      </trkpt>
      <trkpt lat="45.6868" lon="4.70914">
        <ele>322.659668</ele>
        <time>2010-12-05T07:18:49Z</time>
      </trkpt>
      <trkpt lat="45.68692" lon="4.70923">
        <ele>322.1789551</ele>
        <time>2010-12-05T07:18:53Z</time>
      </trkpt>
      <trkpt lat="45.68703" lon="4.70931">
        <ele>321.6983643</ele>
        <time>2010-12-05T07:18:57Z</time>
      </trkpt>
      <trkpt lat="45.6871" lon="4.70943">
        <ele>321.2177734</ele>
        <time>2010-12-05T07:19:01Z</time>
      </trkpt>
      <trkpt lat="45.68713" lon="4.7096">
        <ele>319.7756348</ele>
        <time>2010-12-05T07:19:05Z</time>
      </trkpt>
      <trkpt lat="45.68712" lon="4.70975">
        <ele>318.8143311</ele>
        <time>2010-12-05T07:19:08Z</time>
      </trkpt>
      <trkpt lat="45.6871" lon="4.70994">
        <ele>319.2950439</ele>
        <time>2010-12-05T07:19:12Z</time>
      </trkpt>
      <trkpt lat="45.68711" lon="4.71019">
        <ele>317.8530273</ele>
        <time>2010-12-05T07:19:18Z</time>
      </trkpt>
      <trkpt lat="45.68717" lon="4.71038">
        <ele>316.4110107</ele>
        <time>2010-12-05T07:19:23Z</time>
      </trkpt>
      <trkpt lat="45.68722" lon="4.71059">
        <ele>315.4498291</ele>
        <time>2010-12-05T07:19:28Z</time>
      </trkpt>
      <trkpt lat="45.68728" lon="4.71084">
        <ele>313.5272217</ele>
        <time>2010-12-05T07:19:34Z</time>
      </trkpt>
      <trkpt lat="45.68732" lon="4.71093">
        <ele>313.5272217</ele>
        <time>2010-12-05T07:19:36Z</time>
      </trkpt>
      <trkpt lat="45.68737" lon="4.71114">
        <ele>312.0852051</ele>
        <time>2010-12-05T07:19:41Z</time>
      </trkpt>
      <trkpt lat="45.68742" lon="4.71139">
        <ele>311.1237793</ele>
        <time>2010-12-05T07:19:47Z</time>
      </trkpt>
      <trkpt lat="45.68747" lon="4.71161">
        <ele>312.0852051</ele>
        <time>2010-12-05T07:19:52Z</time>
      </trkpt>
      <trkpt lat="45.68752" lon="4.71182">
        <ele>312.0852051</ele>
        <time>2010-12-05T07:19:57Z</time>
      </trkpt>
      <trkpt lat="45.6876" lon="4.71206">
        <ele>311.6044922</ele>
        <time>2010-12-05T07:20:03Z</time>
      </trkpt>
      <trkpt lat="45.68765" lon="4.7123">
        <ele>311.1237793</ele>
        <time>2010-12-05T07:20:09Z</time>
      </trkpt>
      <trkpt lat="45.6877" lon="4.7125">
        <ele>311.1237793</ele>
        <time>2010-12-05T07:20:14Z</time>
      </trkpt>
      <trkpt lat="45.68776" lon="4.71272">
        <ele>311.6044922</ele>
        <time>2010-12-05T07:20:19Z</time>
      </trkpt>
      <trkpt lat="45.68787" lon="4.71296">
        <ele>312.0852051</ele>
        <time>2010-12-05T07:20:25Z</time>
      </trkpt>
      <trkpt lat="45.68797" lon="4.71316">
        <ele>310.6430664</ele>
        <time>2010-12-05T07:20:31Z</time>
      </trkpt>
      <trkpt lat="45.68809" lon="4.71328">
        <ele>310.1624756</ele>
        <time>2010-12-05T07:20:36Z</time>
      </trkpt>
      <trkpt lat="45.68814" lon="4.71333">
        <ele>309.6818848</ele>
        <time>2010-12-05T07:20:38Z</time>
      </trkpt>
      <trkpt lat="45.68822" lon="4.71339">
        <ele>308.2398682</ele>
        <time>2010-12-05T07:20:42Z</time>
      </trkpt>
      <trkpt lat="45.68829" lon="4.71345">
        <ele>307.2785645</ele>
        <time>2010-12-05T07:20:45Z</time>
      </trkpt>
      <trkpt lat="45.68835" lon="4.71348">
        <ele>307.2785645</ele>
        <time>2010-12-05T07:20:47Z</time>
      </trkpt>
      <trkpt lat="45.68857" lon="4.71364">
        <ele>307.2785645</ele>
        <time>2010-12-05T07:20:55Z</time>
      </trkpt>
      <trkpt lat="45.68876" lon="4.71377">
        <ele>307.2785645</ele>
        <time>2010-12-05T07:21:02Z</time>
      </trkpt>
      <trkpt lat="45.68893" lon="4.71391">
        <ele>306.3172607</ele>
        <time>2010-12-05T07:21:08Z</time>
      </trkpt>
      <trkpt lat="45.68908" lon="4.71403">
        <ele>305.355957</ele>
        <time>2010-12-05T07:21:14Z</time>
      </trkpt>
      <trkpt lat="45.68918" lon="4.7141">
        <ele>303.9139404</ele>
        <time>2010-12-05T07:21:18Z</time>
      </trkpt>
      <trkpt lat="45.68934" lon="4.71423">
        <ele>301.5106201</ele>
        <time>2010-12-05T07:21:25Z</time>
      </trkpt>
      <trkpt lat="45.6895" lon="4.71437">
        <ele>300.5493164</ele>
        <time>2010-12-05T07:21:31Z</time>
      </trkpt>
      <trkpt lat="45.68965" lon="4.71448">
        <ele>300.0687256</ele>
        <time>2010-12-05T07:21:36Z</time>
      </trkpt>
      <trkpt lat="45.68977" lon="4.71455">
        <ele>300.0687256</ele>
        <time>2010-12-05T07:21:40Z</time>
      </trkpt>
      <trkpt lat="45.6899" lon="4.71464">
        <ele>300.5493164</ele>
        <time>2010-12-05T07:21:45Z</time>
      </trkpt>
      <trkpt lat="45.69003" lon="4.71473">
        <ele>300.5493164</ele>
        <time>2010-12-05T07:21:50Z</time>
      </trkpt>
      <trkpt lat="45.69013" lon="4.71481">
        <ele>299.1072998</ele>
        <time>2010-12-05T07:21:55Z</time>
      </trkpt>
      <trkpt lat="45.69023" lon="4.71488">
        <ele>298.1461182</ele>
        <time>2010-12-05T07:21:59Z</time>
      </trkpt>
      <trkpt lat="45.69039" lon="4.71499">
        <ele>297.6654053</ele>
        <time>2010-12-05T07:22:04Z</time>
      </trkpt>
      <trkpt lat="45.6905" lon="4.71504">
        <ele>299.1072998</ele>
        <time>2010-12-05T07:22:07Z</time>
      </trkpt>
      <trkpt lat="45.69062" lon="4.71511">
        <ele>299.1072998</ele>
        <time>2010-12-05T07:22:11Z</time>
      </trkpt>
      <trkpt lat="45.69075" lon="4.71519">
        <ele>298.626709</ele>
        <time>2010-12-05T07:22:16Z</time>
      </trkpt>
      <trkpt lat="45.69091" lon="4.71527">
        <ele>297.6654053</ele>
        <time>2010-12-05T07:22:20Z</time>
      </trkpt>
      <trkpt lat="45.69093" lon="4.71528">
        <ele>297.6654053</ele>
        <time>2010-12-05T07:22:21Z</time>
      </trkpt>
      <trkpt lat="45.69106" lon="4.71534">
        <ele>297.6654053</ele>
        <time>2010-12-05T07:22:25Z</time>
      </trkpt>
      <trkpt lat="45.69115" lon="4.71538">
        <ele>297.6654053</ele>
        <time>2010-12-05T07:22:28Z</time>
      </trkpt>
      <trkpt lat="45.69127" lon="4.71541">
        <ele>298.626709</ele>
        <time>2010-12-05T07:22:32Z</time>
      </trkpt>
      <trkpt lat="45.6914" lon="4.71544">
        <ele>298.626709</ele>
        <time>2010-12-05T07:22:37Z</time>
      </trkpt>
      <trkpt lat="45.69153" lon="4.71549">
        <ele>299.1072998</ele>
        <time>2010-12-05T07:22:41Z</time>
      </trkpt>
      <trkpt lat="45.69159" lon="4.71551">
        <ele>298.626709</ele>
        <time>2010-12-05T07:22:44Z</time>
      </trkpt>
      <trkpt lat="45.69169" lon="4.71554">
        <ele>299.1072998</ele>
        <time>2010-12-05T07:22:48Z</time>
      </trkpt>
      <trkpt lat="45.69182" lon="4.71559">
        <ele>299.1072998</ele>
        <time>2010-12-05T07:22:52Z</time>
      </trkpt>
      <trkpt lat="45.69193" lon="4.71566">
        <ele>299.1072998</ele>
        <time>2010-12-05T07:22:56Z</time>
      </trkpt>
      <trkpt lat="45.69204" lon="4.71576">
        <ele>298.626709</ele>
        <time>2010-12-05T07:23:01Z</time>
      </trkpt>
      <trkpt lat="45.69206" lon="4.71579">
        <ele>298.626709</ele>
        <time>2010-12-05T07:23:02Z</time>
      </trkpt>
      <trkpt lat="45.69217" lon="4.71596">
        <ele>296.7041016</ele>
        <time>2010-12-05T07:23:08Z</time>
      </trkpt>
      <trkpt lat="45.69224" lon="4.7161">
        <ele>295.7426758</ele>
        <time>2010-12-05T07:23:12Z</time>
      </trkpt>
      <trkpt lat="45.69232" lon="4.71628">
        <ele>295.2619629</ele>
        <time>2010-12-05T07:23:17Z</time>
      </trkpt>
      <trkpt lat="45.69238" lon="4.71644">
        <ele>294.7813721</ele>
        <time>2010-12-05T07:23:21Z</time>
      </trkpt>
      <trkpt lat="45.6925" lon="4.71663">
        <ele>295.7426758</ele>
        <time>2010-12-05T07:23:27Z</time>
      </trkpt>
      <trkpt lat="45.69262" lon="4.71682">
        <ele>297.1846924</ele>
        <time>2010-12-05T07:23:33Z</time>
      </trkpt>
      <trkpt lat="45.69272" lon="4.71699">
        <ele>298.1461182</ele>
        <time>2010-12-05T07:23:38Z</time>
      </trkpt>
      <trkpt lat="45.69283" lon="4.71719">
        <ele>297.1846924</ele>
        <time>2010-12-05T07:23:44Z</time>
      </trkpt>
      <trkpt lat="45.69293" lon="4.71736">
        <ele>296.2235107</ele>
        <time>2010-12-05T07:23:49Z</time>
      </trkpt>
      <trkpt lat="45.69307" lon="4.71757">
        <ele>295.2619629</ele>
        <time>2010-12-05T07:23:55Z</time>
      </trkpt>
      <trkpt lat="45.69315" lon="4.71771">
        <ele>294.3007813</ele>
        <time>2010-12-05T07:23:59Z</time>
      </trkpt>
      <trkpt lat="45.69318" lon="4.71778">
        <ele>293.8200684</ele>
        <time>2010-12-05T07:24:01Z</time>
      </trkpt>
      <trkpt lat="45.69327" lon="4.7179">
        <ele>292.3781738</ele>
        <time>2010-12-05T07:24:05Z</time>
      </trkpt>
      <trkpt lat="45.69339" lon="4.71806">
        <ele>290.9361572</ele>
        <time>2010-12-05T07:24:10Z</time>
      </trkpt>
      <trkpt lat="45.69347" lon="4.71818">
        <ele>289.4941406</ele>
        <time>2010-12-05T07:24:14Z</time>
      </trkpt>
      <trkpt lat="45.69355" lon="4.71836">
        <ele>287.5714111</ele>
        <time>2010-12-05T07:24:19Z</time>
      </trkpt>
      <trkpt lat="45.69363" lon="4.71848">
        <ele>285.6488037</ele>
        <time>2010-12-05T07:24:23Z</time>
      </trkpt>
      <trkpt lat="45.69372" lon="4.71864">
        <ele>283.7261963</ele>
        <time>2010-12-05T07:24:28Z</time>
      </trkpt>
      <trkpt lat="45.69385" lon="4.71882">
        <ele>283.2456055</ele>
        <time>2010-12-05T07:24:34Z</time>
      </trkpt>
      <trkpt lat="45.69401" lon="4.71902">
        <ele>281.8035889</ele>
        <time>2010-12-05T07:24:41Z</time>
      </trkpt>
      <trkpt lat="45.69408" lon="4.71913">
        <ele>281.8035889</ele>
        <time>2010-12-05T07:24:45Z</time>
      </trkpt>
      <trkpt lat="45.69418" lon="4.71932">
        <ele>281.8035889</ele>
        <time>2010-12-05T07:24:51Z</time>
      </trkpt>
      <trkpt lat="45.69424" lon="4.7195">
        <ele>282.7650146</ele>
        <time>2010-12-05T07:24:56Z</time>
      </trkpt>
      <trkpt lat="45.69429" lon="4.7197">
        <ele>284.6876221</ele>
        <time>2010-12-05T07:25:01Z</time>
      </trkpt>
      <trkpt lat="45.69436" lon="4.71997">
        <ele>290.4555664</ele>
        <time>2010-12-05T07:25:07Z</time>
      </trkpt>
      <trkpt lat="45.69436" lon="4.72017">
        <ele>293.8200684</ele>
        <time>2010-12-05T07:25:12Z</time>
      </trkpt>
      <trkpt lat="45.69433" lon="4.72034">
        <ele>292.8587646</ele>
        <time>2010-12-05T07:25:18Z</time>
      </trkpt>
      <trkpt lat="45.69433" lon="4.72036">
        <ele>292.8587646</ele>
        <time>2010-12-05T07:25:19Z</time>
      </trkpt>
      <trkpt lat="45.69432" lon="4.72046">
        <ele>291.416748</ele>
        <time>2010-12-05T07:25:26Z</time>
      </trkpt>
      <trkpt lat="45.69433" lon="4.72051">
        <ele>291.416748</ele>
        <time>2010-12-05T07:25:31Z</time>
      </trkpt>
      <trkpt lat="45.69432" lon="4.72056">
        <ele>290.4555664</ele>
        <time>2010-12-05T07:25:37Z</time>
      </trkpt>
      <trkpt lat="45.69434" lon="4.72062">
        <ele>289.0135498</ele>
        <time>2010-12-05T07:25:42Z</time>
      </trkpt>
      <trkpt lat="45.69433" lon="4.72067">
        <ele>288.0522461</ele>
        <time>2010-12-05T07:25:46Z</time>
      </trkpt>
      <trkpt lat="45.69432" lon="4.72083">
        <ele>286.1295166</ele>
        <time>2010-12-05T07:25:52Z</time>
      </trkpt>
      <trkpt lat="45.69431" lon="4.72092">
        <ele>284.6876221</ele>
        <time>2010-12-05T07:25:58Z</time>
      </trkpt>
      <trkpt lat="45.69431" lon="4.72096">
        <ele>284.2069092</ele>
        <time>2010-12-05T07:26:00Z</time>
      </trkpt>
      <trkpt lat="45.6943" lon="4.72101">
        <ele>283.2456055</ele>
        <time>2010-12-05T07:26:04Z</time>
      </trkpt>
      <trkpt lat="45.69433" lon="4.72105">
        <ele>282.2843018</ele>
        <time>2010-12-05T07:26:09Z</time>
      </trkpt>
      <trkpt lat="45.69434" lon="4.7211">
        <ele>281.8035889</ele>
        <time>2010-12-05T07:26:15Z</time>
      </trkpt>
      <trkpt lat="45.69436" lon="4.72116">
        <ele>280.8424072</ele>
        <time>2010-12-05T07:26:21Z</time>
      </trkpt>
      <trkpt lat="45.69436" lon="4.7212">
        <ele>279.4002686</ele>
        <time>2010-12-05T07:26:25Z</time>
      </trkpt>
      <trkpt lat="45.69437" lon="4.72124">
        <ele>278.4389648</ele>
        <time>2010-12-05T07:26:30Z</time>
      </trkpt>
      <trkpt lat="45.69437" lon="4.7213">
        <ele>277.958252</ele>
        <time>2010-12-05T07:26:35Z</time>
      </trkpt>
      <trkpt lat="45.69436" lon="4.72137">
        <ele>276.5163574</ele>
        <time>2010-12-05T07:26:41Z</time>
      </trkpt>
      <trkpt lat="45.69436" lon="4.72145">
        <ele>275.0744629</ele>
        <time>2010-12-05T07:26:47Z</time>
      </trkpt>
      <trkpt lat="45.69436" lon="4.72153">
        <ele>274.1130371</ele>
        <time>2010-12-05T07:26:53Z</time>
      </trkpt>
      <trkpt lat="45.69436" lon="4.72158">
        <ele>274.1130371</ele>
        <time>2010-12-05T07:26:57Z</time>
      </trkpt>
      <trkpt lat="45.69437" lon="4.72163">
        <ele>273.6324463</ele>
        <time>2010-12-05T07:27:01Z</time>
      </trkpt>
      <trkpt lat="45.69438" lon="4.72169">
        <ele>272.1904297</ele>
        <time>2010-12-05T07:27:06Z</time>
      </trkpt>
      <trkpt lat="45.69438" lon="4.72176">
        <ele>271.229126</ele>
        <time>2010-12-05T07:27:10Z</time>
      </trkpt>
      <trkpt lat="45.69439" lon="4.72188">
        <ele>269.7871094</ele>
        <time>2010-12-05T07:27:16Z</time>
      </trkpt>
      <trkpt lat="45.6944" lon="4.72195">
        <ele>268.3450928</ele>
        <time>2010-12-05T07:27:20Z</time>
      </trkpt>
      <trkpt lat="45.6944" lon="4.72197">
        <ele>268.3450928</ele>
        <time>2010-12-05T07:27:21Z</time>
      </trkpt>
      <trkpt lat="45.69444" lon="4.72203">
        <ele>267.864502</ele>
        <time>2010-12-05T07:27:24Z</time>
      </trkpt>
      <trkpt lat="45.69445" lon="4.72209">
        <ele>267.3839111</ele>
        <time>2010-12-05T07:27:28Z</time>
      </trkpt>
      <trkpt lat="45.69445" lon="4.72219">
        <ele>265.9418945</ele>
        <time>2010-12-05T07:27:34Z</time>
      </trkpt>
      <trkpt lat="45.69444" lon="4.72231">
        <ele>265.9418945</ele>
        <time>2010-12-05T07:27:40Z</time>
      </trkpt>
      <trkpt lat="45.69445" lon="4.7224">
        <ele>265.9418945</ele>
        <time>2010-12-05T07:27:44Z</time>
      </trkpt>
      <trkpt lat="45.69445" lon="4.72248">
        <ele>265.4613037</ele>
        <time>2010-12-05T07:27:48Z</time>
      </trkpt>
      <trkpt lat="45.69446" lon="4.72252">
        <ele>264.9805908</ele>
        <time>2010-12-05T07:27:50Z</time>
      </trkpt>
      <trkpt lat="45.69445" lon="4.72257">
        <ele>264.4998779</ele>
        <time>2010-12-05T07:27:54Z</time>
      </trkpt>
      <trkpt lat="45.69446" lon="4.72263">
        <ele>263.5385742</ele>
        <time>2010-12-05T07:27:59Z</time>
      </trkpt>
      <trkpt lat="45.69445" lon="4.72267">
        <ele>261.1352539</ele>
        <time>2010-12-05T07:28:05Z</time>
      </trkpt>
      <trkpt lat="45.69446" lon="4.72269">
        <ele>259.6933594</ele>
        <time>2010-12-05T07:28:08Z</time>
      </trkpt>
      <trkpt lat="45.69446" lon="4.72274">
        <ele>259.6933594</ele>
        <time>2010-12-05T07:28:12Z</time>
      </trkpt>
      <trkpt lat="45.69447" lon="4.72281">
        <ele>259.6933594</ele>
        <time>2010-12-05T07:28:17Z</time>
      </trkpt>
      <trkpt lat="45.69447" lon="4.72283">
        <ele>259.6933594</ele>
        <time>2010-12-05T07:28:18Z</time>
      </trkpt>
      <trkpt lat="45.69447" lon="4.72288">
        <ele>258.7319336</ele>
        <time>2010-12-05T07:28:23Z</time>
      </trkpt>
      <trkpt lat="45.69447" lon="4.72292">
        <ele>258.7319336</ele>
        <time>2010-12-05T07:28:28Z</time>
      </trkpt>
      <trkpt lat="45.69447" lon="4.72295">
        <ele>258.2513428</ele>
        <time>2010-12-05T07:28:32Z</time>
      </trkpt>
      <trkpt lat="45.69446" lon="4.72302">
        <ele>258.2513428</ele>
        <time>2010-12-05T07:28:36Z</time>
      </trkpt>
      <trkpt lat="45.69446" lon="4.72308">
        <ele>258.2513428</ele>
        <time>2010-12-05T07:28:40Z</time>
      </trkpt>
      <trkpt lat="45.69443" lon="4.72313">
        <ele>257.770752</ele>
        <time>2010-12-05T07:28:46Z</time>
      </trkpt>
      <trkpt lat="45.69442" lon="4.72315">
        <ele>257.2900391</ele>
        <time>2010-12-05T07:28:51Z</time>
      </trkpt>
      <trkpt lat="45.6944" lon="4.72318">
        <ele>256.3287354</ele>
        <time>2010-12-05T07:28:55Z</time>
      </trkpt>
      <trkpt lat="45.69438" lon="4.72323">
        <ele>255.8480225</ele>
        <time>2010-12-05T07:29:01Z</time>
      </trkpt>
      <trkpt lat="45.69437" lon="4.72329">
        <ele>255.8480225</ele>
        <time>2010-12-05T07:29:07Z</time>
      </trkpt>
      <trkpt lat="45.69436" lon="4.7233">
        <ele>254.8865967</ele>
        <time>2010-12-05T07:29:11Z</time>
      </trkpt>
      <trkpt lat="45.69433" lon="4.72339">
        <ele>253.925415</ele>
        <time>2010-12-05T07:29:16Z</time>
      </trkpt>
      <trkpt lat="45.69435" lon="4.72356">
        <ele>252.0028076</ele>
        <time>2010-12-05T07:29:22Z</time>
      </trkpt>
      <trkpt lat="45.69439" lon="4.72365">
        <ele>251.5220947</ele>
        <time>2010-12-05T07:29:25Z</time>
      </trkpt>
      <trkpt lat="45.69444" lon="4.72374">
        <ele>251.5220947</ele>
        <time>2010-12-05T07:29:28Z</time>
      </trkpt>
      <trkpt lat="45.69457" lon="4.72389">
        <ele>250.0802002</ele>
        <time>2010-12-05T07:29:34Z</time>
      </trkpt>
      <trkpt lat="45.69463" lon="4.72395">
        <ele>248.6381836</ele>
        <time>2010-12-05T07:29:37Z</time>
      </trkpt>
      <trkpt lat="45.69466" lon="4.72401">
        <ele>248.6381836</ele>
        <time>2010-12-05T07:29:39Z</time>
      </trkpt>
      <trkpt lat="45.69473" lon="4.72413">
        <ele>244.7928467</ele>
        <time>2010-12-05T07:29:44Z</time>
      </trkpt>
      <trkpt lat="45.69469" lon="4.72422">
        <ele>243.3508301</ele>
        <time>2010-12-05T07:29:48Z</time>
      </trkpt>
      <trkpt lat="45.69462" lon="4.72421">
        <ele>242.8702393</ele>
        <time>2010-12-05T07:29:51Z</time>
      </trkpt>
      <trkpt lat="45.69447" lon="4.72411">
        <ele>239.9862061</ele>
        <time>2010-12-05T07:29:58Z</time>
      </trkpt>
      <trkpt lat="45.69434" lon="4.72404">
        <ele>238.5443115</ele>
        <time>2010-12-05T07:30:04Z</time>
      </trkpt>
      <trkpt lat="45.69422" lon="4.72395">
        <ele>237.1022949</ele>
        <time>2010-12-05T07:30:10Z</time>
      </trkpt>
      <trkpt lat="45.69414" lon="4.7239">
        <ele>236.6217041</ele>
        <time>2010-12-05T07:30:14Z</time>
      </trkpt>
      <trkpt lat="45.69409" lon="4.72402">
        <ele>235.6602783</ele>
        <time>2010-12-05T07:30:20Z</time>
      </trkpt>
      <trkpt lat="45.6941" lon="4.72418">
        <ele>235.1796875</ele>
        <time>2010-12-05T07:30:24Z</time>
      </trkpt>
      <trkpt lat="45.69411" lon="4.72433">
        <ele>236.1409912</ele>
        <time>2010-12-05T07:30:28Z</time>
      </trkpt>
      <trkpt lat="45.69413" lon="4.72436">
        <ele>236.1409912</ele>
        <time>2010-12-05T07:30:29Z</time>
      </trkpt>
      <trkpt lat="45.69419" lon="4.72459">
        <ele>236.6217041</ele>
        <time>2010-12-05T07:30:35Z</time>
      </trkpt>
      <trkpt lat="45.69421" lon="4.72477">
        <ele>239.0249023</ele>
        <time>2010-12-05T07:30:40Z</time>
      </trkpt>
      <trkpt lat="45.69419" lon="4.7249">
        <ele>241.9089355</ele>
        <time>2010-12-05T07:30:44Z</time>
      </trkpt>
      <trkpt lat="45.69424" lon="4.72504">
        <ele>239.5054932</ele>
        <time>2010-12-05T07:30:48Z</time>
      </trkpt>
      <trkpt lat="45.69423" lon="4.72518">
        <ele>239.9862061</ele>
        <time>2010-12-05T07:30:52Z</time>
      </trkpt>
      <trkpt lat="45.69425" lon="4.72538">
        <ele>235.6602783</ele>
        <time>2010-12-05T07:30:57Z</time>
      </trkpt>
      <trkpt lat="45.69421" lon="4.72555">
        <ele>233.2570801</ele>
        <time>2010-12-05T07:31:02Z</time>
      </trkpt>
      <trkpt lat="45.69418" lon="4.7257">
        <ele>230.8537598</ele>
        <time>2010-12-05T07:31:08Z</time>
      </trkpt>
      <trkpt lat="45.69416" lon="4.72575">
        <ele>229.892334</ele>
        <time>2010-12-05T07:31:11Z</time>
      </trkpt>
      <trkpt lat="45.69416" lon="4.72578">
        <ele>229.4117432</ele>
        <time>2010-12-05T07:31:13Z</time>
      </trkpt>
      <trkpt lat="45.69412" lon="4.72583">
        <ele>228.9311523</ele>
        <time>2010-12-05T07:31:18Z</time>
      </trkpt>
      <trkpt lat="45.6941" lon="4.72587">
        <ele>233.7376709</ele>
        <time>2010-12-05T07:31:24Z</time>
      </trkpt>
      <trkpt lat="45.69409" lon="4.72592">
        <ele>239.9862061</ele>
        <time>2010-12-05T07:31:33Z</time>
      </trkpt>
      <trkpt lat="45.69406" lon="4.72596">
        <ele>243.831543</ele>
        <time>2010-12-05T07:31:39Z</time>
      </trkpt>
      <trkpt lat="45.69397" lon="4.72603">
        <ele>255.8480225</ele>
        <time>2010-12-05T07:31:51Z</time>
      </trkpt>
      <trkpt lat="45.69397" lon="4.72603">
        <ele>257.2900391</ele>
        <time>2010-12-05T07:31:55Z</time>
      </trkpt>
      <trkpt lat="45.69396" lon="4.72603">
        <ele>258.7319336</ele>
        <time>2010-12-05T07:32:03Z</time>
      </trkpt>
      <trkpt lat="45.69399" lon="4.72599">
        <ele>251.0413818</ele>
        <time>2010-12-05T07:32:09Z</time>
      </trkpt>
      <trkpt lat="45.69402" lon="4.72598">
        <ele>250.560791</ele>
        <time>2010-12-05T07:32:18Z</time>
      </trkpt>
      <trkpt lat="45.69402" lon="4.72598">
        <ele>252.0028076</ele>
        <time>2010-12-05T07:32:23Z</time>
      </trkpt>
      <trkpt lat="45.69407" lon="4.72603">
        <ele>253.925415</ele>
        <time>2010-12-05T07:32:33Z</time>
      </trkpt>
      <trkpt lat="45.6941" lon="4.72607">
        <ele>252.4833984</ele>
        <time>2010-12-05T07:32:43Z</time>
      </trkpt>
      <trkpt lat="45.6941" lon="4.72609">
        <ele>248.1575928</ele>
        <time>2010-12-05T07:32:51Z</time>
      </trkpt>
      <trkpt lat="45.69411" lon="4.72611">
        <ele>251.5220947</ele>
        <time>2010-12-05T07:33:01Z</time>
      </trkpt>
      <trkpt lat="45.69414" lon="4.72612">
        <ele>247.6767578</ele>
        <time>2010-12-05T07:33:09Z</time>
      </trkpt>
      <trkpt lat="45.69417" lon="4.72613">
        <ele>244.3122559</ele>
        <time>2010-12-05T07:33:22Z</time>
      </trkpt>
      <trkpt lat="45.69422" lon="4.7261">
        <ele>239.5054932</ele>
        <time>2010-12-05T07:33:25Z</time>
      </trkpt>
      <trkpt lat="45.69428" lon="4.7261">
        <ele>236.1409912</ele>
        <time>2010-12-05T07:33:29Z</time>
      </trkpt>
      <trkpt lat="45.69435" lon="4.72617">
        <ele>234.2183838</ele>
        <time>2010-12-05T07:33:35Z</time>
      </trkpt>
      <trkpt lat="45.69438" lon="4.72623">
        <ele>234.6990967</ele>
        <time>2010-12-05T07:33:39Z</time>
      </trkpt>
      <trkpt lat="45.69439" lon="4.72631">
        <ele>236.6217041</ele>
        <time>2010-12-05T07:33:43Z</time>
      </trkpt>
      <trkpt lat="45.69439" lon="4.72635">
        <ele>238.0635986</ele>
        <time>2010-12-05T07:33:46Z</time>
      </trkpt>
      <trkpt lat="45.69438" lon="4.72643">
        <ele>241.9089355</ele>
        <time>2010-12-05T07:33:51Z</time>
      </trkpt>
      <trkpt lat="45.69436" lon="4.72649">
        <ele>243.3508301</ele>
        <time>2010-12-05T07:33:55Z</time>
      </trkpt>
      <trkpt lat="45.69434" lon="4.72654">
        <ele>245.2734375</ele>
        <time>2010-12-05T07:33:59Z</time>
      </trkpt>
      <trkpt lat="45.69431" lon="4.72661">
        <ele>247.6767578</ele>
        <time>2010-12-05T07:34:05Z</time>
      </trkpt>
      <trkpt lat="45.69427" lon="4.72668">
        <ele>250.560791</ele>
        <time>2010-12-05T07:34:10Z</time>
      </trkpt>
      <trkpt lat="45.69426" lon="4.72669">
        <ele>252.0028076</ele>
        <time>2010-12-05T07:34:11Z</time>
      </trkpt>
      <trkpt lat="45.69424" lon="4.72674">
        <ele>255.8480225</ele>
        <time>2010-12-05T07:34:17Z</time>
      </trkpt>
      <trkpt lat="45.69424" lon="4.72676">
        <ele>255.8480225</ele>
        <time>2010-12-05T07:34:18Z</time>
      </trkpt>
      <trkpt lat="45.69425" lon="4.72681">
        <ele>254.4060059</ele>
        <time>2010-12-05T07:34:21Z</time>
      </trkpt>
      <trkpt lat="45.69424" lon="4.72687">
        <ele>251.5220947</ele>
        <time>2010-12-05T07:34:26Z</time>
      </trkpt>
      <trkpt lat="45.69423" lon="4.72694">
        <ele>250.560791</ele>
        <time>2010-12-05T07:34:31Z</time>
      </trkpt>
      <trkpt lat="45.69424" lon="4.72699">
        <ele>249.5994873</ele>
        <time>2010-12-05T07:34:35Z</time>
      </trkpt>
      <trkpt lat="45.69423" lon="4.72706">
        <ele>248.6381836</ele>
        <time>2010-12-05T07:34:40Z</time>
      </trkpt>
      <trkpt lat="45.69423" lon="4.7271">
        <ele>249.1187744</ele>
        <time>2010-12-05T07:34:44Z</time>
      </trkpt>
      <trkpt lat="45.69421" lon="4.72715">
        <ele>249.5994873</ele>
        <time>2010-12-05T07:34:48Z</time>
      </trkpt>
      <trkpt lat="45.6942" lon="4.7272">
        <ele>251.0413818</ele>
        <time>2010-12-05T07:34:53Z</time>
      </trkpt>
      <trkpt lat="45.69417" lon="4.72726">
        <ele>252.4833984</ele>
        <time>2010-12-05T07:34:57Z</time>
      </trkpt>
      <trkpt lat="45.69416" lon="4.72731">
        <ele>254.4060059</ele>
        <time>2010-12-05T07:35:01Z</time>
      </trkpt>
      <trkpt lat="45.69416" lon="4.72736">
        <ele>255.3673096</ele>
        <time>2010-12-05T07:35:04Z</time>
      </trkpt>
      <trkpt lat="45.69416" lon="4.72738">
        <ele>256.3287354</ele>
        <time>2010-12-05T07:35:06Z</time>
      </trkpt>
      <trkpt lat="45.69415" lon="4.72745">
        <ele>257.770752</ele>
        <time>2010-12-05T07:35:10Z</time>
      </trkpt>
      <trkpt lat="45.69413" lon="4.72754">
        <ele>259.6933594</ele>
        <time>2010-12-05T07:35:15Z</time>
      </trkpt>
      <trkpt lat="45.69412" lon="4.72761">
        <ele>260.1739502</ele>
        <time>2010-12-05T07:35:19Z</time>
      </trkpt>
      <trkpt lat="45.69412" lon="4.72771">
        <ele>263.0578613</ele>
        <time>2010-12-05T07:35:24Z</time>
      </trkpt>
      <trkpt lat="45.69409" lon="4.72783">
        <ele>266.4224854</ele>
        <time>2010-12-05T07:35:31Z</time>
      </trkpt>
      <trkpt lat="45.69408" lon="4.72788">
        <ele>269.3065186</ele>
        <time>2010-12-05T07:35:35Z</time>
      </trkpt>
      <trkpt lat="45.69408" lon="4.7279">
        <ele>270.2677002</ele>
        <time>2010-12-05T07:35:36Z</time>
      </trkpt>
      <trkpt lat="45.69406" lon="4.72795">
        <ele>275.5550537</ele>
        <time>2010-12-05T07:35:39Z</time>
      </trkpt>
      <trkpt lat="45.69404" lon="4.72805">
        <ele>283.2456055</ele>
        <time>2010-12-05T07:35:45Z</time>
      </trkpt>
      <trkpt lat="45.69405" lon="4.72805">
        <ele>282.2843018</ele>
        <time>2010-12-05T07:35:46Z</time>
      </trkpt>
      <trkpt lat="45.69404" lon="4.72812">
        <ele>278.4389648</ele>
        <time>2010-12-05T07:35:52Z</time>
      </trkpt>
      <trkpt lat="45.69404" lon="4.72817">
        <ele>277.958252</ele>
        <time>2010-12-05T07:35:56Z</time>
      </trkpt>
      <trkpt lat="45.69402" lon="4.72829">
        <ele>276.5163574</ele>
        <time>2010-12-05T07:36:01Z</time>
      </trkpt>
      <trkpt lat="45.69402" lon="4.72834">
        <ele>275.0744629</ele>
        <time>2010-12-05T07:36:04Z</time>
      </trkpt>
      <trkpt lat="45.69401" lon="4.72837">
        <ele>271.7097168</ele>
        <time>2010-12-05T07:36:06Z</time>
      </trkpt>
      <trkpt lat="45.69396" lon="4.72842">
        <ele>267.864502</ele>
        <time>2010-12-05T07:36:13Z</time>
      </trkpt>
      <trkpt lat="45.69393" lon="4.72844">
        <ele>266.4224854</ele>
        <time>2010-12-05T07:36:17Z</time>
      </trkpt>
      <trkpt lat="45.69389" lon="4.72845">
        <ele>264.0192871</ele>
        <time>2010-12-05T07:36:22Z</time>
      </trkpt>
      <trkpt lat="45.69385" lon="4.72845">
        <ele>264.4998779</ele>
        <time>2010-12-05T07:36:26Z</time>
      </trkpt>
      <trkpt lat="45.69383" lon="4.72845">
        <ele>264.9805908</ele>
        <time>2010-12-05T07:36:28Z</time>
      </trkpt>
      <trkpt lat="45.69379" lon="4.72846">
        <ele>266.9031982</ele>
        <time>2010-12-05T07:36:31Z</time>
      </trkpt>
      <trkpt lat="45.69371" lon="4.72855">
        <ele>267.864502</ele>
        <time>2010-12-05T07:36:40Z</time>
      </trkpt>
      <trkpt lat="45.6937" lon="4.72855">
        <ele>267.864502</ele>
        <time>2010-12-05T07:36:41Z</time>
      </trkpt>
      <trkpt lat="45.69365" lon="4.72856">
        <ele>268.3450928</ele>
        <time>2010-12-05T07:36:45Z</time>
      </trkpt>
      <trkpt lat="45.69359" lon="4.72856">
        <ele>270.7484131</ele>
        <time>2010-12-05T07:36:50Z</time>
      </trkpt>
      <trkpt lat="45.69352" lon="4.72861">
        <ele>270.7484131</ele>
        <time>2010-12-05T07:36:57Z</time>
      </trkpt>
      <trkpt lat="45.69349" lon="4.72862">
        <ele>271.7097168</ele>
        <time>2010-12-05T07:36:59Z</time>
      </trkpt>
      <trkpt lat="45.69343" lon="4.72866">
        <ele>270.7484131</ele>
        <time>2010-12-05T07:37:06Z</time>
      </trkpt>
      <trkpt lat="45.69339" lon="4.72868">
        <ele>270.7484131</ele>
        <time>2010-12-05T07:37:09Z</time>
      </trkpt>
      <trkpt lat="45.69334" lon="4.72874">
        <ele>272.1904297</ele>
        <time>2010-12-05T07:37:15Z</time>
      </trkpt>
      <trkpt lat="45.69332" lon="4.72877">
        <ele>272.6711426</ele>
        <time>2010-12-05T07:37:19Z</time>
      </trkpt>
      <trkpt lat="45.69328" lon="4.72881">
        <ele>273.6324463</ele>
        <time>2010-12-05T07:37:24Z</time>
      </trkpt>
      <trkpt lat="45.69326" lon="4.72887">
        <ele>274.1130371</ele>
        <time>2010-12-05T07:37:28Z</time>
      </trkpt>
      <trkpt lat="45.69326" lon="4.72889">
        <ele>274.1130371</ele>
        <time>2010-12-05T07:37:30Z</time>
      </trkpt>
      <trkpt lat="45.69326" lon="4.729">
        <ele>275.0744629</ele>
        <time>2010-12-05T07:37:36Z</time>
      </trkpt>
      <trkpt lat="45.69328" lon="4.72909">
        <ele>276.0356445</ele>
        <time>2010-12-05T07:37:40Z</time>
      </trkpt>
      <trkpt lat="45.69329" lon="4.72911">
        <ele>276.5163574</ele>
        <time>2010-12-05T07:37:41Z</time>
      </trkpt>
      <trkpt lat="45.69337" lon="4.72916">
        <ele>278.4389648</ele>
        <time>2010-12-05T07:37:48Z</time>
      </trkpt>
      <trkpt lat="45.69346" lon="4.72919">
        <ele>279.8808594</ele>
        <time>2010-12-05T07:37:53Z</time>
      </trkpt>
      <trkpt lat="45.69355" lon="4.72921">
        <ele>280.8424072</ele>
        <time>2010-12-05T07:37:59Z</time>
      </trkpt>
      <trkpt lat="45.6936" lon="4.72924">
        <ele>280.8424072</ele>
        <time>2010-12-05T07:38:02Z</time>
      </trkpt>
      <trkpt lat="45.69369" lon="4.72926">
        <ele>281.322998</ele>
        <time>2010-12-05T07:38:08Z</time>
      </trkpt>
      <trkpt lat="45.69375" lon="4.72928">
        <ele>281.322998</ele>
        <time>2010-12-05T07:38:12Z</time>
      </trkpt>
      <trkpt lat="45.69387" lon="4.72931">
        <ele>283.7261963</ele>
        <time>2010-12-05T07:38:19Z</time>
      </trkpt>
      <trkpt lat="45.69394" lon="4.72933">
        <ele>284.6876221</ele>
        <time>2010-12-05T07:38:23Z</time>
      </trkpt>
      <trkpt lat="45.69403" lon="4.72937">
        <ele>286.6102295</ele>
        <time>2010-12-05T07:38:29Z</time>
      </trkpt>
      <trkpt lat="45.69408" lon="4.72939">
        <ele>286.6102295</ele>
        <time>2010-12-05T07:38:32Z</time>
      </trkpt>
      <trkpt lat="45.69421" lon="4.72942">
        <ele>288.0522461</ele>
        <time>2010-12-05T07:38:38Z</time>
      </trkpt>
      <trkpt lat="45.69433" lon="4.72943">
        <ele>289.9748535</ele>
        <time>2010-12-05T07:38:44Z</time>
      </trkpt>
      <trkpt lat="45.69444" lon="4.72944">
        <ele>291.8974609</ele>
        <time>2010-12-05T07:38:49Z</time>
      </trkpt>
      <trkpt lat="45.69453" lon="4.72948">
        <ele>293.3393555</ele>
        <time>2010-12-05T07:38:53Z</time>
      </trkpt>
      <trkpt lat="45.69462" lon="4.72954">
        <ele>294.3007813</ele>
        <time>2010-12-05T07:38:57Z</time>
      </trkpt>
      <trkpt lat="45.69469" lon="4.72959">
        <ele>294.7813721</ele>
        <time>2010-12-05T07:39:00Z</time>
      </trkpt>
      <trkpt lat="45.6948" lon="4.72967">
        <ele>295.7426758</ele>
        <time>2010-12-05T07:39:05Z</time>
      </trkpt>
      <trkpt lat="45.69487" lon="4.72972">
        <ele>295.7426758</ele>
        <time>2010-12-05T07:39:08Z</time>
      </trkpt>
      <trkpt lat="45.69498" lon="4.72979">
        <ele>296.2235107</ele>
        <time>2010-12-05T07:39:13Z</time>
      </trkpt>
      <trkpt lat="45.69507" lon="4.72988">
        <ele>295.7426758</ele>
        <time>2010-12-05T07:39:18Z</time>
      </trkpt>
      <trkpt lat="45.69509" lon="4.72989">
        <ele>295.7426758</ele>
        <time>2010-12-05T07:39:19Z</time>
      </trkpt>
      <trkpt lat="45.69519" lon="4.72996">
        <ele>293.8200684</ele>
        <time>2010-12-05T07:39:24Z</time>
      </trkpt>
      <trkpt lat="45.69526" lon="4.72999">
        <ele>293.3393555</ele>
        <time>2010-12-05T07:39:27Z</time>
      </trkpt>
      <trkpt lat="45.69534" lon="4.73006">
        <ele>293.3393555</ele>
        <time>2010-12-05T07:39:31Z</time>
      </trkpt>
      <trkpt lat="45.69549" lon="4.73013">
        <ele>294.3007813</ele>
        <time>2010-12-05T07:39:36Z</time>
      </trkpt>
      <trkpt lat="45.6956" lon="4.7302">
        <ele>294.7813721</ele>
        <time>2010-12-05T07:39:41Z</time>
      </trkpt>
      <trkpt lat="45.69572" lon="4.73027">
        <ele>295.7426758</ele>
        <time>2010-12-05T07:39:46Z</time>
      </trkpt>
      <trkpt lat="45.69583" lon="4.73032">
        <ele>296.7041016</ele>
        <time>2010-12-05T07:39:51Z</time>
      </trkpt>
      <trkpt lat="45.69594" lon="4.7304">
        <ele>297.6654053</ele>
        <time>2010-12-05T07:39:56Z</time>
      </trkpt>
      <trkpt lat="45.69603" lon="4.73047">
        <ele>298.1461182</ele>
        <time>2010-12-05T07:40:00Z</time>
      </trkpt>
      <trkpt lat="45.69615" lon="4.73056">
        <ele>299.1072998</ele>
        <time>2010-12-05T07:40:05Z</time>
      </trkpt>
      <trkpt lat="45.69625" lon="4.73065">
        <ele>299.5880127</ele>
        <time>2010-12-05T07:40:10Z</time>
      </trkpt>
      <trkpt lat="45.69639" lon="4.7307">
        <ele>300.5493164</ele>
        <time>2010-12-05T07:40:15Z</time>
      </trkpt>
      <trkpt lat="45.69642" lon="4.73072">
        <ele>301.0299072</ele>
        <time>2010-12-05T07:40:17Z</time>
      </trkpt>
      <trkpt lat="45.6965" lon="4.73076">
        <ele>301.991333</ele>
        <time>2010-12-05T07:40:20Z</time>
      </trkpt>
      <trkpt lat="45.69658" lon="4.7308">
        <ele>301.991333</ele>
        <time>2010-12-05T07:40:23Z</time>
      </trkpt>
      <trkpt lat="45.6966" lon="4.7308">
        <ele>301.991333</ele>
        <time>2010-12-05T07:40:24Z</time>
      </trkpt>
      <trkpt lat="45.69669" lon="4.73086">
        <ele>301.5106201</ele>
        <time>2010-12-05T07:40:28Z</time>
      </trkpt>
      <trkpt lat="45.69674" lon="4.73089">
        <ele>301.5106201</ele>
        <time>2010-12-05T07:40:30Z</time>
      </trkpt>
      <trkpt lat="45.69679" lon="4.73091">
        <ele>300.5493164</ele>
        <time>2010-12-05T07:40:32Z</time>
      </trkpt>
      <trkpt lat="45.69687" lon="4.73097">
        <ele>299.5880127</ele>
        <time>2010-12-05T07:40:35Z</time>
      </trkpt>
      <trkpt lat="45.69698" lon="4.731">
        <ele>297.6654053</ele>
        <time>2010-12-05T07:40:40Z</time>
      </trkpt>
      <trkpt lat="45.69708" lon="4.73103">
        <ele>296.7041016</ele>
        <time>2010-12-05T07:40:44Z</time>
      </trkpt>
      <trkpt lat="45.69722" lon="4.73106">
        <ele>295.2619629</ele>
        <time>2010-12-05T07:40:50Z</time>
      </trkpt>
      <trkpt lat="45.69737" lon="4.73109">
        <ele>295.2619629</ele>
        <time>2010-12-05T07:40:56Z</time>
      </trkpt>
      <trkpt lat="45.69752" lon="4.73113">
        <ele>298.626709</ele>
        <time>2010-12-05T07:41:00Z</time>
      </trkpt>
      <trkpt lat="45.69761" lon="4.73114">
        <ele>300.0687256</ele>
        <time>2010-12-05T07:41:03Z</time>
      </trkpt>
      <trkpt lat="45.69779" lon="4.73115">
        <ele>302.9525146</ele>
        <time>2010-12-05T07:41:09Z</time>
      </trkpt>
      <trkpt lat="45.69791" lon="4.73115">
        <ele>303.9139404</ele>
        <time>2010-12-05T07:41:14Z</time>
      </trkpt>
      <trkpt lat="45.69803" lon="4.7312">
        <ele>305.355957</ele>
        <time>2010-12-05T07:41:19Z</time>
      </trkpt>
      <trkpt lat="45.69816" lon="4.73128">
        <ele>306.3172607</ele>
        <time>2010-12-05T07:41:24Z</time>
      </trkpt>
      <trkpt lat="45.69827" lon="4.73136">
        <ele>305.8366699</ele>
        <time>2010-12-05T07:41:29Z</time>
      </trkpt>
      <trkpt lat="45.69837" lon="4.73144">
        <ele>305.8366699</ele>
        <time>2010-12-05T07:41:34Z</time>
      </trkpt>
      <trkpt lat="45.69841" lon="4.73148">
        <ele>305.8366699</ele>
        <time>2010-12-05T07:41:36Z</time>
      </trkpt>
      <trkpt lat="45.69855" lon="4.73156">
        <ele>306.7978516</ele>
        <time>2010-12-05T07:41:42Z</time>
      </trkpt>
      <trkpt lat="45.69865" lon="4.73159">
        <ele>307.2785645</ele>
        <time>2010-12-05T07:41:46Z</time>
      </trkpt>
      <trkpt lat="45.69868" lon="4.7316">
        <ele>307.2785645</ele>
        <time>2010-12-05T07:41:47Z</time>
      </trkpt>
      <trkpt lat="45.6988" lon="4.73165">
        <ele>307.7592773</ele>
        <time>2010-12-05T07:41:52Z</time>
      </trkpt>
      <trkpt lat="45.6989" lon="4.7317">
        <ele>308.720459</ele>
        <time>2010-12-05T07:41:56Z</time>
      </trkpt>
      <trkpt lat="45.69903" lon="4.73176">
        <ele>309.2011719</ele>
        <time>2010-12-05T07:42:01Z</time>
      </trkpt>
      <trkpt lat="45.69916" lon="4.73179">
        <ele>308.720459</ele>
        <time>2010-12-05T07:42:06Z</time>
      </trkpt>
      <trkpt lat="45.69932" lon="4.73186">
        <ele>307.7592773</ele>
        <time>2010-12-05T07:42:12Z</time>
      </trkpt>
      <trkpt lat="45.69944" lon="4.73192">
        <ele>307.2785645</ele>
        <time>2010-12-05T07:42:17Z</time>
      </trkpt>
      <trkpt lat="45.69961" lon="4.73202">
        <ele>305.8366699</ele>
        <time>2010-12-05T07:42:24Z</time>
      </trkpt>
      <trkpt lat="45.69975" lon="4.73211">
        <ele>306.3172607</ele>
        <time>2010-12-05T07:42:29Z</time>
      </trkpt>
      <trkpt lat="45.69984" lon="4.73223">
        <ele>306.7978516</ele>
        <time>2010-12-05T07:42:34Z</time>
      </trkpt>
      <trkpt lat="45.69991" lon="4.73233">
        <ele>307.7592773</ele>
        <time>2010-12-05T07:42:38Z</time>
      </trkpt>
      <trkpt lat="45.69993" lon="4.73235">
        <ele>308.2398682</ele>
        <time>2010-12-05T07:42:39Z</time>
      </trkpt>
      <trkpt lat="45.70012" lon="4.7325">
        <ele>312.0852051</ele>
        <time>2010-12-05T07:42:47Z</time>
      </trkpt>
      <trkpt lat="45.70018" lon="4.73258">
        <ele>313.5272217</ele>
        <time>2010-12-05T07:42:51Z</time>
      </trkpt>
      <trkpt lat="45.70032" lon="4.73268">
        <ele>316.4110107</ele>
        <time>2010-12-05T07:42:56Z</time>
      </trkpt>
      <trkpt lat="45.70044" lon="4.73281">
        <ele>317.8530273</ele>
        <time>2010-12-05T07:43:01Z</time>
      </trkpt>
      <trkpt lat="45.70052" lon="4.73287">
        <ele>317.8530273</ele>
        <time>2010-12-05T07:43:04Z</time>
      </trkpt>
      <trkpt lat="45.70062" lon="4.73296">
        <ele>317.8530273</ele>
        <time>2010-12-05T07:43:08Z</time>
      </trkpt>
      <trkpt lat="45.70068" lon="4.73306">
        <ele>317.3724365</ele>
        <time>2010-12-05T07:43:12Z</time>
      </trkpt>
      <trkpt lat="45.70076" lon="4.73314">
        <ele>316.8917236</ele>
        <time>2010-12-05T07:43:15Z</time>
      </trkpt>
      <trkpt lat="45.70085" lon="4.73329">
        <ele>315.4498291</ele>
        <time>2010-12-05T07:43:20Z</time>
      </trkpt>
      <trkpt lat="45.70098" lon="4.73349">
        <ele>314.4884033</ele>
        <time>2010-12-05T07:43:27Z</time>
      </trkpt>
      <trkpt lat="45.70108" lon="4.73363">
        <ele>313.5272217</ele>
        <time>2010-12-05T07:43:32Z</time>
      </trkpt>
      <trkpt lat="45.70121" lon="4.73381">
        <ele>312.0852051</ele>
        <time>2010-12-05T07:43:39Z</time>
      </trkpt>
      <trkpt lat="45.7013" lon="4.73391">
        <ele>311.1237793</ele>
        <time>2010-12-05T07:43:43Z</time>
      </trkpt>
      <trkpt lat="45.70141" lon="4.73408">
        <ele>310.1624756</ele>
        <time>2010-12-05T07:43:49Z</time>
      </trkpt>
      <trkpt lat="45.70152" lon="4.73424">
        <ele>310.1624756</ele>
        <time>2010-12-05T07:43:55Z</time>
      </trkpt>
      <trkpt lat="45.70163" lon="4.73435">
        <ele>310.6430664</ele>
        <time>2010-12-05T07:44:00Z</time>
      </trkpt>
      <trkpt lat="45.7017" lon="4.7344">
        <ele>310.6430664</ele>
        <time>2010-12-05T07:44:03Z</time>
      </trkpt>
      <trkpt lat="45.70183" lon="4.73451">
        <ele>310.6430664</ele>
        <time>2010-12-05T07:44:08Z</time>
      </trkpt>
      <trkpt lat="45.7019" lon="4.73463">
        <ele>310.6430664</ele>
        <time>2010-12-05T07:44:12Z</time>
      </trkpt>
      <trkpt lat="45.70195" lon="4.73468">
        <ele>310.1624756</ele>
        <time>2010-12-05T07:44:15Z</time>
      </trkpt>
      <trkpt lat="45.70202" lon="4.73476">
        <ele>310.6430664</ele>
        <time>2010-12-05T07:44:20Z</time>
      </trkpt>
      <trkpt lat="45.70203" lon="4.73478">
        <ele>310.6430664</ele>
        <time>2010-12-05T07:44:21Z</time>
      </trkpt>
      <trkpt lat="45.70209" lon="4.7349">
        <ele>310.6430664</ele>
        <time>2010-12-05T07:44:25Z</time>
      </trkpt>
      <trkpt lat="45.70217" lon="4.73499">
        <ele>311.1237793</ele>
        <time>2010-12-05T07:44:29Z</time>
      </trkpt>
      <trkpt lat="45.70221" lon="4.73503">
        <ele>311.6044922</ele>
        <time>2010-12-05T07:44:31Z</time>
      </trkpt>
      <trkpt lat="45.70229" lon="4.73511">
        <ele>312.0852051</ele>
        <time>2010-12-05T07:44:35Z</time>
      </trkpt>
      <trkpt lat="45.70241" lon="4.7352">
        <ele>313.0465088</ele>
        <time>2010-12-05T07:44:39Z</time>
      </trkpt>
      <trkpt lat="45.7026" lon="4.73534">
        <ele>315.9304199</ele>
        <time>2010-12-05T07:44:46Z</time>
      </trkpt>
      <trkpt lat="45.70266" lon="4.73538">
        <ele>316.4110107</ele>
        <time>2010-12-05T07:44:48Z</time>
      </trkpt>
      <trkpt lat="45.70274" lon="4.73547">
        <ele>315.9304199</ele>
        <time>2010-12-05T07:44:52Z</time>
      </trkpt>
      <trkpt lat="45.70277" lon="4.73551">
        <ele>315.4498291</ele>
        <time>2010-12-05T07:44:54Z</time>
      </trkpt>
      <trkpt lat="45.70285" lon="4.73559">
        <ele>315.4498291</ele>
        <time>2010-12-05T07:44:58Z</time>
      </trkpt>
      <trkpt lat="45.703" lon="4.73573">
        <ele>315.4498291</ele>
        <time>2010-12-05T07:45:04Z</time>
      </trkpt>
      <trkpt lat="45.70313" lon="4.73585">
        <ele>315.4498291</ele>
        <time>2010-12-05T07:45:10Z</time>
      </trkpt>
      <trkpt lat="45.70323" lon="4.73598">
        <ele>314.4884033</ele>
        <time>2010-12-05T07:45:15Z</time>
      </trkpt>
      <trkpt lat="45.70335" lon="4.73621">
        <ele>311.6044922</ele>
        <time>2010-12-05T07:45:23Z</time>
      </trkpt>
      <trkpt lat="45.70342" lon="4.73635">
        <ele>310.1624756</ele>
        <time>2010-12-05T07:45:28Z</time>
      </trkpt>
      <trkpt lat="45.70348" lon="4.73648">
        <ele>308.720459</ele>
        <time>2010-12-05T07:45:33Z</time>
      </trkpt>
      <trkpt lat="45.70355" lon="4.73659">
        <ele>308.2398682</ele>
        <time>2010-12-05T07:45:37Z</time>
      </trkpt>
      <trkpt lat="45.70365" lon="4.73676">
        <ele>308.720459</ele>
        <time>2010-12-05T07:45:43Z</time>
      </trkpt>
      <trkpt lat="45.70366" lon="4.73678">
        <ele>308.720459</ele>
        <time>2010-12-05T07:45:44Z</time>
      </trkpt>
      <trkpt lat="45.70375" lon="4.73689">
        <ele>309.6818848</ele>
        <time>2010-12-05T07:45:49Z</time>
      </trkpt>
      <trkpt lat="45.7038" lon="4.73693">
        <ele>310.1624756</ele>
        <time>2010-12-05T07:45:51Z</time>
      </trkpt>
      <trkpt lat="45.70393" lon="4.73706">
        <ele>310.6430664</ele>
        <time>2010-12-05T07:45:57Z</time>
      </trkpt>
      <trkpt lat="45.70403" lon="4.73714">
        <ele>310.6430664</ele>
        <time>2010-12-05T07:46:02Z</time>
      </trkpt>
      <trkpt lat="45.70416" lon="4.73724">
        <ele>311.1237793</ele>
        <time>2010-12-05T07:46:07Z</time>
      </trkpt>
      <trkpt lat="45.70422" lon="4.73728">
        <ele>311.6044922</ele>
        <time>2010-12-05T07:46:09Z</time>
      </trkpt>
      <trkpt lat="45.70434" lon="4.73736">
        <ele>312.0852051</ele>
        <time>2010-12-05T07:46:14Z</time>
      </trkpt>
      <trkpt lat="45.70446" lon="4.73746">
        <ele>313.0465088</ele>
        <time>2010-12-05T07:46:19Z</time>
      </trkpt>
      <trkpt lat="45.70455" lon="4.73756">
        <ele>313.0465088</ele>
        <time>2010-12-05T07:46:23Z</time>
      </trkpt>
      <trkpt lat="45.70457" lon="4.73758">
        <ele>313.0465088</ele>
        <time>2010-12-05T07:46:24Z</time>
      </trkpt>
      <trkpt lat="45.7047" lon="4.73763">
        <ele>314.0078125</ele>
        <time>2010-12-05T07:46:28Z</time>
      </trkpt>
      <trkpt lat="45.70476" lon="4.73767">
        <ele>314.4884033</ele>
        <time>2010-12-05T07:46:31Z</time>
      </trkpt>
      <trkpt lat="45.70491" lon="4.73768">
        <ele>314.9691162</ele>
        <time>2010-12-05T07:46:37Z</time>
      </trkpt>
      <trkpt lat="45.70501" lon="4.73772">
        <ele>314.9691162</ele>
        <time>2010-12-05T07:46:42Z</time>
      </trkpt>
      <trkpt lat="45.70503" lon="4.73775">
        <ele>314.9691162</ele>
        <time>2010-12-05T07:46:43Z</time>
      </trkpt>
      <trkpt lat="45.7051" lon="4.73793">
        <ele>314.4884033</ele>
        <time>2010-12-05T07:46:49Z</time>
      </trkpt>
      <trkpt lat="45.70516" lon="4.73808">
        <ele>314.0078125</ele>
        <time>2010-12-05T07:46:53Z</time>
      </trkpt>
      <trkpt lat="45.70525" lon="4.73825">
        <ele>313.5272217</ele>
        <time>2010-12-05T07:46:58Z</time>
      </trkpt>
      <trkpt lat="45.70533" lon="4.73845">
        <ele>314.0078125</ele>
        <time>2010-12-05T07:47:04Z</time>
      </trkpt>
      <trkpt lat="45.70537" lon="4.73853">
        <ele>314.9691162</ele>
        <time>2010-12-05T07:47:07Z</time>
      </trkpt>
      <trkpt lat="45.70546" lon="4.73869">
        <ele>315.9304199</ele>
        <time>2010-12-05T07:47:11Z</time>
      </trkpt>
      <trkpt lat="45.7055" lon="4.73895">
        <ele>316.8917236</ele>
        <time>2010-12-05T07:47:17Z</time>
      </trkpt>
      <trkpt lat="45.70553" lon="4.73914">
        <ele>316.8917236</ele>
        <time>2010-12-05T07:47:22Z</time>
      </trkpt>
      <trkpt lat="45.70556" lon="4.73932">
        <ele>316.8917236</ele>
        <time>2010-12-05T07:47:27Z</time>
      </trkpt>
      <trkpt lat="45.70556" lon="4.73945">
        <ele>316.4110107</ele>
        <time>2010-12-05T07:47:31Z</time>
      </trkpt>
      <trkpt lat="45.70559" lon="4.73957">
        <ele>316.8917236</ele>
        <time>2010-12-05T07:47:34Z</time>
      </trkpt>
      <trkpt lat="45.70563" lon="4.73985">
        <ele>318.3336182</ele>
        <time>2010-12-05T07:47:40Z</time>
      </trkpt>
      <trkpt lat="45.70565" lon="4.73993">
        <ele>319.2950439</ele>
        <time>2010-12-05T07:47:42Z</time>
      </trkpt>
      <trkpt lat="45.70572" lon="4.74019">
        <ele>320.7370605</ele>
        <time>2010-12-05T07:47:48Z</time>
      </trkpt>
      <trkpt lat="45.70576" lon="4.74041">
        <ele>321.2177734</ele>
        <time>2010-12-05T07:47:53Z</time>
      </trkpt>
      <trkpt lat="45.70577" lon="4.74059">
        <ele>320.7370605</ele>
        <time>2010-12-05T07:47:58Z</time>
      </trkpt>
      <trkpt lat="45.70574" lon="4.74077">
        <ele>318.8143311</ele>
        <time>2010-12-05T07:48:03Z</time>
      </trkpt>
      <trkpt lat="45.70574" lon="4.74084">
        <ele>318.8143311</ele>
        <time>2010-12-05T07:48:05Z</time>
      </trkpt>
      <trkpt lat="45.70572" lon="4.74102">
        <ele>318.3336182</ele>
        <time>2010-12-05T07:48:10Z</time>
      </trkpt>
      <trkpt lat="45.70571" lon="4.74105">
        <ele>318.3336182</ele>
        <time>2010-12-05T07:48:11Z</time>
      </trkpt>
      <trkpt lat="45.70574" lon="4.74132">
        <ele>317.8530273</ele>
        <time>2010-12-05T07:48:18Z</time>
      </trkpt>
      <trkpt lat="45.70578" lon="4.7415">
        <ele>317.3724365</ele>
        <time>2010-12-05T07:48:23Z</time>
      </trkpt>
      <trkpt lat="45.70583" lon="4.74169">
        <ele>316.8917236</ele>
        <time>2010-12-05T07:48:28Z</time>
      </trkpt>
      <trkpt lat="45.70586" lon="4.74175">
        <ele>315.9304199</ele>
        <time>2010-12-05T07:48:30Z</time>
      </trkpt>
      <trkpt lat="45.7059" lon="4.74192">
        <ele>314.9691162</ele>
        <time>2010-12-05T07:48:35Z</time>
      </trkpt>
      <trkpt lat="45.70593" lon="4.74202">
        <ele>314.9691162</ele>
        <time>2010-12-05T07:48:38Z</time>
      </trkpt>
      <trkpt lat="45.70595" lon="4.74209">
        <ele>314.4884033</ele>
        <time>2010-12-05T07:48:40Z</time>
      </trkpt>
      <trkpt lat="45.70602" lon="4.74228">
        <ele>314.0078125</ele>
        <time>2010-12-05T07:48:45Z</time>
      </trkpt>
      <trkpt lat="45.70603" lon="4.74235">
        <ele>314.0078125</ele>
        <time>2010-12-05T07:48:47Z</time>
      </trkpt>
      <trkpt lat="45.70608" lon="4.74251">
        <ele>313.5272217</ele>
        <time>2010-12-05T07:48:51Z</time>
      </trkpt>
      <trkpt lat="45.70609" lon="4.74259">
        <ele>313.5272217</ele>
        <time>2010-12-05T07:48:53Z</time>
      </trkpt>
      <trkpt lat="45.70616" lon="4.74283">
        <ele>313.5272217</ele>
        <time>2010-12-05T07:48:59Z</time>
      </trkpt>
      <trkpt lat="45.70619" lon="4.74295">
        <ele>312.5657959</ele>
        <time>2010-12-05T07:49:02Z</time>
      </trkpt>
      <trkpt lat="45.70626" lon="4.74312">
        <ele>310.1624756</ele>
        <time>2010-12-05T07:49:07Z</time>
      </trkpt>
      <trkpt lat="45.70638" lon="4.74336">
        <ele>309.6818848</ele>
        <time>2010-12-05T07:49:13Z</time>
      </trkpt>
      <trkpt lat="45.7064" lon="4.74352">
        <ele>309.2011719</ele>
        <time>2010-12-05T07:49:17Z</time>
      </trkpt>
      <trkpt lat="45.70643" lon="4.74366">
        <ele>308.720459</ele>
        <time>2010-12-05T07:49:21Z</time>
      </trkpt>
      <trkpt lat="45.70653" lon="4.74385">
        <ele>306.7978516</ele>
        <time>2010-12-05T07:49:27Z</time>
      </trkpt>
      <trkpt lat="45.70661" lon="4.74404">
        <ele>306.3172607</ele>
        <time>2010-12-05T07:49:32Z</time>
      </trkpt>
      <trkpt lat="45.70665" lon="4.74418">
        <ele>305.8366699</ele>
        <time>2010-12-05T07:49:36Z</time>
      </trkpt>
      <trkpt lat="45.70673" lon="4.7443">
        <ele>305.355957</ele>
        <time>2010-12-05T07:49:40Z</time>
      </trkpt>
      <trkpt lat="45.70675" lon="4.74435">
        <ele>305.8366699</ele>
        <time>2010-12-05T07:49:42Z</time>
      </trkpt>
      <trkpt lat="45.7068" lon="4.74446">
        <ele>305.8366699</ele>
        <time>2010-12-05T07:49:47Z</time>
      </trkpt>
      <trkpt lat="45.70688" lon="4.74456">
        <ele>305.355957</ele>
        <time>2010-12-05T07:49:51Z</time>
      </trkpt>
      <trkpt lat="45.70699" lon="4.74464">
        <ele>307.7592773</ele>
        <time>2010-12-05T07:49:56Z</time>
      </trkpt>
      <trkpt lat="45.7071" lon="4.74471">
        <ele>308.720459</ele>
        <time>2010-12-05T07:50:01Z</time>
      </trkpt>
      <trkpt lat="45.7072" lon="4.74477">
        <ele>309.2011719</ele>
        <time>2010-12-05T07:50:05Z</time>
      </trkpt>
      <trkpt lat="45.70722" lon="4.74478">
        <ele>309.2011719</ele>
        <time>2010-12-05T07:50:06Z</time>
      </trkpt>
      <trkpt lat="45.70732" lon="4.74484">
        <ele>309.6818848</ele>
        <time>2010-12-05T07:50:10Z</time>
      </trkpt>
      <trkpt lat="45.70739" lon="4.74486">
        <ele>308.720459</ele>
        <time>2010-12-05T07:50:13Z</time>
      </trkpt>
      <trkpt lat="45.70751" lon="4.74491">
        <ele>309.6818848</ele>
        <time>2010-12-05T07:50:18Z</time>
      </trkpt>
      <trkpt lat="45.70762" lon="4.74498">
        <ele>309.2011719</ele>
        <time>2010-12-05T07:50:23Z</time>
      </trkpt>
      <trkpt lat="45.70774" lon="4.74504">
        <ele>309.2011719</ele>
        <time>2010-12-05T07:50:28Z</time>
      </trkpt>
      <trkpt lat="45.70785" lon="4.74508">
        <ele>309.2011719</ele>
        <time>2010-12-05T07:50:32Z</time>
      </trkpt>
      <trkpt lat="45.70794" lon="4.74513">
        <ele>308.720459</ele>
        <time>2010-12-05T07:50:35Z</time>
      </trkpt>
      <trkpt lat="45.70801" lon="4.74518">
        <ele>308.2398682</ele>
        <time>2010-12-05T07:50:38Z</time>
      </trkpt>
      <trkpt lat="45.70807" lon="4.74521">
        <ele>307.2785645</ele>
        <time>2010-12-05T07:50:40Z</time>
      </trkpt>
      <trkpt lat="45.70826" lon="4.74536">
        <ele>306.3172607</ele>
        <time>2010-12-05T07:50:47Z</time>
      </trkpt>
      <trkpt lat="45.70835" lon="4.74542">
        <ele>306.7978516</ele>
        <time>2010-12-05T07:50:50Z</time>
      </trkpt>
      <trkpt lat="45.70847" lon="4.74551">
        <ele>306.3172607</ele>
        <time>2010-12-05T07:50:55Z</time>
      </trkpt>
      <trkpt lat="45.7086" lon="4.74561">
        <ele>305.355957</ele>
        <time>2010-12-05T07:51:00Z</time>
      </trkpt>
      <trkpt lat="45.70866" lon="4.74564">
        <ele>305.355957</ele>
        <time>2010-12-05T07:51:02Z</time>
      </trkpt>
      <trkpt lat="45.70873" lon="4.74568">
        <ele>306.3172607</ele>
        <time>2010-12-05T07:51:05Z</time>
      </trkpt>
      <trkpt lat="45.7088" lon="4.74577">
        <ele>308.2398682</ele>
        <time>2010-12-05T07:51:09Z</time>
      </trkpt>
      <trkpt lat="45.70885" lon="4.7458">
        <ele>308.2398682</ele>
        <time>2010-12-05T07:51:11Z</time>
      </trkpt>
      <trkpt lat="45.70907" lon="4.74583">
        <ele>307.2785645</ele>
        <time>2010-12-05T07:51:18Z</time>
      </trkpt>
      <trkpt lat="45.70918" lon="4.74586">
        <ele>307.7592773</ele>
        <time>2010-12-05T07:51:22Z</time>
      </trkpt>
      <trkpt lat="45.70937" lon="4.7459">
        <ele>309.6818848</ele>
        <time>2010-12-05T07:51:27Z</time>
      </trkpt>
      <trkpt lat="45.70943" lon="4.74592">
        <ele>310.6430664</ele>
        <time>2010-12-05T07:51:29Z</time>
      </trkpt>
      <trkpt lat="45.70959" lon="4.746">
        <ele>311.6044922</ele>
        <time>2010-12-05T07:51:35Z</time>
      </trkpt>
      <trkpt lat="45.7097" lon="4.74604">
        <ele>311.6044922</ele>
        <time>2010-12-05T07:51:39Z</time>
      </trkpt>
      <trkpt lat="45.70983" lon="4.74608">
        <ele>310.6430664</ele>
        <time>2010-12-05T07:51:44Z</time>
      </trkpt>
      <trkpt lat="45.70993" lon="4.74608">
        <ele>309.2011719</ele>
        <time>2010-12-05T07:51:48Z</time>
      </trkpt>
      <trkpt lat="45.71005" lon="4.74603">
        <ele>307.7592773</ele>
        <time>2010-12-05T07:51:53Z</time>
      </trkpt>
      <trkpt lat="45.71016" lon="4.74596">
        <ele>306.3172607</ele>
        <time>2010-12-05T07:51:58Z</time>
      </trkpt>
      <trkpt lat="45.71022" lon="4.74593">
        <ele>305.8366699</ele>
        <time>2010-12-05T07:52:00Z</time>
      </trkpt>
      <trkpt lat="45.71031" lon="4.74577">
        <ele>303.9139404</ele>
        <time>2010-12-05T07:52:05Z</time>
      </trkpt>
      <trkpt lat="45.7104" lon="4.74575">
        <ele>303.9139404</ele>
        <time>2010-12-05T07:52:09Z</time>
      </trkpt>
      <trkpt lat="45.71042" lon="4.74576">
        <ele>304.3946533</ele>
        <time>2010-12-05T07:52:10Z</time>
      </trkpt>
      <trkpt lat="45.71056" lon="4.7459">
        <ele>302.9525146</ele>
        <time>2010-12-05T07:52:16Z</time>
      </trkpt>
      <trkpt lat="45.71057" lon="4.74593">
        <ele>302.9525146</ele>
        <time>2010-12-05T07:52:17Z</time>
      </trkpt>
      <trkpt lat="45.7106" lon="4.7461">
        <ele>301.991333</ele>
        <time>2010-12-05T07:52:23Z</time>
      </trkpt>
      <trkpt lat="45.71068" lon="4.74631">
        <ele>302.9525146</ele>
        <time>2010-12-05T07:52:30Z</time>
      </trkpt>
      <trkpt lat="45.71068" lon="4.74644">
        <ele>303.4332275</ele>
        <time>2010-12-05T07:52:34Z</time>
      </trkpt>
      <trkpt lat="45.71068" lon="4.74656">
        <ele>303.9139404</ele>
        <time>2010-12-05T07:52:38Z</time>
      </trkpt>
      <trkpt lat="45.71072" lon="4.74668">
        <ele>306.3172607</ele>
        <time>2010-12-05T07:52:43Z</time>
      </trkpt>
      <trkpt lat="45.71072" lon="4.74669">
        <ele>306.3172607</ele>
        <time>2010-12-05T07:52:44Z</time>
      </trkpt>
      <trkpt lat="45.71074" lon="4.74675">
        <ele>306.3172607</ele>
        <time>2010-12-05T07:52:50Z</time>
      </trkpt>
      <trkpt lat="45.71078" lon="4.74684">
        <ele>306.3172607</ele>
        <time>2010-12-05T07:52:55Z</time>
      </trkpt>
      <trkpt lat="45.71082" lon="4.74698">
        <ele>304.3946533</ele>
        <time>2010-12-05T07:53:01Z</time>
      </trkpt>
      <trkpt lat="45.71082" lon="4.74701">
        <ele>304.3946533</ele>
        <time>2010-12-05T07:53:02Z</time>
      </trkpt>
      <trkpt lat="45.71087" lon="4.74714">
        <ele>304.3946533</ele>
        <time>2010-12-05T07:53:07Z</time>
      </trkpt>
      <trkpt lat="45.71092" lon="4.74727">
        <ele>303.4332275</ele>
        <time>2010-12-05T07:53:11Z</time>
      </trkpt>
      <trkpt lat="45.711" lon="4.74746">
        <ele>303.9139404</ele>
        <time>2010-12-05T07:53:16Z</time>
      </trkpt>
      <trkpt lat="45.71104" lon="4.74767">
        <ele>303.9139404</ele>
        <time>2010-12-05T07:53:22Z</time>
      </trkpt>
      <trkpt lat="45.71103" lon="4.74779">
        <ele>303.4332275</ele>
        <time>2010-12-05T07:53:25Z</time>
      </trkpt>
      <trkpt lat="45.7109" lon="4.74808">
        <ele>309.6818848</ele>
        <time>2010-12-05T07:53:32Z</time>
      </trkpt>
      <trkpt lat="45.71077" lon="4.74826">
        <ele>325.0629883</ele>
        <time>2010-12-05T07:53:36Z</time>
      </trkpt>
      <trkpt lat="45.71066" lon="4.74837">
        <ele>328.4276123</ele>
        <time>2010-12-05T07:53:40Z</time>
      </trkpt>
      <trkpt lat="45.71056" lon="4.74842">
        <ele>325.5435791</ele>
        <time>2010-12-05T07:53:44Z</time>
      </trkpt>
      <trkpt lat="45.71042" lon="4.74843">
        <ele>326.5048828</ele>
        <time>2010-12-05T07:53:49Z</time>
      </trkpt>
      <trkpt lat="45.71028" lon="4.74848">
        <ele>335.1567383</ele>
        <time>2010-12-05T07:53:53Z</time>
      </trkpt>
      <trkpt lat="45.71014" lon="4.74854">
        <ele>342.84729</ele>
        <time>2010-12-05T07:53:57Z</time>
      </trkpt>
      <trkpt lat="45.70998" lon="4.7486">
        <ele>337.5600586</ele>
        <time>2010-12-05T07:54:03Z</time>
      </trkpt>
      <trkpt lat="45.7099" lon="4.74861">
        <ele>327.4661865</ele>
        <time>2010-12-05T07:54:07Z</time>
      </trkpt>
      <trkpt lat="45.70983" lon="4.74864">
        <ele>323.1403809</ele>
        <time>2010-12-05T07:54:10Z</time>
      </trkpt>
      <trkpt lat="45.70974" lon="4.74866">
        <ele>318.3336182</ele>
        <time>2010-12-05T07:54:14Z</time>
      </trkpt>
      <trkpt lat="45.70957" lon="4.7487">
        <ele>310.6430664</ele>
        <time>2010-12-05T07:54:21Z</time>
      </trkpt>
      <trkpt lat="45.70949" lon="4.74874">
        <ele>304.8752441</ele>
        <time>2010-12-05T07:54:25Z</time>
      </trkpt>
      <trkpt lat="45.70939" lon="4.74878">
        <ele>300.5493164</ele>
        <time>2010-12-05T07:54:29Z</time>
      </trkpt>
      <trkpt lat="45.70925" lon="4.74884">
        <ele>298.1461182</ele>
        <time>2010-12-05T07:54:35Z</time>
      </trkpt>
      <trkpt lat="45.70912" lon="4.74888">
        <ele>300.0687256</ele>
        <time>2010-12-05T07:54:40Z</time>
      </trkpt>
      <trkpt lat="45.709" lon="4.74892">
        <ele>302.9525146</ele>
        <time>2010-12-05T07:54:44Z</time>
      </trkpt>
      <trkpt lat="45.70888" lon="4.74897">
        <ele>301.991333</ele>
        <time>2010-12-05T07:54:49Z</time>
      </trkpt>
      <trkpt lat="45.70873" lon="4.74901">
        <ele>305.355957</ele>
        <time>2010-12-05T07:54:54Z</time>
      </trkpt>
      <trkpt lat="45.70858" lon="4.74905">
        <ele>308.720459</ele>
        <time>2010-12-05T07:54:59Z</time>
      </trkpt>
      <trkpt lat="45.70846" lon="4.74913">
        <ele>310.1624756</ele>
        <time>2010-12-05T07:55:04Z</time>
      </trkpt>
      <trkpt lat="45.70834" lon="4.74917">
        <ele>304.8752441</ele>
        <time>2010-12-05T07:55:09Z</time>
      </trkpt>
      <trkpt lat="45.7082" lon="4.74925">
        <ele>306.7978516</ele>
        <time>2010-12-05T07:55:14Z</time>
      </trkpt>
      <trkpt lat="45.70817" lon="4.74926">
        <ele>306.3172607</ele>
        <time>2010-12-05T07:55:15Z</time>
      </trkpt>
      <trkpt lat="45.70804" lon="4.7493">
        <ele>301.0299072</ele>
        <time>2010-12-05T07:55:20Z</time>
      </trkpt>
      <trkpt lat="45.70794" lon="4.74937">
        <ele>298.1461182</ele>
        <time>2010-12-05T07:55:24Z</time>
      </trkpt>
      <trkpt lat="45.70792" lon="4.74939">
        <ele>298.626709</ele>
        <time>2010-12-05T07:55:25Z</time>
      </trkpt>
      <trkpt lat="45.70782" lon="4.74952">
        <ele>294.7813721</ele>
        <time>2010-12-05T07:55:30Z</time>
      </trkpt>
      <trkpt lat="45.70775" lon="4.74966">
        <ele>285.1682129</ele>
        <time>2010-12-05T07:55:34Z</time>
      </trkpt>
      <trkpt lat="45.70772" lon="4.74972">
        <ele>283.7261963</ele>
        <time>2010-12-05T07:55:36Z</time>
      </trkpt>
      <trkpt lat="45.70768" lon="4.74986">
        <ele>282.2843018</ele>
        <time>2010-12-05T07:55:41Z</time>
      </trkpt>
      <trkpt lat="45.70753" lon="4.75004">
        <ele>285.6488037</ele>
        <time>2010-12-05T07:55:47Z</time>
      </trkpt>
      <trkpt lat="45.70748" lon="4.75023">
        <ele>286.1295166</ele>
        <time>2010-12-05T07:55:52Z</time>
      </trkpt>
      <trkpt lat="45.7075" lon="4.75036">
        <ele>286.1295166</ele>
        <time>2010-12-05T07:55:55Z</time>
      </trkpt>
      <trkpt lat="45.70751" lon="4.75051">
        <ele>286.1295166</ele>
        <time>2010-12-05T07:55:59Z</time>
      </trkpt>
      <trkpt lat="45.70751" lon="4.75065">
        <ele>285.1682129</ele>
        <time>2010-12-05T07:56:03Z</time>
      </trkpt>
      <trkpt lat="45.7075" lon="4.75075">
        <ele>287.5714111</ele>
        <time>2010-12-05T07:56:06Z</time>
      </trkpt>
      <trkpt lat="45.70753" lon="4.75095">
        <ele>289.4941406</ele>
        <time>2010-12-05T07:56:11Z</time>
      </trkpt>
      <trkpt lat="45.70754" lon="4.75106">
        <ele>289.4941406</ele>
        <time>2010-12-05T07:56:14Z</time>
      </trkpt>
      <trkpt lat="45.70747" lon="4.75125">
        <ele>297.6654053</ele>
        <time>2010-12-05T07:56:19Z</time>
      </trkpt>
      <trkpt lat="45.70734" lon="4.75131">
        <ele>304.3946533</ele>
        <time>2010-12-05T07:56:23Z</time>
      </trkpt>
      <trkpt lat="45.70728" lon="4.75132">
        <ele>305.8366699</ele>
        <time>2010-12-05T07:56:25Z</time>
      </trkpt>
      <trkpt lat="45.70713" lon="4.75133">
        <ele>299.1072998</ele>
        <time>2010-12-05T07:56:32Z</time>
      </trkpt>
      <trkpt lat="45.70698" lon="4.75136">
        <ele>291.416748</ele>
        <time>2010-12-05T07:56:38Z</time>
      </trkpt>
      <trkpt lat="45.70685" lon="4.75138">
        <ele>286.6102295</ele>
        <time>2010-12-05T07:56:43Z</time>
      </trkpt>
      <trkpt lat="45.70673" lon="4.75139">
        <ele>281.322998</ele>
        <time>2010-12-05T07:56:48Z</time>
      </trkpt>
      <trkpt lat="45.70665" lon="4.75143">
        <ele>278.9196777</ele>
        <time>2010-12-05T07:56:53Z</time>
      </trkpt>
      <trkpt lat="45.70654" lon="4.75138">
        <ele>280.8424072</ele>
        <time>2010-12-05T07:56:58Z</time>
      </trkpt>
      <trkpt lat="45.70648" lon="4.75135">
        <ele>281.322998</ele>
        <time>2010-12-05T07:57:00Z</time>
      </trkpt>
      <trkpt lat="45.70631" lon="4.75141">
        <ele>281.322998</ele>
        <time>2010-12-05T07:57:06Z</time>
      </trkpt>
      <trkpt lat="45.70618" lon="4.75149">
        <ele>284.6876221</ele>
        <time>2010-12-05T07:57:11Z</time>
      </trkpt>
      <trkpt lat="45.70615" lon="4.75151">
        <ele>285.6488037</ele>
        <time>2010-12-05T07:57:12Z</time>
      </trkpt>
      <trkpt lat="45.70596" lon="4.75163">
        <ele>288.532959</ele>
        <time>2010-12-05T07:57:19Z</time>
      </trkpt>
      <trkpt lat="45.70585" lon="4.75174">
        <ele>287.5714111</ele>
        <time>2010-12-05T07:57:24Z</time>
      </trkpt>
      <trkpt lat="45.70577" lon="4.75187">
        <ele>289.0135498</ele>
        <time>2010-12-05T07:57:28Z</time>
      </trkpt>
      <trkpt lat="45.70571" lon="4.75196">
        <ele>289.0135498</ele>
        <time>2010-12-05T07:57:31Z</time>
      </trkpt>
      <trkpt lat="45.70564" lon="4.75205">
        <ele>286.6102295</ele>
        <time>2010-12-05T07:57:34Z</time>
      </trkpt>
      <trkpt lat="45.70554" lon="4.75217">
        <ele>285.1682129</ele>
        <time>2010-12-05T07:57:38Z</time>
      </trkpt>
      <trkpt lat="45.70544" lon="4.75231">
        <ele>286.6102295</ele>
        <time>2010-12-05T07:57:43Z</time>
      </trkpt>
      <trkpt lat="45.70532" lon="4.75248">
        <ele>292.3781738</ele>
        <time>2010-12-05T07:57:48Z</time>
      </trkpt>
      <trkpt lat="45.70526" lon="4.75257">
        <ele>293.3393555</ele>
        <time>2010-12-05T07:57:51Z</time>
      </trkpt>
      <trkpt lat="45.70512" lon="4.75278">
        <ele>291.416748</ele>
        <time>2010-12-05T07:57:58Z</time>
      </trkpt>
      <trkpt lat="45.70503" lon="4.75289">
        <ele>285.6488037</ele>
        <time>2010-12-05T07:58:02Z</time>
      </trkpt>
      <trkpt lat="45.70499" lon="4.75304">
        <ele>281.8035889</ele>
        <time>2010-12-05T07:58:06Z</time>
      </trkpt>
      <trkpt lat="45.70495" lon="4.75317">
        <ele>276.9970703</ele>
        <time>2010-12-05T07:58:10Z</time>
      </trkpt>
      <trkpt lat="45.70485" lon="4.75332">
        <ele>271.7097168</ele>
        <time>2010-12-05T07:58:15Z</time>
      </trkpt>
      <trkpt lat="45.70477" lon="4.75347">
        <ele>271.229126</ele>
        <time>2010-12-05T07:58:20Z</time>
      </trkpt>
      <trkpt lat="45.70464" lon="4.75354">
        <ele>267.864502</ele>
        <time>2010-12-05T07:58:25Z</time>
      </trkpt>
      <trkpt lat="45.70455" lon="4.7536">
        <ele>264.4998779</ele>
        <time>2010-12-05T07:58:29Z</time>
      </trkpt>
      <trkpt lat="45.7045" lon="4.75363">
        <ele>262.5771484</ele>
        <time>2010-12-05T07:58:32Z</time>
      </trkpt>
      <trkpt lat="45.70446" lon="4.75366">
        <ele>261.6159668</ele>
        <time>2010-12-05T07:58:34Z</time>
      </trkpt>
      <trkpt lat="45.70438" lon="4.75375">
        <ele>260.1739502</ele>
        <time>2010-12-05T07:58:39Z</time>
      </trkpt>
      <trkpt lat="45.70431" lon="4.75387">
        <ele>262.5771484</ele>
        <time>2010-12-05T07:58:44Z</time>
      </trkpt>
      <trkpt lat="45.70427" lon="4.75401">
        <ele>272.6711426</ele>
        <time>2010-12-05T07:58:51Z</time>
      </trkpt>
      <trkpt lat="45.70427" lon="4.75403">
        <ele>274.59375</ele>
        <time>2010-12-05T07:58:52Z</time>
      </trkpt>
      <trkpt lat="45.70428" lon="4.75413">
        <ele>279.8808594</ele>
        <time>2010-12-05T07:58:57Z</time>
      </trkpt>
      <trkpt lat="45.70428" lon="4.75416">
        <ele>280.8424072</ele>
        <time>2010-12-05T07:58:59Z</time>
      </trkpt>
      <trkpt lat="45.70429" lon="4.75427">
        <ele>282.7650146</ele>
        <time>2010-12-05T07:59:05Z</time>
      </trkpt>
      <trkpt lat="45.70434" lon="4.75437">
        <ele>282.2843018</ele>
        <time>2010-12-05T07:59:11Z</time>
      </trkpt>
      <trkpt lat="45.70435" lon="4.75441">
        <ele>282.7650146</ele>
        <time>2010-12-05T07:59:13Z</time>
      </trkpt>
      <trkpt lat="45.70436" lon="4.75451">
        <ele>283.7261963</ele>
        <time>2010-12-05T07:59:18Z</time>
      </trkpt>
      <trkpt lat="45.70437" lon="4.75453">
        <ele>283.2456055</ele>
        <time>2010-12-05T07:59:20Z</time>
      </trkpt>
      <trkpt lat="45.70439" lon="4.75457">
        <ele>282.2843018</ele>
        <time>2010-12-05T07:59:23Z</time>
      </trkpt>
      <trkpt lat="45.7044" lon="4.75464">
        <ele>281.8035889</ele>
        <time>2010-12-05T07:59:28Z</time>
      </trkpt>
      <trkpt lat="45.70442" lon="4.75468">
        <ele>281.322998</ele>
        <time>2010-12-05T07:59:31Z</time>
      </trkpt>
      <trkpt lat="45.70442" lon="4.75473">
        <ele>282.2843018</ele>
        <time>2010-12-05T07:59:34Z</time>
      </trkpt>
      <trkpt lat="45.70444" lon="4.75481">
        <ele>282.2843018</ele>
        <time>2010-12-05T07:59:41Z</time>
      </trkpt>
      <trkpt lat="45.70447" lon="4.75487">
        <ele>283.2456055</ele>
        <time>2010-12-05T07:59:46Z</time>
      </trkpt>
      <trkpt lat="45.70449" lon="4.75493">
        <ele>285.1682129</ele>
        <time>2010-12-05T07:59:50Z</time>
      </trkpt>
      <trkpt lat="45.70451" lon="4.75498">
        <ele>285.6488037</ele>
        <time>2010-12-05T07:59:54Z</time>
      </trkpt>
      <trkpt lat="45.70451" lon="4.75501">
        <ele>286.6102295</ele>
        <time>2010-12-05T07:59:56Z</time>
      </trkpt>
      <trkpt lat="45.70454" lon="4.75506">
        <ele>288.0522461</ele>
        <time>2010-12-05T08:00:00Z</time>
      </trkpt>
      <trkpt lat="45.70458" lon="4.7551">
        <ele>290.4555664</ele>
        <time>2010-12-05T08:00:06Z</time>
      </trkpt>
      <trkpt lat="45.70461" lon="4.75513">
        <ele>292.3781738</ele>
        <time>2010-12-05T08:00:11Z</time>
      </trkpt>
      <trkpt lat="45.70466" lon="4.75516">
        <ele>292.8587646</ele>
        <time>2010-12-05T08:00:15Z</time>
      </trkpt>
      <trkpt lat="45.70483" lon="4.75516">
        <ele>292.8587646</ele>
        <time>2010-12-05T08:00:21Z</time>
      </trkpt>
      <trkpt lat="45.70488" lon="4.75515">
        <ele>292.8587646</ele>
        <time>2010-12-05T08:00:23Z</time>
      </trkpt>
      <trkpt lat="45.70494" lon="4.75515">
        <ele>292.8587646</ele>
        <time>2010-12-05T08:00:26Z</time>
      </trkpt>
      <trkpt lat="45.70504" lon="4.75514">
        <ele>292.3781738</ele>
        <time>2010-12-05T08:00:31Z</time>
      </trkpt>
      <trkpt lat="45.70516" lon="4.75512">
        <ele>294.3007813</ele>
        <time>2010-12-05T08:00:36Z</time>
      </trkpt>
      <trkpt lat="45.70525" lon="4.75512">
        <ele>296.7041016</ele>
        <time>2010-12-05T08:00:39Z</time>
      </trkpt>
      <trkpt lat="45.70534" lon="4.75515">
        <ele>297.6654053</ele>
        <time>2010-12-05T08:00:44Z</time>
      </trkpt>
      <trkpt lat="45.70544" lon="4.7552">
        <ele>298.626709</ele>
        <time>2010-12-05T08:00:48Z</time>
      </trkpt>
      <trkpt lat="45.70551" lon="4.7553">
        <ele>299.1072998</ele>
        <time>2010-12-05T08:00:53Z</time>
      </trkpt>
      <trkpt lat="45.70559" lon="4.75541">
        <ele>300.0687256</ele>
        <time>2010-12-05T08:00:57Z</time>
      </trkpt>
      <trkpt lat="45.70562" lon="4.75548">
        <ele>300.5493164</ele>
        <time>2010-12-05T08:01:00Z</time>
      </trkpt>
      <trkpt lat="45.7057" lon="4.75556">
        <ele>301.5106201</ele>
        <time>2010-12-05T08:01:04Z</time>
      </trkpt>
      <trkpt lat="45.70577" lon="4.75569">
        <ele>301.5106201</ele>
        <time>2010-12-05T08:01:09Z</time>
      </trkpt>
      <trkpt lat="45.70579" lon="4.75577">
        <ele>301.0299072</ele>
        <time>2010-12-05T08:01:12Z</time>
      </trkpt>
      <trkpt lat="45.70582" lon="4.75596">
        <ele>300.0687256</ele>
        <time>2010-12-05T08:01:19Z</time>
      </trkpt>
      <trkpt lat="45.70582" lon="4.75614">
        <ele>300.0687256</ele>
        <time>2010-12-05T08:01:25Z</time>
      </trkpt>
      <trkpt lat="45.70581" lon="4.75624">
        <ele>300.0687256</ele>
        <time>2010-12-05T08:01:29Z</time>
      </trkpt>
      <trkpt lat="45.70581" lon="4.7564">
        <ele>301.0299072</ele>
        <time>2010-12-05T08:01:34Z</time>
      </trkpt>
      <trkpt lat="45.70579" lon="4.7565">
        <ele>301.5106201</ele>
        <time>2010-12-05T08:01:38Z</time>
      </trkpt>
      <trkpt lat="45.70579" lon="4.75657">
        <ele>301.991333</ele>
        <time>2010-12-05T08:01:40Z</time>
      </trkpt>
      <trkpt lat="45.70579" lon="4.75668">
        <ele>302.4719238</ele>
        <time>2010-12-05T08:01:44Z</time>
      </trkpt>
      <trkpt lat="45.70579" lon="4.75681">
        <ele>303.4332275</ele>
        <time>2010-12-05T08:01:49Z</time>
      </trkpt>
      <trkpt lat="45.70581" lon="4.75692">
        <ele>304.8752441</ele>
        <time>2010-12-05T08:01:53Z</time>
      </trkpt>
      <trkpt lat="45.70585" lon="4.75699">
        <ele>306.3172607</ele>
        <time>2010-12-05T08:01:56Z</time>
      </trkpt>
      <trkpt lat="45.70589" lon="4.75713">
        <ele>307.7592773</ele>
        <time>2010-12-05T08:02:00Z</time>
      </trkpt>
      <trkpt lat="45.70595" lon="4.75732">
        <ele>307.7592773</ele>
        <time>2010-12-05T08:02:05Z</time>
      </trkpt>
      <trkpt lat="45.706" lon="4.75747">
        <ele>307.7592773</ele>
        <time>2010-12-05T08:02:10Z</time>
      </trkpt>
      <trkpt lat="45.70606" lon="4.75761">
        <ele>308.2398682</ele>
        <time>2010-12-05T08:02:14Z</time>
      </trkpt>
      <trkpt lat="45.70612" lon="4.75771">
        <ele>309.2011719</ele>
        <time>2010-12-05T08:02:18Z</time>
      </trkpt>
      <trkpt lat="45.70617" lon="4.75788">
        <ele>307.7592773</ele>
        <time>2010-12-05T08:02:23Z</time>
      </trkpt>
      <trkpt lat="45.70618" lon="4.75803">
        <ele>306.3172607</ele>
        <time>2010-12-05T08:02:27Z</time>
      </trkpt>
      <trkpt lat="45.70619" lon="4.75826">
        <ele>304.3946533</ele>
        <time>2010-12-05T08:02:32Z</time>
      </trkpt>
      <trkpt lat="45.70621" lon="4.75842">
        <ele>304.8752441</ele>
        <time>2010-12-05T08:02:36Z</time>
      </trkpt>
      <trkpt lat="45.70622" lon="4.7585">
        <ele>304.8752441</ele>
        <time>2010-12-05T08:02:38Z</time>
      </trkpt>
      <trkpt lat="45.70624" lon="4.75874">
        <ele>304.8752441</ele>
        <time>2010-12-05T08:02:44Z</time>
      </trkpt>
      <trkpt lat="45.70628" lon="4.75891">
        <ele>303.4332275</ele>
        <time>2010-12-05T08:02:48Z</time>
      </trkpt>
      <trkpt lat="45.70628" lon="4.75909">
        <ele>302.4719238</ele>
        <time>2010-12-05T08:02:52Z</time>
      </trkpt>
      <trkpt lat="45.70631" lon="4.75921">
        <ele>301.5106201</ele>
        <time>2010-12-05T08:02:55Z</time>
      </trkpt>
      <trkpt lat="45.70634" lon="4.75943">
        <ele>300.5493164</ele>
        <time>2010-12-05T08:03:00Z</time>
      </trkpt>
      <trkpt lat="45.70636" lon="4.75959">
        <ele>299.5880127</ele>
        <time>2010-12-05T08:03:04Z</time>
      </trkpt>
      <trkpt lat="45.70636" lon="4.75986">
        <ele>298.626709</ele>
        <time>2010-12-05T08:03:10Z</time>
      </trkpt>
      <trkpt lat="45.70633" lon="4.75997">
        <ele>299.5880127</ele>
        <time>2010-12-05T08:03:13Z</time>
      </trkpt>
      <trkpt lat="45.7063" lon="4.76019">
        <ele>301.0299072</ele>
        <time>2010-12-05T08:03:18Z</time>
      </trkpt>
      <trkpt lat="45.70628" lon="4.76037">
        <ele>302.9525146</ele>
        <time>2010-12-05T08:03:22Z</time>
      </trkpt>
      <trkpt lat="45.70627" lon="4.76058">
        <ele>302.4719238</ele>
        <time>2010-12-05T08:03:26Z</time>
      </trkpt>
      <trkpt lat="45.70625" lon="4.76076">
        <ele>301.5106201</ele>
        <time>2010-12-05T08:03:30Z</time>
      </trkpt>
      <trkpt lat="45.70623" lon="4.76093">
        <ele>301.0299072</ele>
        <time>2010-12-05T08:03:34Z</time>
      </trkpt>
      <trkpt lat="45.70628" lon="4.76104">
        <ele>300.5493164</ele>
        <time>2010-12-05T08:03:38Z</time>
      </trkpt>
      <trkpt lat="45.70633" lon="4.76106">
        <ele>299.1072998</ele>
        <time>2010-12-05T08:03:40Z</time>
      </trkpt>
      <trkpt lat="45.70646" lon="4.76108">
        <ele>299.1072998</ele>
        <time>2010-12-05T08:03:45Z</time>
      </trkpt>
      <trkpt lat="45.70654" lon="4.76109">
        <ele>299.1072998</ele>
        <time>2010-12-05T08:03:48Z</time>
      </trkpt>
      <trkpt lat="45.70668" lon="4.76108">
        <ele>302.4719238</ele>
        <time>2010-12-05T08:03:54Z</time>
      </trkpt>
      <trkpt lat="45.70677" lon="4.76108">
        <ele>304.3946533</ele>
        <time>2010-12-05T08:03:58Z</time>
      </trkpt>
      <trkpt lat="45.70688" lon="4.76109">
        <ele>305.355957</ele>
        <time>2010-12-05T08:04:02Z</time>
      </trkpt>
      <trkpt lat="45.70691" lon="4.76108">
        <ele>305.8366699</ele>
        <time>2010-12-05T08:04:03Z</time>
      </trkpt>
      <trkpt lat="45.70702" lon="4.76107">
        <ele>306.7978516</ele>
        <time>2010-12-05T08:04:07Z</time>
      </trkpt>
      <trkpt lat="45.70715" lon="4.76109">
        <ele>306.3172607</ele>
        <time>2010-12-05T08:04:12Z</time>
      </trkpt>
      <trkpt lat="45.70729" lon="4.76111">
        <ele>305.8366699</ele>
        <time>2010-12-05T08:04:17Z</time>
      </trkpt>
      <trkpt lat="45.70741" lon="4.76113">
        <ele>305.355957</ele>
        <time>2010-12-05T08:04:23Z</time>
      </trkpt>
      <trkpt lat="45.70754" lon="4.76115">
        <ele>304.8752441</ele>
        <time>2010-12-05T08:04:28Z</time>
      </trkpt>
      <trkpt lat="45.70764" lon="4.76114">
        <ele>306.3172607</ele>
        <time>2010-12-05T08:04:32Z</time>
      </trkpt>
      <trkpt lat="45.70778" lon="4.76114">
        <ele>306.3172607</ele>
        <time>2010-12-05T08:04:38Z</time>
      </trkpt>
      <trkpt lat="45.70791" lon="4.76115">
        <ele>307.2785645</ele>
        <time>2010-12-05T08:04:43Z</time>
      </trkpt>
      <trkpt lat="45.70806" lon="4.76111">
        <ele>307.2785645</ele>
        <time>2010-12-05T08:04:49Z</time>
      </trkpt>
      <trkpt lat="45.70812" lon="4.76106">
        <ele>308.2398682</ele>
        <time>2010-12-05T08:04:52Z</time>
      </trkpt>
      <trkpt lat="45.70825" lon="4.76098">
        <ele>310.1624756</ele>
        <time>2010-12-05T08:04:57Z</time>
      </trkpt>
      <trkpt lat="45.70837" lon="4.7609">
        <ele>311.6044922</ele>
        <time>2010-12-05T08:05:02Z</time>
      </trkpt>
      <trkpt lat="45.70842" lon="4.76086">
        <ele>312.0852051</ele>
        <time>2010-12-05T08:05:04Z</time>
      </trkpt>
      <trkpt lat="45.70855" lon="4.76077">
        <ele>313.5272217</ele>
        <time>2010-12-05T08:05:10Z</time>
      </trkpt>
      <trkpt lat="45.70867" lon="4.7608">
        <ele>315.4498291</ele>
        <time>2010-12-05T08:05:15Z</time>
      </trkpt>
      <trkpt lat="45.70878" lon="4.76087">
        <ele>317.8530273</ele>
        <time>2010-12-05T08:05:20Z</time>
      </trkpt>
      <trkpt lat="45.70889" lon="4.76092">
        <ele>318.3336182</ele>
        <time>2010-12-05T08:05:25Z</time>
      </trkpt>
      <trkpt lat="45.70891" lon="4.76091">
        <ele>318.3336182</ele>
        <time>2010-12-05T08:05:26Z</time>
      </trkpt>
      <trkpt lat="45.70895" lon="4.76091">
        <ele>317.8530273</ele>
        <time>2010-12-05T08:05:28Z</time>
      </trkpt>
      <trkpt lat="45.70908" lon="4.76088">
        <ele>316.8917236</ele>
        <time>2010-12-05T08:05:34Z</time>
      </trkpt>
      <trkpt lat="45.7092" lon="4.7609">
        <ele>317.3724365</ele>
        <time>2010-12-05T08:05:38Z</time>
      </trkpt>
      <trkpt lat="45.70931" lon="4.7609">
        <ele>317.3724365</ele>
        <time>2010-12-05T08:05:42Z</time>
      </trkpt>
      <trkpt lat="45.7094" lon="4.76089">
        <ele>318.3336182</ele>
        <time>2010-12-05T08:05:46Z</time>
      </trkpt>
      <trkpt lat="45.70946" lon="4.7609">
        <ele>319.2950439</ele>
        <time>2010-12-05T08:05:49Z</time>
      </trkpt>
      <trkpt lat="45.70962" lon="4.76099">
        <ele>322.1789551</ele>
        <time>2010-12-05T08:05:56Z</time>
      </trkpt>
      <trkpt lat="45.70967" lon="4.76101">
        <ele>323.1403809</ele>
        <time>2010-12-05T08:05:58Z</time>
      </trkpt>
      <trkpt lat="45.70973" lon="4.76101">
        <ele>322.1789551</ele>
        <time>2010-12-05T08:06:00Z</time>
      </trkpt>
      <trkpt lat="45.70987" lon="4.76098">
        <ele>322.659668</ele>
        <time>2010-12-05T08:06:05Z</time>
      </trkpt>
      <trkpt lat="45.70991" lon="4.76099">
        <ele>323.1403809</ele>
        <time>2010-12-05T08:06:07Z</time>
      </trkpt>
      <trkpt lat="45.71001" lon="4.76099">
        <ele>322.659668</ele>
        <time>2010-12-05T08:06:12Z</time>
      </trkpt>
      <trkpt lat="45.71006" lon="4.76096">
        <ele>322.659668</ele>
        <time>2010-12-05T08:06:14Z</time>
      </trkpt>
      <trkpt lat="45.71022" lon="4.76088">
        <ele>322.659668</ele>
        <time>2010-12-05T08:06:20Z</time>
      </trkpt>
      <trkpt lat="45.71033" lon="4.76091">
        <ele>320.7370605</ele>
        <time>2010-12-05T08:06:24Z</time>
      </trkpt>
      <trkpt lat="45.71045" lon="4.76102">
        <ele>319.2950439</ele>
        <time>2010-12-05T08:06:29Z</time>
      </trkpt>
      <trkpt lat="45.7106" lon="4.76112">
        <ele>317.8530273</ele>
        <time>2010-12-05T08:06:34Z</time>
      </trkpt>
      <trkpt lat="45.71074" lon="4.76123">
        <ele>315.9304199</ele>
        <time>2010-12-05T08:06:40Z</time>
      </trkpt>
      <trkpt lat="45.71085" lon="4.76136">
        <ele>314.4884033</ele>
        <time>2010-12-05T08:06:44Z</time>
      </trkpt>
      <trkpt lat="45.71086" lon="4.76153">
        <ele>313.5272217</ele>
        <time>2010-12-05T08:06:48Z</time>
      </trkpt>
      <trkpt lat="45.71084" lon="4.76172">
        <ele>312.0852051</ele>
        <time>2010-12-05T08:06:53Z</time>
      </trkpt>
      <trkpt lat="45.71084" lon="4.76189">
        <ele>311.6044922</ele>
        <time>2010-12-05T08:06:57Z</time>
      </trkpt>
      <trkpt lat="45.71081" lon="4.76209">
        <ele>310.1624756</ele>
        <time>2010-12-05T08:07:02Z</time>
      </trkpt>
      <trkpt lat="45.71081" lon="4.76229">
        <ele>308.2398682</ele>
        <time>2010-12-05T08:07:07Z</time>
      </trkpt>
      <trkpt lat="45.71082" lon="4.76247">
        <ele>306.3172607</ele>
        <time>2010-12-05T08:07:11Z</time>
      </trkpt>
      <trkpt lat="45.71083" lon="4.76265">
        <ele>303.4332275</ele>
        <time>2010-12-05T08:07:16Z</time>
      </trkpt>
      <trkpt lat="45.71081" lon="4.76275">
        <ele>301.991333</ele>
        <time>2010-12-05T08:07:19Z</time>
      </trkpt>
      <trkpt lat="45.71079" lon="4.76283">
        <ele>301.0299072</ele>
        <time>2010-12-05T08:07:23Z</time>
      </trkpt>
      <trkpt lat="45.71073" lon="4.76296">
        <ele>297.1846924</ele>
        <time>2010-12-05T08:07:29Z</time>
      </trkpt>
      <trkpt lat="45.71071" lon="4.76304">
        <ele>295.2619629</ele>
        <time>2010-12-05T08:07:32Z</time>
      </trkpt>
      <trkpt lat="45.71065" lon="4.76314">
        <ele>293.3393555</ele>
        <time>2010-12-05T08:07:36Z</time>
      </trkpt>
      <trkpt lat="45.71059" lon="4.76336">
        <ele>296.2235107</ele>
        <time>2010-12-05T08:07:42Z</time>
      </trkpt>
      <trkpt lat="45.71055" lon="4.76351">
        <ele>299.5880127</ele>
        <time>2010-12-05T08:07:47Z</time>
      </trkpt>
      <trkpt lat="45.71056" lon="4.76364">
        <ele>300.5493164</ele>
        <time>2010-12-05T08:07:52Z</time>
      </trkpt>
      <trkpt lat="45.71055" lon="4.76367">
        <ele>299.5880127</ele>
        <time>2010-12-05T08:07:54Z</time>
      </trkpt>
      <trkpt lat="45.71053" lon="4.76376">
        <ele>297.6654053</ele>
        <time>2010-12-05T08:07:59Z</time>
      </trkpt>
      <trkpt lat="45.71049" lon="4.76388">
        <ele>296.7041016</ele>
        <time>2010-12-05T08:08:04Z</time>
      </trkpt>
      <trkpt lat="45.71047" lon="4.76394">
        <ele>297.1846924</ele>
        <time>2010-12-05T08:08:07Z</time>
      </trkpt>
      <trkpt lat="45.71045" lon="4.764">
        <ele>295.2619629</ele>
        <time>2010-12-05T08:08:11Z</time>
      </trkpt>
      <trkpt lat="45.71042" lon="4.76409">
        <ele>291.8974609</ele>
        <time>2010-12-05T08:08:16Z</time>
      </trkpt>
      <trkpt lat="45.71044" lon="4.76418">
        <ele>289.4941406</ele>
        <time>2010-12-05T08:08:22Z</time>
      </trkpt>
      <trkpt lat="45.71045" lon="4.76419">
        <ele>289.0135498</ele>
        <time>2010-12-05T08:08:23Z</time>
      </trkpt>
      <trkpt lat="45.71053" lon="4.76427">
        <ele>286.1295166</ele>
        <time>2010-12-05T08:08:28Z</time>
      </trkpt>
      <trkpt lat="45.71056" lon="4.76427">
        <ele>285.1682129</ele>
        <time>2010-12-05T08:08:31Z</time>
      </trkpt>
      <trkpt lat="45.71061" lon="4.76429">
        <ele>285.1682129</ele>
        <time>2010-12-05T08:08:35Z</time>
      </trkpt>
      <trkpt lat="45.71068" lon="4.76429">
        <ele>284.2069092</ele>
        <time>2010-12-05T08:08:40Z</time>
      </trkpt>
      <trkpt lat="45.71068" lon="4.76443">
        <ele>286.6102295</ele>
        <time>2010-12-05T08:08:45Z</time>
      </trkpt>
      <trkpt lat="45.71066" lon="4.7645">
        <ele>286.6102295</ele>
        <time>2010-12-05T08:08:47Z</time>
      </trkpt>
      <trkpt lat="45.71064" lon="4.76463">
        <ele>284.2069092</ele>
        <time>2010-12-05T08:08:53Z</time>
      </trkpt>
      <trkpt lat="45.71059" lon="4.76472">
        <ele>282.7650146</ele>
        <time>2010-12-05T08:08:57Z</time>
      </trkpt>
      <trkpt lat="45.71051" lon="4.76485">
        <ele>282.7650146</ele>
        <time>2010-12-05T08:09:02Z</time>
      </trkpt>
      <trkpt lat="45.71046" lon="4.76497">
        <ele>283.2456055</ele>
        <time>2010-12-05T08:09:06Z</time>
      </trkpt>
      <trkpt lat="45.71046" lon="4.76504">
        <ele>281.322998</ele>
        <time>2010-12-05T08:09:08Z</time>
      </trkpt>
      <trkpt lat="45.71043" lon="4.76522">
        <ele>272.1904297</ele>
        <time>2010-12-05T08:09:14Z</time>
      </trkpt>
      <trkpt lat="45.71041" lon="4.7654">
        <ele>269.7871094</ele>
        <time>2010-12-05T08:09:19Z</time>
      </trkpt>
      <trkpt lat="45.71041" lon="4.76559">
        <ele>271.229126</ele>
        <time>2010-12-05T08:09:23Z</time>
      </trkpt>
      <trkpt lat="45.71042" lon="4.7658">
        <ele>267.3839111</ele>
        <time>2010-12-05T08:09:28Z</time>
      </trkpt>
      <trkpt lat="45.71044" lon="4.76599">
        <ele>264.0192871</ele>
        <time>2010-12-05T08:09:33Z</time>
      </trkpt>
      <trkpt lat="45.71045" lon="4.76613">
        <ele>261.6159668</ele>
        <time>2010-12-05T08:09:37Z</time>
      </trkpt>
      <trkpt lat="45.71047" lon="4.76626">
        <ele>258.2513428</ele>
        <time>2010-12-05T08:09:41Z</time>
      </trkpt>
      <trkpt lat="45.71046" lon="4.76638">
        <ele>254.8865967</ele>
        <time>2010-12-05T08:09:44Z</time>
      </trkpt>
      <trkpt lat="45.71052" lon="4.76658">
        <ele>251.0413818</ele>
        <time>2010-12-05T08:09:49Z</time>
      </trkpt>
      <trkpt lat="45.71054" lon="4.76664">
        <ele>250.0802002</ele>
        <time>2010-12-05T08:09:51Z</time>
      </trkpt>
      <trkpt lat="45.7106" lon="4.76685">
        <ele>246.7154541</ele>
        <time>2010-12-05T08:09:57Z</time>
      </trkpt>
      <trkpt lat="45.71065" lon="4.76703">
        <ele>245.7541504</ele>
        <time>2010-12-05T08:10:02Z</time>
      </trkpt>
      <trkpt lat="45.71066" lon="4.76706">
        <ele>245.7541504</ele>
        <time>2010-12-05T08:10:03Z</time>
      </trkpt>
      <trkpt lat="45.71073" lon="4.7673">
        <ele>246.7154541</ele>
        <time>2010-12-05T08:10:08Z</time>
      </trkpt>
      <trkpt lat="45.71075" lon="4.76748">
        <ele>245.2734375</ele>
        <time>2010-12-05T08:10:12Z</time>
      </trkpt>
      <trkpt lat="45.7108" lon="4.76774">
        <ele>243.3508301</ele>
        <time>2010-12-05T08:10:18Z</time>
      </trkpt>
      <trkpt lat="45.71085" lon="4.76795">
        <ele>241.9089355</ele>
        <time>2010-12-05T08:10:23Z</time>
      </trkpt>
      <trkpt lat="45.71091" lon="4.76816">
        <ele>241.4282227</ele>
        <time>2010-12-05T08:10:27Z</time>
      </trkpt>
      <trkpt lat="45.71095" lon="4.76833">
        <ele>241.4282227</ele>
        <time>2010-12-05T08:10:31Z</time>
      </trkpt>
      <trkpt lat="45.71097" lon="4.76842">
        <ele>241.4282227</ele>
        <time>2010-12-05T08:10:33Z</time>
      </trkpt>
      <trkpt lat="45.71105" lon="4.76861">
        <ele>240.467041</ele>
        <time>2010-12-05T08:10:38Z</time>
      </trkpt>
      <trkpt lat="45.7111" lon="4.76885">
        <ele>240.467041</ele>
        <time>2010-12-05T08:10:44Z</time>
      </trkpt>
      <trkpt lat="45.71116" lon="4.76906">
        <ele>237.5828857</ele>
        <time>2010-12-05T08:10:49Z</time>
      </trkpt>
      <trkpt lat="45.71123" lon="4.76925">
        <ele>235.6602783</ele>
        <time>2010-12-05T08:10:54Z</time>
      </trkpt>
      <trkpt lat="45.71127" lon="4.7694">
        <ele>235.1796875</ele>
        <time>2010-12-05T08:10:58Z</time>
      </trkpt>
      <trkpt lat="45.71135" lon="4.76957">
        <ele>235.1796875</ele>
        <time>2010-12-05T08:11:02Z</time>
      </trkpt>
      <trkpt lat="45.71142" lon="4.76978">
        <ele>232.7764893</ele>
        <time>2010-12-05T08:11:07Z</time>
      </trkpt>
      <trkpt lat="45.71147" lon="4.76992">
        <ele>231.3343506</ele>
        <time>2010-12-05T08:11:11Z</time>
      </trkpt>
      <trkpt lat="45.71158" lon="4.77">
        <ele>231.3343506</ele>
        <time>2010-12-05T08:11:16Z</time>
      </trkpt>
      <trkpt lat="45.7117" lon="4.77003">
        <ele>234.2183838</ele>
        <time>2010-12-05T08:11:22Z</time>
      </trkpt>
      <trkpt lat="45.71172" lon="4.77003">
        <ele>235.6602783</ele>
        <time>2010-12-05T08:11:23Z</time>
      </trkpt>
      <trkpt lat="45.71183" lon="4.77004">
        <ele>239.5054932</ele>
        <time>2010-12-05T08:11:29Z</time>
      </trkpt>
      <trkpt lat="45.71189" lon="4.77003">
        <ele>241.9089355</ele>
        <time>2010-12-05T08:11:34Z</time>
      </trkpt>
      <trkpt lat="45.71195" lon="4.77001">
        <ele>241.4282227</ele>
        <time>2010-12-05T08:11:39Z</time>
      </trkpt>
      <trkpt lat="45.71198" lon="4.77001">
        <ele>240.9476318</ele>
        <time>2010-12-05T08:11:41Z</time>
      </trkpt>
      <trkpt lat="45.71202" lon="4.77001">
        <ele>242.8702393</ele>
        <time>2010-12-05T08:11:45Z</time>
      </trkpt>
      <trkpt lat="45.71208" lon="4.77001">
        <ele>244.3122559</ele>
        <time>2010-12-05T08:11:49Z</time>
      </trkpt>
      <trkpt lat="45.71226" lon="4.77">
        <ele>247.1960449</ele>
        <time>2010-12-05T08:11:57Z</time>
      </trkpt>
      <trkpt lat="45.71234" lon="4.77001">
        <ele>248.1575928</ele>
        <time>2010-12-05T08:12:01Z</time>
      </trkpt>
      <trkpt lat="45.71244" lon="4.77">
        <ele>249.5994873</ele>
        <time>2010-12-05T08:12:06Z</time>
      </trkpt>
      <trkpt lat="45.71257" lon="4.76999">
        <ele>251.0413818</ele>
        <time>2010-12-05T08:12:12Z</time>
      </trkpt>
      <trkpt lat="45.71268" lon="4.76999">
        <ele>252.4833984</ele>
        <time>2010-12-05T08:12:16Z</time>
      </trkpt>
      <trkpt lat="45.71281" lon="4.76998">
        <ele>252.4833984</ele>
        <time>2010-12-05T08:12:21Z</time>
      </trkpt>
      <trkpt lat="45.71295" lon="4.76998">
        <ele>253.4447021</ele>
        <time>2010-12-05T08:12:26Z</time>
      </trkpt>
      <trkpt lat="45.71309" lon="4.76993">
        <ele>251.0413818</ele>
        <time>2010-12-05T08:12:32Z</time>
      </trkpt>
      <trkpt lat="45.71323" lon="4.76989">
        <ele>249.5994873</ele>
        <time>2010-12-05T08:12:37Z</time>
      </trkpt>
      <trkpt lat="45.71329" lon="4.76988">
        <ele>248.6381836</ele>
        <time>2010-12-05T08:12:40Z</time>
      </trkpt>
      <trkpt lat="45.71339" lon="4.76989">
        <ele>248.1575928</ele>
        <time>2010-12-05T08:12:45Z</time>
      </trkpt>
      <trkpt lat="45.71355" lon="4.76988">
        <ele>246.7154541</ele>
        <time>2010-12-05T08:12:51Z</time>
      </trkpt>
      <trkpt lat="45.71365" lon="4.76984">
        <ele>247.6767578</ele>
        <time>2010-12-05T08:12:55Z</time>
      </trkpt>
      <trkpt lat="45.71377" lon="4.76982">
        <ele>247.1960449</ele>
        <time>2010-12-05T08:13:00Z</time>
      </trkpt>
      <trkpt lat="45.71387" lon="4.76981">
        <ele>248.6381836</ele>
        <time>2010-12-05T08:13:04Z</time>
      </trkpt>
      <trkpt lat="45.714" lon="4.76977">
        <ele>249.5994873</ele>
        <time>2010-12-05T08:13:09Z</time>
      </trkpt>
      <trkpt lat="45.7141" lon="4.76976">
        <ele>250.0802002</ele>
        <time>2010-12-05T08:13:13Z</time>
      </trkpt>
      <trkpt lat="45.71422" lon="4.76975">
        <ele>251.5220947</ele>
        <time>2010-12-05T08:13:18Z</time>
      </trkpt>
      <trkpt lat="45.71433" lon="4.76977">
        <ele>252.9639893</ele>
        <time>2010-12-05T08:13:23Z</time>
      </trkpt>
      <trkpt lat="45.71435" lon="4.76976">
        <ele>253.925415</ele>
        <time>2010-12-05T08:13:24Z</time>
      </trkpt>
      <trkpt lat="45.71449" lon="4.76973">
        <ele>255.3673096</ele>
        <time>2010-12-05T08:13:30Z</time>
      </trkpt>
      <trkpt lat="45.71458" lon="4.76966">
        <ele>255.8480225</ele>
        <time>2010-12-05T08:13:34Z</time>
      </trkpt>
      <trkpt lat="45.71468" lon="4.76966">
        <ele>255.3673096</ele>
        <time>2010-12-05T08:13:38Z</time>
      </trkpt>
      <trkpt lat="45.71482" lon="4.76967">
        <ele>255.3673096</ele>
        <time>2010-12-05T08:13:43Z</time>
      </trkpt>
      <trkpt lat="45.71496" lon="4.76965">
        <ele>254.8865967</ele>
        <time>2010-12-05T08:13:49Z</time>
      </trkpt>
      <trkpt lat="45.71517" lon="4.76958">
        <ele>253.925415</ele>
        <time>2010-12-05T08:13:57Z</time>
      </trkpt>
      <trkpt lat="45.71535" lon="4.76955">
        <ele>252.4833984</ele>
        <time>2010-12-05T08:14:04Z</time>
      </trkpt>
      <trkpt lat="45.71545" lon="4.76952">
        <ele>252.0028076</ele>
        <time>2010-12-05T08:14:08Z</time>
      </trkpt>
      <trkpt lat="45.71562" lon="4.76947">
        <ele>252.4833984</ele>
        <time>2010-12-05T08:14:14Z</time>
      </trkpt>
      <trkpt lat="45.71576" lon="4.76942">
        <ele>253.4447021</ele>
        <time>2010-12-05T08:14:20Z</time>
      </trkpt>
      <trkpt lat="45.71592" lon="4.76933">
        <ele>259.2126465</ele>
        <time>2010-12-05T08:14:27Z</time>
      </trkpt>
      <trkpt lat="45.71602" lon="4.7693">
        <ele>259.6933594</ele>
        <time>2010-12-05T08:14:31Z</time>
      </trkpt>
      <trkpt lat="45.71608" lon="4.76941">
        <ele>258.7319336</ele>
        <time>2010-12-05T08:14:36Z</time>
      </trkpt>
      <trkpt lat="45.71608" lon="4.76955">
        <ele>257.770752</ele>
        <time>2010-12-05T08:14:40Z</time>
      </trkpt>
      <trkpt lat="45.71605" lon="4.76971">
        <ele>257.2900391</ele>
        <time>2010-12-05T08:14:44Z</time>
      </trkpt>
      <trkpt lat="45.71609" lon="4.76987">
        <ele>255.3673096</ele>
        <time>2010-12-05T08:14:49Z</time>
      </trkpt>
      <trkpt lat="45.71617" lon="4.7699">
        <ele>254.4060059</ele>
        <time>2010-12-05T08:14:52Z</time>
      </trkpt>
      <trkpt lat="45.71632" lon="4.76993">
        <ele>252.9639893</ele>
        <time>2010-12-05T08:14:58Z</time>
      </trkpt>
      <trkpt lat="45.71643" lon="4.76999">
        <ele>252.4833984</ele>
        <time>2010-12-05T08:15:02Z</time>
      </trkpt>
      <trkpt lat="45.7165" lon="4.77003">
        <ele>251.5220947</ele>
        <time>2010-12-05T08:15:05Z</time>
      </trkpt>
      <trkpt lat="45.71661" lon="4.77007">
        <ele>249.1187744</ele>
        <time>2010-12-05T08:15:09Z</time>
      </trkpt>
      <trkpt lat="45.71673" lon="4.77012">
        <ele>247.1960449</ele>
        <time>2010-12-05T08:15:13Z</time>
      </trkpt>
      <trkpt lat="45.71685" lon="4.77015">
        <ele>249.1187744</ele>
        <time>2010-12-05T08:15:18Z</time>
      </trkpt>
      <trkpt lat="45.71701" lon="4.77019">
        <ele>252.4833984</ele>
        <time>2010-12-05T08:15:24Z</time>
      </trkpt>
      <trkpt lat="45.71711" lon="4.77021">
        <ele>253.4447021</ele>
        <time>2010-12-05T08:15:28Z</time>
      </trkpt>
      <trkpt lat="45.71725" lon="4.77025">
        <ele>254.8865967</ele>
        <time>2010-12-05T08:15:33Z</time>
      </trkpt>
      <trkpt lat="45.71738" lon="4.77034">
        <ele>255.3673096</ele>
        <time>2010-12-05T08:15:39Z</time>
      </trkpt>
      <trkpt lat="45.71739" lon="4.77037">
        <ele>254.8865967</ele>
        <time>2010-12-05T08:15:40Z</time>
      </trkpt>
      <trkpt lat="45.71742" lon="4.77055">
        <ele>253.4447021</ele>
        <time>2010-12-05T08:15:45Z</time>
      </trkpt>
      <trkpt lat="45.71749" lon="4.77063">
        <ele>252.4833984</ele>
        <time>2010-12-05T08:15:49Z</time>
      </trkpt>
      <trkpt lat="45.71751" lon="4.77064">
        <ele>252.4833984</ele>
        <time>2010-12-05T08:15:50Z</time>
      </trkpt>
      <trkpt lat="45.71767" lon="4.77061">
        <ele>252.0028076</ele>
        <time>2010-12-05T08:15:56Z</time>
      </trkpt>
      <trkpt lat="45.7178" lon="4.7706">
        <ele>251.5220947</ele>
        <time>2010-12-05T08:16:01Z</time>
      </trkpt>
      <trkpt lat="45.71793" lon="4.77057">
        <ele>250.560791</ele>
        <time>2010-12-05T08:16:06Z</time>
      </trkpt>
      <trkpt lat="45.71795" lon="4.77055">
        <ele>250.560791</ele>
        <time>2010-12-05T08:16:07Z</time>
      </trkpt>
      <trkpt lat="45.71811" lon="4.7705">
        <ele>248.6381836</ele>
        <time>2010-12-05T08:16:13Z</time>
      </trkpt>
      <trkpt lat="45.7182" lon="4.77055">
        <ele>247.6767578</ele>
        <time>2010-12-05T08:16:17Z</time>
      </trkpt>
      <trkpt lat="45.71828" lon="4.77059">
        <ele>247.1960449</ele>
        <time>2010-12-05T08:16:20Z</time>
      </trkpt>
      <trkpt lat="45.71837" lon="4.77062">
        <ele>247.1960449</ele>
        <time>2010-12-05T08:16:24Z</time>
      </trkpt>
      <trkpt lat="45.71849" lon="4.77064">
        <ele>247.1960449</ele>
        <time>2010-12-05T08:16:29Z</time>
      </trkpt>
      <trkpt lat="45.71863" lon="4.7707">
        <ele>246.2348633</ele>
        <time>2010-12-05T08:16:34Z</time>
      </trkpt>
      <trkpt lat="45.71873" lon="4.77072">
        <ele>244.3122559</ele>
        <time>2010-12-05T08:16:38Z</time>
      </trkpt>
      <trkpt lat="45.7188" lon="4.77075">
        <ele>243.3508301</ele>
        <time>2010-12-05T08:16:42Z</time>
      </trkpt>
      <trkpt lat="45.71894" lon="4.77078">
        <ele>243.3508301</ele>
        <time>2010-12-05T08:16:49Z</time>
      </trkpt>
      <trkpt lat="45.71911" lon="4.77081">
        <ele>247.1960449</ele>
        <time>2010-12-05T08:16:55Z</time>
      </trkpt>
      <trkpt lat="45.71915" lon="4.77084">
        <ele>247.1960449</ele>
        <time>2010-12-05T08:16:57Z</time>
      </trkpt>
      <trkpt lat="45.71927" lon="4.77093">
        <ele>249.1187744</ele>
        <time>2010-12-05T08:17:03Z</time>
      </trkpt>
      <trkpt lat="45.71929" lon="4.77103">
        <ele>250.0802002</ele>
        <time>2010-12-05T08:17:07Z</time>
      </trkpt>
      <trkpt lat="45.71932" lon="4.77113">
        <ele>250.0802002</ele>
        <time>2010-12-05T08:17:11Z</time>
      </trkpt>
      <trkpt lat="45.71933" lon="4.77134">
        <ele>249.5994873</ele>
        <time>2010-12-05T08:17:17Z</time>
      </trkpt>
      <trkpt lat="45.71936" lon="4.77146">
        <ele>248.6381836</ele>
        <time>2010-12-05T08:17:21Z</time>
      </trkpt>
      <trkpt lat="45.71929" lon="4.77159">
        <ele>247.6767578</ele>
        <time>2010-12-05T08:17:25Z</time>
      </trkpt>
      <trkpt lat="45.71928" lon="4.77163">
        <ele>247.1960449</ele>
        <time>2010-12-05T08:17:26Z</time>
      </trkpt>
      <trkpt lat="45.71919" lon="4.77188">
        <ele>246.7154541</ele>
        <time>2010-12-05T08:17:32Z</time>
      </trkpt>
      <trkpt lat="45.71917" lon="4.77212">
        <ele>243.831543</ele>
        <time>2010-12-05T08:17:38Z</time>
      </trkpt>
      <trkpt lat="45.71917" lon="4.77221">
        <ele>243.3508301</ele>
        <time>2010-12-05T08:17:40Z</time>
      </trkpt>
      <trkpt lat="45.7192" lon="4.77242">
        <ele>242.8702393</ele>
        <time>2010-12-05T08:17:45Z</time>
      </trkpt>
      <trkpt lat="45.71927" lon="4.77262">
        <ele>241.9089355</ele>
        <time>2010-12-05T08:17:50Z</time>
      </trkpt>
      <trkpt lat="45.71937" lon="4.77268">
        <ele>241.9089355</ele>
        <time>2010-12-05T08:17:54Z</time>
      </trkpt>
      <trkpt lat="45.71949" lon="4.77264">
        <ele>241.9089355</ele>
        <time>2010-12-05T08:17:58Z</time>
      </trkpt>
      <trkpt lat="45.71967" lon="4.77259">
        <ele>242.3896484</ele>
        <time>2010-12-05T08:18:04Z</time>
      </trkpt>
      <trkpt lat="45.71979" lon="4.77256">
        <ele>242.8702393</ele>
        <time>2010-12-05T08:18:08Z</time>
      </trkpt>
      <trkpt lat="45.71991" lon="4.7725">
        <ele>244.3122559</ele>
        <time>2010-12-05T08:18:12Z</time>
      </trkpt>
      <trkpt lat="45.72008" lon="4.77248">
        <ele>247.1960449</ele>
        <time>2010-12-05T08:18:17Z</time>
      </trkpt>
      <trkpt lat="45.72027" lon="4.77241">
        <ele>251.5220947</ele>
        <time>2010-12-05T08:18:23Z</time>
      </trkpt>
      <trkpt lat="45.72042" lon="4.77245">
        <ele>254.8865967</ele>
        <time>2010-12-05T08:18:28Z</time>
      </trkpt>
      <trkpt lat="45.72049" lon="4.77261">
        <ele>252.4833984</ele>
        <time>2010-12-05T08:18:32Z</time>
      </trkpt>
      <trkpt lat="45.72053" lon="4.7729">
        <ele>249.5994873</ele>
        <time>2010-12-05T08:18:39Z</time>
      </trkpt>
      <trkpt lat="45.72058" lon="4.7731">
        <ele>246.2348633</ele>
        <time>2010-12-05T08:18:44Z</time>
      </trkpt>
      <trkpt lat="45.72062" lon="4.77332">
        <ele>243.831543</ele>
        <time>2010-12-05T08:18:49Z</time>
      </trkpt>
      <trkpt lat="45.72068" lon="4.77355">
        <ele>242.3896484</ele>
        <time>2010-12-05T08:18:54Z</time>
      </trkpt>
      <trkpt lat="45.72066" lon="4.77374">
        <ele>240.467041</ele>
        <time>2010-12-05T08:18:58Z</time>
      </trkpt>
      <trkpt lat="45.72059" lon="4.77394">
        <ele>236.6217041</ele>
        <time>2010-12-05T08:19:03Z</time>
      </trkpt>
      <trkpt lat="45.72054" lon="4.77413">
        <ele>234.6990967</ele>
        <time>2010-12-05T08:19:08Z</time>
      </trkpt>
      <trkpt lat="45.72055" lon="4.77421">
        <ele>233.2570801</ele>
        <time>2010-12-05T08:19:10Z</time>
      </trkpt>
      <trkpt lat="45.72063" lon="4.77431">
        <ele>230.3730469</ele>
        <time>2010-12-05T08:19:15Z</time>
      </trkpt>
      <trkpt lat="45.72069" lon="4.77434">
        <ele>229.4117432</ele>
        <time>2010-12-05T08:19:17Z</time>
      </trkpt>
      <trkpt lat="45.72082" lon="4.77446">
        <ele>227.9697266</ele>
        <time>2010-12-05T08:19:22Z</time>
      </trkpt>
      <trkpt lat="45.72098" lon="4.77455">
        <ele>227.4891357</ele>
        <time>2010-12-05T08:19:27Z</time>
      </trkpt>
      <trkpt lat="45.72112" lon="4.77461">
        <ele>226.527832</ele>
        <time>2010-12-05T08:19:32Z</time>
      </trkpt>
      <trkpt lat="45.7213" lon="4.77466">
        <ele>225.0859375</ele>
        <time>2010-12-05T08:19:38Z</time>
      </trkpt>
      <trkpt lat="45.72146" lon="4.77475">
        <ele>223.163208</ele>
        <time>2010-12-05T08:19:43Z</time>
      </trkpt>
      <trkpt lat="45.72161" lon="4.77486">
        <ele>222.6824951</ele>
        <time>2010-12-05T08:19:48Z</time>
      </trkpt>
      <trkpt lat="45.72176" lon="4.77496">
        <ele>221.2406006</ele>
        <time>2010-12-05T08:19:53Z</time>
      </trkpt>
      <trkpt lat="45.72187" lon="4.77503">
        <ele>221.2406006</ele>
        <time>2010-12-05T08:19:57Z</time>
      </trkpt>
      <trkpt lat="45.722" lon="4.77508">
        <ele>221.7211914</ele>
        <time>2010-12-05T08:20:01Z</time>
      </trkpt>
      <trkpt lat="45.72216" lon="4.77516">
        <ele>220.2791748</ele>
        <time>2010-12-05T08:20:06Z</time>
      </trkpt>
      <trkpt lat="45.72228" lon="4.77523">
        <ele>218.8372803</ele>
        <time>2010-12-05T08:20:10Z</time>
      </trkpt>
      <trkpt lat="45.72245" lon="4.77536">
        <ele>215.9532471</ele>
        <time>2010-12-05T08:20:16Z</time>
      </trkpt>
      <trkpt lat="45.72256" lon="4.77546">
        <ele>213.5500488</ele>
        <time>2010-12-05T08:20:20Z</time>
      </trkpt>
      <trkpt lat="45.72272" lon="4.77561">
        <ele>211.6274414</ele>
        <time>2010-12-05T08:20:25Z</time>
      </trkpt>
      <trkpt lat="45.72287" lon="4.77572">
        <ele>210.6660156</ele>
        <time>2010-12-05T08:20:30Z</time>
      </trkpt>
      <trkpt lat="45.72298" lon="4.77582">
        <ele>209.704834</ele>
        <time>2010-12-05T08:20:34Z</time>
      </trkpt>
      <trkpt lat="45.72313" lon="4.77592">
        <ele>210.1854248</ele>
        <time>2010-12-05T08:20:39Z</time>
      </trkpt>
      <trkpt lat="45.72324" lon="4.77604">
        <ele>209.2241211</ele>
        <time>2010-12-05T08:20:44Z</time>
      </trkpt>
      <trkpt lat="45.72336" lon="4.77614">
        <ele>208.2628174</ele>
        <time>2010-12-05T08:20:48Z</time>
      </trkpt>
      <trkpt lat="45.72352" lon="4.7763">
        <ele>205.8594971</ele>
        <time>2010-12-05T08:20:53Z</time>
      </trkpt>
      <trkpt lat="45.72363" lon="4.77636">
        <ele>203.9368896</ele>
        <time>2010-12-05T08:20:57Z</time>
      </trkpt>
      <trkpt lat="45.72375" lon="4.77639">
        <ele>201.5335693</ele>
        <time>2010-12-05T08:21:01Z</time>
      </trkpt>
      <trkpt lat="45.72387" lon="4.77643">
        <ele>200.0916748</ele>
        <time>2010-12-05T08:21:05Z</time>
      </trkpt>
      <trkpt lat="45.72402" lon="4.77649">
        <ele>200.0916748</ele>
        <time>2010-12-05T08:21:10Z</time>
      </trkpt>
      <trkpt lat="45.72412" lon="4.77666">
        <ele>200.0916748</ele>
        <time>2010-12-05T08:21:15Z</time>
      </trkpt>
      <trkpt lat="45.72422" lon="4.7768">
        <ele>199.6108398</ele>
        <time>2010-12-05T08:21:19Z</time>
      </trkpt>
      <trkpt lat="45.72435" lon="4.77694">
        <ele>197.6882324</ele>
        <time>2010-12-05T08:21:24Z</time>
      </trkpt>
      <trkpt lat="45.72443" lon="4.777">
        <ele>196.7269287</ele>
        <time>2010-12-05T08:21:27Z</time>
      </trkpt>
      <trkpt lat="45.72455" lon="4.77709">
        <ele>195.2849121</ele>
        <time>2010-12-05T08:21:31Z</time>
      </trkpt>
      <trkpt lat="45.72466" lon="4.77723">
        <ele>193.3623047</ele>
        <time>2010-12-05T08:21:36Z</time>
      </trkpt>
      <trkpt lat="45.7248" lon="4.77732">
        <ele>191.9202881</ele>
        <time>2010-12-05T08:21:40Z</time>
      </trkpt>
      <trkpt lat="45.72494" lon="4.77745">
        <ele>190.4783936</ele>
        <time>2010-12-05T08:21:45Z</time>
      </trkpt>
      <trkpt lat="45.72504" lon="4.77755">
        <ele>188.5557861</ele>
        <time>2010-12-05T08:21:49Z</time>
      </trkpt>
      <trkpt lat="45.72517" lon="4.77766">
        <ele>186.6331787</ele>
        <time>2010-12-05T08:21:54Z</time>
      </trkpt>
      <trkpt lat="45.72527" lon="4.77777">
        <ele>186.6331787</ele>
        <time>2010-12-05T08:21:58Z</time>
      </trkpt>
      <trkpt lat="45.72535" lon="4.77792">
        <ele>186.6331787</ele>
        <time>2010-12-05T08:22:03Z</time>
      </trkpt>
      <trkpt lat="45.72538" lon="4.77803">
        <ele>186.6331787</ele>
        <time>2010-12-05T08:22:07Z</time>
      </trkpt>
      <trkpt lat="45.7254" lon="4.77819">
        <ele>185.6717529</ele>
        <time>2010-12-05T08:22:12Z</time>
      </trkpt>
      <trkpt lat="45.72541" lon="4.77836">
        <ele>181.3458252</ele>
        <time>2010-12-05T08:22:18Z</time>
      </trkpt>
      <trkpt lat="45.72543" lon="4.77843">
        <ele>180.3845215</ele>
        <time>2010-12-05T08:22:22Z</time>
      </trkpt>
      <trkpt lat="45.72542" lon="4.77851">
        <ele>179.9038086</ele>
        <time>2010-12-05T08:22:27Z</time>
      </trkpt>
      <trkpt lat="45.72542" lon="4.77858">
        <ele>179.9038086</ele>
        <time>2010-12-05T08:22:29Z</time>
      </trkpt>
      <trkpt lat="45.72543" lon="4.77877">
        <ele>180.3845215</ele>
        <time>2010-12-05T08:22:34Z</time>
      </trkpt>
      <trkpt lat="45.72544" lon="4.77885">
        <ele>181.3458252</ele>
        <time>2010-12-05T08:22:36Z</time>
      </trkpt>
      <trkpt lat="45.72537" lon="4.77899">
        <ele>181.3458252</ele>
        <time>2010-12-05T08:22:41Z</time>
      </trkpt>
      <trkpt lat="45.72531" lon="4.77908">
        <ele>181.826416</ele>
        <time>2010-12-05T08:22:45Z</time>
      </trkpt>
      <trkpt lat="45.72535" lon="4.77917">
        <ele>182.7878418</ele>
        <time>2010-12-05T08:22:48Z</time>
      </trkpt>
      <trkpt lat="45.72548" lon="4.77937">
        <ele>182.7878418</ele>
        <time>2010-12-05T08:22:53Z</time>
      </trkpt>
      <trkpt lat="45.72557" lon="4.77954">
        <ele>180.8652344</ele>
        <time>2010-12-05T08:22:58Z</time>
      </trkpt>
      <trkpt lat="45.72564" lon="4.77968">
        <ele>181.3458252</ele>
        <time>2010-12-05T08:23:03Z</time>
      </trkpt>
      <trkpt lat="45.72569" lon="4.77972">
        <ele>181.3458252</ele>
        <time>2010-12-05T08:23:05Z</time>
      </trkpt>
      <trkpt lat="45.72577" lon="4.77981">
        <ele>181.3458252</ele>
        <time>2010-12-05T08:23:10Z</time>
      </trkpt>
      <trkpt lat="45.72578" lon="4.77981">
        <ele>181.3458252</ele>
        <time>2010-12-05T08:23:11Z</time>
      </trkpt>
      <trkpt lat="45.7257" lon="4.77974">
        <ele>181.826416</ele>
        <time>2010-12-05T08:23:16Z</time>
      </trkpt>
      <trkpt lat="45.72564" lon="4.77969">
        <ele>181.3458252</ele>
        <time>2010-12-05T08:23:21Z</time>
      </trkpt>
      <trkpt lat="45.72566" lon="4.77968">
        <ele>181.826416</ele>
        <time>2010-12-05T08:23:24Z</time>
      </trkpt>
      <trkpt lat="45.72577" lon="4.77966">
        <ele>182.3071289</ele>
        <time>2010-12-05T08:23:29Z</time>
      </trkpt>
      <trkpt lat="45.72581" lon="4.77962">
        <ele>182.3071289</ele>
        <time>2010-12-05T08:23:31Z</time>
      </trkpt>
      <trkpt lat="45.72593" lon="4.77957">
        <ele>181.826416</ele>
        <time>2010-12-05T08:23:36Z</time>
      </trkpt>
      <trkpt lat="45.72601" lon="4.77952">
        <ele>180.8652344</ele>
        <time>2010-12-05T08:23:40Z</time>
      </trkpt>
      <trkpt lat="45.72606" lon="4.7795">
        <ele>180.3845215</ele>
        <time>2010-12-05T08:23:42Z</time>
      </trkpt>
      <trkpt lat="45.72611" lon="4.77938">
        <ele>182.7878418</ele>
        <time>2010-12-05T08:23:46Z</time>
      </trkpt>
      <trkpt lat="45.72616" lon="4.77934">
        <ele>183.7490234</ele>
        <time>2010-12-05T08:23:48Z</time>
      </trkpt>
      <trkpt lat="45.72624" lon="4.77931">
        <ele>186.1524658</ele>
        <time>2010-12-05T08:23:52Z</time>
      </trkpt>
      <trkpt lat="45.72631" lon="4.77939">
        <ele>185.6717529</ele>
        <time>2010-12-05T08:23:56Z</time>
      </trkpt>
      <trkpt lat="45.72633" lon="4.77959">
        <ele>184.7105713</ele>
        <time>2010-12-05T08:24:01Z</time>
      </trkpt>
      <trkpt lat="45.72634" lon="4.77973">
        <ele>182.7878418</ele>
        <time>2010-12-05T08:24:05Z</time>
      </trkpt>
      <trkpt lat="45.72636" lon="4.77979">
        <ele>181.826416</ele>
        <time>2010-12-05T08:24:07Z</time>
      </trkpt>
      <trkpt lat="45.72639" lon="4.77995">
        <ele>181.826416</ele>
        <time>2010-12-05T08:24:12Z</time>
      </trkpt>
      <trkpt lat="45.72641" lon="4.78001">
        <ele>181.826416</ele>
        <time>2010-12-05T08:24:14Z</time>
      </trkpt>
      <trkpt lat="45.72646" lon="4.78016">
        <ele>182.7878418</ele>
        <time>2010-12-05T08:24:19Z</time>
      </trkpt>
      <trkpt lat="45.72647" lon="4.7803">
        <ele>184.2298584</ele>
        <time>2010-12-05T08:24:24Z</time>
      </trkpt>
      <trkpt lat="45.72646" lon="4.78033">
        <ele>184.2298584</ele>
        <time>2010-12-05T08:24:25Z</time>
      </trkpt>
      <trkpt lat="45.7265" lon="4.78049">
        <ele>185.1911621</ele>
        <time>2010-12-05T08:24:33Z</time>
      </trkpt>
      <trkpt lat="45.72651" lon="4.78054">
        <ele>185.1911621</ele>
        <time>2010-12-05T08:24:36Z</time>
      </trkpt>
      <trkpt lat="45.72655" lon="4.78065">
        <ele>185.1911621</ele>
        <time>2010-12-05T08:24:42Z</time>
      </trkpt>
      <trkpt lat="45.72655" lon="4.78067">
        <ele>185.1911621</ele>
        <time>2010-12-05T08:24:43Z</time>
      </trkpt>
      <trkpt lat="45.72658" lon="4.78083">
        <ele>184.2298584</ele>
        <time>2010-12-05T08:24:52Z</time>
      </trkpt>
      <trkpt lat="45.72661" lon="4.78094">
        <ele>183.7490234</ele>
        <time>2010-12-05T08:24:58Z</time>
      </trkpt>
      <trkpt lat="45.72661" lon="4.7811">
        <ele>187.5943604</ele>
        <time>2010-12-05T08:25:06Z</time>
      </trkpt>
      <trkpt lat="45.72658" lon="4.78118">
        <ele>190.9589844</ele>
        <time>2010-12-05T08:25:10Z</time>
      </trkpt>
      <trkpt lat="45.72654" lon="4.78128">
        <ele>194.8043213</ele>
        <time>2010-12-05T08:25:16Z</time>
      </trkpt>
      <trkpt lat="45.72651" lon="4.78134">
        <ele>196.7269287</ele>
        <time>2010-12-05T08:25:19Z</time>
      </trkpt>
      <trkpt lat="45.72647" lon="4.78139">
        <ele>197.6882324</ele>
        <time>2010-12-05T08:25:23Z</time>
      </trkpt>
      <trkpt lat="45.7264" lon="4.78147">
        <ele>200.0916748</ele>
        <time>2010-12-05T08:25:30Z</time>
      </trkpt>
      <trkpt lat="45.72637" lon="4.78153">
        <ele>201.5335693</ele>
        <time>2010-12-05T08:25:35Z</time>
      </trkpt>
      <trkpt lat="45.72633" lon="4.78161">
        <ele>202.0142822</ele>
        <time>2010-12-05T08:25:41Z</time>
      </trkpt>
      <trkpt lat="45.72631" lon="4.78173">
        <ele>203.9368896</ele>
        <time>2010-12-05T08:25:47Z</time>
      </trkpt>
      <trkpt lat="45.72629" lon="4.78185">
        <ele>204.4174805</ele>
        <time>2010-12-05T08:25:55Z</time>
      </trkpt>
      <trkpt lat="45.72629" lon="4.78197">
        <ele>206.3400879</ele>
        <time>2010-12-05T08:26:01Z</time>
      </trkpt>
      <trkpt lat="45.72628" lon="4.782">
        <ele>207.3013916</ele>
        <time>2010-12-05T08:26:03Z</time>
      </trkpt>
      <trkpt lat="45.72628" lon="4.78209">
        <ele>209.2241211</ele>
        <time>2010-12-05T08:26:09Z</time>
      </trkpt>
      <trkpt lat="45.72628" lon="4.78211">
        <ele>210.1854248</ele>
        <time>2010-12-05T08:26:10Z</time>
      </trkpt>
      <trkpt lat="45.72628" lon="4.78214">
        <ele>211.1467285</ele>
        <time>2010-12-05T08:26:12Z</time>
      </trkpt>
      <trkpt lat="45.72626" lon="4.78224">
        <ele>214.0306396</ele>
        <time>2010-12-05T08:26:18Z</time>
      </trkpt>
      <trkpt lat="45.7263" lon="4.78237">
        <ele>215.9532471</ele>
        <time>2010-12-05T08:26:24Z</time>
      </trkpt>
      <trkpt lat="45.72633" lon="4.78246">
        <ele>215.4726563</ele>
        <time>2010-12-05T08:26:29Z</time>
      </trkpt>
      <trkpt lat="45.72634" lon="4.78253">
        <ele>215.9532471</ele>
        <time>2010-12-05T08:26:33Z</time>
      </trkpt>
      <trkpt lat="45.72635" lon="4.78256">
        <ele>216.43396</ele>
        <time>2010-12-05T08:26:35Z</time>
      </trkpt>
      <trkpt lat="45.72636" lon="4.78259">
        <ele>216.9146729</ele>
        <time>2010-12-05T08:26:37Z</time>
      </trkpt>
      <trkpt lat="45.72639" lon="4.7827">
        <ele>219.3179932</ele>
        <time>2010-12-05T08:26:44Z</time>
      </trkpt>
      <trkpt lat="45.72642" lon="4.78282">
        <ele>222.2017822</ele>
        <time>2010-12-05T08:26:51Z</time>
      </trkpt>
      <trkpt lat="45.72647" lon="4.78296">
        <ele>222.6824951</ele>
        <time>2010-12-05T08:26:59Z</time>
      </trkpt>
      <trkpt lat="45.7265" lon="4.78304">
        <ele>223.6437988</ele>
        <time>2010-12-05T08:27:04Z</time>
      </trkpt>
      <trkpt lat="45.72651" lon="4.78306">
        <ele>224.6052246</ele>
        <time>2010-12-05T08:27:06Z</time>
      </trkpt>
      <trkpt lat="45.72655" lon="4.78316">
        <ele>227.4891357</ele>
        <time>2010-12-05T08:27:12Z</time>
      </trkpt>
      <trkpt lat="45.72658" lon="4.78325">
        <ele>227.4891357</ele>
        <time>2010-12-05T08:27:18Z</time>
      </trkpt>
      <trkpt lat="45.72662" lon="4.78338">
        <ele>227.9697266</ele>
        <time>2010-12-05T08:27:25Z</time>
      </trkpt>
      <trkpt lat="45.72664" lon="4.78346">
        <ele>227.9697266</ele>
        <time>2010-12-05T08:27:30Z</time>
      </trkpt>
      <trkpt lat="45.72665" lon="4.78359">
        <ele>229.4117432</ele>
        <time>2010-12-05T08:27:37Z</time>
      </trkpt>
      <trkpt lat="45.72668" lon="4.78373">
        <ele>230.8537598</ele>
        <time>2010-12-05T08:27:45Z</time>
      </trkpt>
      <trkpt lat="45.72671" lon="4.78381">
        <ele>231.8149414</ele>
        <time>2010-12-05T08:27:50Z</time>
      </trkpt>
      <trkpt lat="45.72674" lon="4.78394">
        <ele>233.7376709</ele>
        <time>2010-12-05T08:27:58Z</time>
      </trkpt>
      <trkpt lat="45.72678" lon="4.78409">
        <ele>235.1796875</ele>
        <time>2010-12-05T08:28:06Z</time>
      </trkpt>
      <trkpt lat="45.72681" lon="4.78422">
        <ele>236.6217041</ele>
        <time>2010-12-05T08:28:13Z</time>
      </trkpt>
      <trkpt lat="45.72683" lon="4.78433">
        <ele>239.0249023</ele>
        <time>2010-12-05T08:28:19Z</time>
      </trkpt>
      <trkpt lat="45.72684" lon="4.7844">
        <ele>239.9862061</ele>
        <time>2010-12-05T08:28:23Z</time>
      </trkpt>
      <trkpt lat="45.72685" lon="4.78454">
        <ele>240.9476318</ele>
        <time>2010-12-05T08:28:30Z</time>
      </trkpt>
      <trkpt lat="45.72687" lon="4.7847">
        <ele>242.3896484</ele>
        <time>2010-12-05T08:28:37Z</time>
      </trkpt>
      <trkpt lat="45.72691" lon="4.78489">
        <ele>243.831543</ele>
        <time>2010-12-05T08:28:46Z</time>
      </trkpt>
      <trkpt lat="45.72695" lon="4.78511">
        <ele>244.7928467</ele>
        <time>2010-12-05T08:28:57Z</time>
      </trkpt>
      <trkpt lat="45.72697" lon="4.78526">
        <ele>245.7541504</ele>
        <time>2010-12-05T08:29:05Z</time>
      </trkpt>
      <trkpt lat="45.72698" lon="4.78539">
        <ele>247.1960449</ele>
        <time>2010-12-05T08:29:11Z</time>
      </trkpt>
      <trkpt lat="45.72701" lon="4.78554">
        <ele>248.6381836</ele>
        <time>2010-12-05T08:29:18Z</time>
      </trkpt>
      <trkpt lat="45.72704" lon="4.78568">
        <ele>249.5994873</ele>
        <time>2010-12-05T08:29:25Z</time>
      </trkpt>
      <trkpt lat="45.72707" lon="4.78583">
        <ele>252.0028076</ele>
        <time>2010-12-05T08:29:33Z</time>
      </trkpt>
      <trkpt lat="45.72708" lon="4.78595">
        <ele>253.4447021</ele>
        <time>2010-12-05T08:29:39Z</time>
      </trkpt>
      <trkpt lat="45.72709" lon="4.7861">
        <ele>255.3673096</ele>
        <time>2010-12-05T08:29:46Z</time>
      </trkpt>
      <trkpt lat="45.72711" lon="4.78624">
        <ele>256.3287354</ele>
        <time>2010-12-05T08:29:53Z</time>
      </trkpt>
      <trkpt lat="45.72712" lon="4.7864">
        <ele>257.770752</ele>
        <time>2010-12-05T08:30:01Z</time>
      </trkpt>
      <trkpt lat="45.72715" lon="4.78652">
        <ele>259.2126465</ele>
        <time>2010-12-05T08:30:07Z</time>
      </trkpt>
      <trkpt lat="45.72717" lon="4.78666">
        <ele>260.654541</ele>
        <time>2010-12-05T08:30:14Z</time>
      </trkpt>
      <trkpt lat="45.72721" lon="4.78677">
        <ele>263.0578613</ele>
        <time>2010-12-05T08:30:20Z</time>
      </trkpt>
      <trkpt lat="45.72722" lon="4.78682">
        <ele>264.4998779</ele>
        <time>2010-12-05T08:30:23Z</time>
      </trkpt>
      <trkpt lat="45.72727" lon="4.78698">
        <ele>266.4224854</ele>
        <time>2010-12-05T08:30:31Z</time>
      </trkpt>
      <trkpt lat="45.7273" lon="4.78705">
        <ele>267.3839111</ele>
        <time>2010-12-05T08:30:35Z</time>
      </trkpt>
      <trkpt lat="45.72739" lon="4.7872">
        <ele>268.8258057</ele>
        <time>2010-12-05T08:30:44Z</time>
      </trkpt>
      <trkpt lat="45.72739" lon="4.78721">
        <ele>268.8258057</ele>
        <time>2010-12-05T08:30:45Z</time>
      </trkpt>
      <trkpt lat="45.72745" lon="4.78729">
        <ele>270.7484131</ele>
        <time>2010-12-05T08:30:50Z</time>
      </trkpt>
      <trkpt lat="45.72754" lon="4.78743">
        <ele>272.1904297</ele>
        <time>2010-12-05T08:30:59Z</time>
      </trkpt>
      <trkpt lat="45.72761" lon="4.78753">
        <ele>273.6324463</ele>
        <time>2010-12-05T08:31:06Z</time>
      </trkpt>
      <trkpt lat="45.72771" lon="4.78766">
        <ele>274.59375</ele>
        <time>2010-12-05T08:31:15Z</time>
      </trkpt>
      <trkpt lat="45.72779" lon="4.78775">
        <ele>276.5163574</ele>
        <time>2010-12-05T08:31:22Z</time>
      </trkpt>
      <trkpt lat="45.72784" lon="4.78784">
        <ele>276.9970703</ele>
        <time>2010-12-05T08:31:28Z</time>
      </trkpt>
      <trkpt lat="45.72792" lon="4.78791">
        <ele>276.0356445</ele>
        <time>2010-12-05T08:31:33Z</time>
      </trkpt>
      <trkpt lat="45.72799" lon="4.78804">
        <ele>276.5163574</ele>
        <time>2010-12-05T08:31:38Z</time>
      </trkpt>
      <trkpt lat="45.72807" lon="4.78816">
        <ele>277.958252</ele>
        <time>2010-12-05T08:31:43Z</time>
      </trkpt>
      <trkpt lat="45.72814" lon="4.7883">
        <ele>279.4002686</ele>
        <time>2010-12-05T08:31:48Z</time>
      </trkpt>
      <trkpt lat="45.72824" lon="4.78846">
        <ele>281.8035889</ele>
        <time>2010-12-05T08:31:54Z</time>
      </trkpt>
      <trkpt lat="45.72833" lon="4.78862">
        <ele>284.2069092</ele>
        <time>2010-12-05T08:32:00Z</time>
      </trkpt>
      <trkpt lat="45.72843" lon="4.7888">
        <ele>286.6102295</ele>
        <time>2010-12-05T08:32:06Z</time>
      </trkpt>
      <trkpt lat="45.72848" lon="4.78896">
        <ele>287.0908203</ele>
        <time>2010-12-05T08:32:11Z</time>
      </trkpt>
      <trkpt lat="45.72856" lon="4.78913">
        <ele>287.0908203</ele>
        <time>2010-12-05T08:32:17Z</time>
      </trkpt>
      <trkpt lat="45.72861" lon="4.78925">
        <ele>287.0908203</ele>
        <time>2010-12-05T08:32:21Z</time>
      </trkpt>
      <trkpt lat="45.7287" lon="4.78942">
        <ele>287.5714111</ele>
        <time>2010-12-05T08:32:27Z</time>
      </trkpt>
      <trkpt lat="45.72876" lon="4.78956">
        <ele>288.0522461</ele>
        <time>2010-12-05T08:32:31Z</time>
      </trkpt>
      <trkpt lat="45.72879" lon="4.78969">
        <ele>288.0522461</ele>
        <time>2010-12-05T08:32:35Z</time>
      </trkpt>
      <trkpt lat="45.72889" lon="4.78986">
        <ele>289.4941406</ele>
        <time>2010-12-05T08:32:41Z</time>
      </trkpt>
      <trkpt lat="45.72898" lon="4.79006">
        <ele>289.4941406</ele>
        <time>2010-12-05T08:32:47Z</time>
      </trkpt>
      <trkpt lat="45.72904" lon="4.79018">
        <ele>289.9748535</ele>
        <time>2010-12-05T08:32:51Z</time>
      </trkpt>
      <trkpt lat="45.72912" lon="4.79033">
        <ele>290.9361572</ele>
        <time>2010-12-05T08:32:56Z</time>
      </trkpt>
      <trkpt lat="45.72927" lon="4.7905">
        <ele>291.416748</ele>
        <time>2010-12-05T08:33:03Z</time>
      </trkpt>
      <trkpt lat="45.72936" lon="4.79061">
        <ele>291.8974609</ele>
        <time>2010-12-05T08:33:07Z</time>
      </trkpt>
      <trkpt lat="45.72949" lon="4.79073">
        <ele>291.416748</ele>
        <time>2010-12-05T08:33:13Z</time>
      </trkpt>
      <trkpt lat="45.72958" lon="4.79082">
        <ele>290.9361572</ele>
        <time>2010-12-05T08:33:17Z</time>
      </trkpt>
      <trkpt lat="45.72968" lon="4.79095">
        <ele>290.9361572</ele>
        <time>2010-12-05T08:33:22Z</time>
      </trkpt>
      <trkpt lat="45.72981" lon="4.79109">
        <ele>292.8587646</ele>
        <time>2010-12-05T08:33:28Z</time>
      </trkpt>
      <trkpt lat="45.72992" lon="4.79121">
        <ele>293.3393555</ele>
        <time>2010-12-05T08:33:33Z</time>
      </trkpt>
      <trkpt lat="45.73003" lon="4.79132">
        <ele>293.3393555</ele>
        <time>2010-12-05T08:33:38Z</time>
      </trkpt>
      <trkpt lat="45.73013" lon="4.79144">
        <ele>293.8200684</ele>
        <time>2010-12-05T08:33:43Z</time>
      </trkpt>
      <trkpt lat="45.73023" lon="4.79156">
        <ele>294.3007813</ele>
        <time>2010-12-05T08:33:48Z</time>
      </trkpt>
      <trkpt lat="45.73033" lon="4.7917">
        <ele>293.8200684</ele>
        <time>2010-12-05T08:33:53Z</time>
      </trkpt>
      <trkpt lat="45.7304" lon="4.79187">
        <ele>294.3007813</ele>
        <time>2010-12-05T08:33:58Z</time>
      </trkpt>
      <trkpt lat="45.73049" lon="4.7921">
        <ele>294.3007813</ele>
        <time>2010-12-05T08:34:05Z</time>
      </trkpt>
      <trkpt lat="45.73056" lon="4.79221">
        <ele>293.3393555</ele>
        <time>2010-12-05T08:34:09Z</time>
      </trkpt>
      <trkpt lat="45.73066" lon="4.7924">
        <ele>294.3007813</ele>
        <time>2010-12-05T08:34:15Z</time>
      </trkpt>
      <trkpt lat="45.73074" lon="4.7926">
        <ele>293.3393555</ele>
        <time>2010-12-05T08:34:21Z</time>
      </trkpt>
      <trkpt lat="45.73081" lon="4.79278">
        <ele>292.8587646</ele>
        <time>2010-12-05T08:34:26Z</time>
      </trkpt>
      <trkpt lat="45.73091" lon="4.793">
        <ele>291.416748</ele>
        <time>2010-12-05T08:34:32Z</time>
      </trkpt>
      <trkpt lat="45.73096" lon="4.79314">
        <ele>291.8974609</ele>
        <time>2010-12-05T08:34:36Z</time>
      </trkpt>
      <trkpt lat="45.73103" lon="4.79331">
        <ele>291.8974609</ele>
        <time>2010-12-05T08:34:41Z</time>
      </trkpt>
      <trkpt lat="45.7311" lon="4.79345">
        <ele>292.8587646</ele>
        <time>2010-12-05T08:34:45Z</time>
      </trkpt>
      <trkpt lat="45.73118" lon="4.79361">
        <ele>292.8587646</ele>
        <time>2010-12-05T08:34:50Z</time>
      </trkpt>
      <trkpt lat="45.73127" lon="4.79377">
        <ele>293.3393555</ele>
        <time>2010-12-05T08:34:55Z</time>
      </trkpt>
      <trkpt lat="45.73134" lon="4.79394">
        <ele>293.3393555</ele>
        <time>2010-12-05T08:35:00Z</time>
      </trkpt>
      <trkpt lat="45.73145" lon="4.79412">
        <ele>291.416748</ele>
        <time>2010-12-05T08:35:06Z</time>
      </trkpt>
      <trkpt lat="45.73154" lon="4.79426">
        <ele>290.4555664</ele>
        <time>2010-12-05T08:35:11Z</time>
      </trkpt>
      <trkpt lat="45.73161" lon="4.79437">
        <ele>290.9361572</ele>
        <time>2010-12-05T08:35:15Z</time>
      </trkpt>
      <trkpt lat="45.73171" lon="4.79451">
        <ele>290.4555664</ele>
        <time>2010-12-05T08:35:20Z</time>
      </trkpt>
      <trkpt lat="45.73183" lon="4.79468">
        <ele>289.9748535</ele>
        <time>2010-12-05T08:35:26Z</time>
      </trkpt>
      <trkpt lat="45.73192" lon="4.79483">
        <ele>289.4941406</ele>
        <time>2010-12-05T08:35:31Z</time>
      </trkpt>
      <trkpt lat="45.732" lon="4.79497">
        <ele>290.9361572</ele>
        <time>2010-12-05T08:35:36Z</time>
      </trkpt>
      <trkpt lat="45.73211" lon="4.79514">
        <ele>292.8587646</ele>
        <time>2010-12-05T08:35:42Z</time>
      </trkpt>
      <trkpt lat="45.73219" lon="4.79527">
        <ele>292.3781738</ele>
        <time>2010-12-05T08:35:46Z</time>
      </trkpt>
      <trkpt lat="45.73226" lon="4.79538">
        <ele>292.3781738</ele>
        <time>2010-12-05T08:35:50Z</time>
      </trkpt>
      <trkpt lat="45.73233" lon="4.79553">
        <ele>292.3781738</ele>
        <time>2010-12-05T08:35:54Z</time>
      </trkpt>
      <trkpt lat="45.73241" lon="4.79566">
        <ele>291.8974609</ele>
        <time>2010-12-05T08:35:58Z</time>
      </trkpt>
      <trkpt lat="45.7325" lon="4.79585">
        <ele>291.8974609</ele>
        <time>2010-12-05T08:36:04Z</time>
      </trkpt>
      <trkpt lat="45.73261" lon="4.79599">
        <ele>292.3781738</ele>
        <time>2010-12-05T08:36:09Z</time>
      </trkpt>
      <trkpt lat="45.73271" lon="4.79613">
        <ele>291.416748</ele>
        <time>2010-12-05T08:36:14Z</time>
      </trkpt>
      <trkpt lat="45.73282" lon="4.79626">
        <ele>290.4555664</ele>
        <time>2010-12-05T08:36:19Z</time>
      </trkpt>
      <trkpt lat="45.73284" lon="4.79629">
        <ele>290.4555664</ele>
        <time>2010-12-05T08:36:20Z</time>
      </trkpt>
      <trkpt lat="45.73293" lon="4.79643">
        <ele>289.0135498</ele>
        <time>2010-12-05T08:36:25Z</time>
      </trkpt>
      <trkpt lat="45.73302" lon="4.79655">
        <ele>289.0135498</ele>
        <time>2010-12-05T08:36:30Z</time>
      </trkpt>
      <trkpt lat="45.73315" lon="4.79673">
        <ele>289.4941406</ele>
        <time>2010-12-05T08:36:37Z</time>
      </trkpt>
      <trkpt lat="45.73323" lon="4.79685">
        <ele>289.9748535</ele>
        <time>2010-12-05T08:36:41Z</time>
      </trkpt>
      <trkpt lat="45.73331" lon="4.79695">
        <ele>290.9361572</ele>
        <time>2010-12-05T08:36:45Z</time>
      </trkpt>
      <trkpt lat="45.73341" lon="4.79707">
        <ele>290.9361572</ele>
        <time>2010-12-05T08:36:49Z</time>
      </trkpt>
      <trkpt lat="45.73351" lon="4.7972">
        <ele>289.4941406</ele>
        <time>2010-12-05T08:36:54Z</time>
      </trkpt>
      <trkpt lat="45.73362" lon="4.79737">
        <ele>287.5714111</ele>
        <time>2010-12-05T08:37:00Z</time>
      </trkpt>
      <trkpt lat="45.7337" lon="4.79749">
        <ele>286.1295166</ele>
        <time>2010-12-05T08:37:04Z</time>
      </trkpt>
      <trkpt lat="45.73381" lon="4.79763">
        <ele>289.0135498</ele>
        <time>2010-12-05T08:37:10Z</time>
      </trkpt>
      <trkpt lat="45.7339" lon="4.79774">
        <ele>288.0522461</ele>
        <time>2010-12-05T08:37:14Z</time>
      </trkpt>
      <trkpt lat="45.734" lon="4.79788">
        <ele>287.0908203</ele>
        <time>2010-12-05T08:37:19Z</time>
      </trkpt>
      <trkpt lat="45.73409" lon="4.79803">
        <ele>286.1295166</ele>
        <time>2010-12-05T08:37:24Z</time>
      </trkpt>
      <trkpt lat="45.7342" lon="4.79817">
        <ele>286.1295166</ele>
        <time>2010-12-05T08:37:29Z</time>
      </trkpt>
      <trkpt lat="45.73429" lon="4.79831">
        <ele>285.6488037</ele>
        <time>2010-12-05T08:37:34Z</time>
      </trkpt>
      <trkpt lat="45.73439" lon="4.79845">
        <ele>286.1295166</ele>
        <time>2010-12-05T08:37:39Z</time>
      </trkpt>
      <trkpt lat="45.7345" lon="4.79856">
        <ele>287.5714111</ele>
        <time>2010-12-05T08:37:44Z</time>
      </trkpt>
      <trkpt lat="45.73465" lon="4.79871">
        <ele>289.4941406</ele>
        <time>2010-12-05T08:37:50Z</time>
      </trkpt>
      <trkpt lat="45.73477" lon="4.79886">
        <ele>289.0135498</ele>
        <time>2010-12-05T08:37:56Z</time>
      </trkpt>
      <trkpt lat="45.73485" lon="4.79894">
        <ele>289.0135498</ele>
        <time>2010-12-05T08:38:00Z</time>
      </trkpt>
      <trkpt lat="45.73493" lon="4.79903">
        <ele>290.9361572</ele>
        <time>2010-12-05T08:38:04Z</time>
      </trkpt>
      <trkpt lat="45.73504" lon="4.79916">
        <ele>291.416748</ele>
        <time>2010-12-05T08:38:09Z</time>
      </trkpt>
      <trkpt lat="45.73514" lon="4.79927">
        <ele>291.416748</ele>
        <time>2010-12-05T08:38:14Z</time>
      </trkpt>
      <trkpt lat="45.73527" lon="4.79942">
        <ele>291.8974609</ele>
        <time>2010-12-05T08:38:20Z</time>
      </trkpt>
      <trkpt lat="45.73538" lon="4.79952">
        <ele>292.3781738</ele>
        <time>2010-12-05T08:38:25Z</time>
      </trkpt>
      <trkpt lat="45.73548" lon="4.7996">
        <ele>292.8587646</ele>
        <time>2010-12-05T08:38:30Z</time>
      </trkpt>
      <trkpt lat="45.73557" lon="4.79966">
        <ele>294.7813721</ele>
        <time>2010-12-05T08:38:34Z</time>
      </trkpt>
      <trkpt lat="45.73566" lon="4.79972">
        <ele>297.1846924</ele>
        <time>2010-12-05T08:38:38Z</time>
      </trkpt>
      <trkpt lat="45.73575" lon="4.79977">
        <ele>298.1461182</ele>
        <time>2010-12-05T08:38:43Z</time>
      </trkpt>
      <trkpt lat="45.73585" lon="4.79983">
        <ele>299.5880127</ele>
        <time>2010-12-05T08:38:48Z</time>
      </trkpt>
      <trkpt lat="45.73594" lon="4.79991">
        <ele>302.4719238</ele>
        <time>2010-12-05T08:38:53Z</time>
      </trkpt>
      <trkpt lat="45.73607" lon="4.80002">
        <ele>301.991333</ele>
        <time>2010-12-05T08:38:59Z</time>
      </trkpt>
      <trkpt lat="45.73617" lon="4.80009">
        <ele>301.0299072</ele>
        <time>2010-12-05T08:39:04Z</time>
      </trkpt>
      <trkpt lat="45.73629" lon="4.80016">
        <ele>300.5493164</ele>
        <time>2010-12-05T08:39:10Z</time>
      </trkpt>
      <trkpt lat="45.73631" lon="4.80016">
        <ele>301.0299072</ele>
        <time>2010-12-05T08:39:11Z</time>
      </trkpt>
      <trkpt lat="45.73636" lon="4.8002">
        <ele>303.4332275</ele>
        <time>2010-12-05T08:39:15Z</time>
      </trkpt>
      <trkpt lat="45.73647" lon="4.80023">
        <ele>305.8366699</ele>
        <time>2010-12-05T08:39:21Z</time>
      </trkpt>
      <trkpt lat="45.73655" lon="4.80026">
        <ele>308.2398682</ele>
        <time>2010-12-05T08:39:25Z</time>
      </trkpt>
      <trkpt lat="45.73666" lon="4.80034">
        <ele>310.1624756</ele>
        <time>2010-12-05T08:39:30Z</time>
      </trkpt>
      <trkpt lat="45.73676" lon="4.80041">
        <ele>314.0078125</ele>
        <time>2010-12-05T08:39:36Z</time>
      </trkpt>
      <trkpt lat="45.73685" lon="4.80043">
        <ele>319.7756348</ele>
        <time>2010-12-05T08:39:41Z</time>
      </trkpt>
      <trkpt lat="45.73692" lon="4.80045">
        <ele>321.2177734</ele>
        <time>2010-12-05T08:39:44Z</time>
      </trkpt>
      <trkpt lat="45.73706" lon="4.80057">
        <ele>320.7370605</ele>
        <time>2010-12-05T08:39:51Z</time>
      </trkpt>
      <trkpt lat="45.73717" lon="4.80064">
        <ele>318.8143311</ele>
        <time>2010-12-05T08:39:56Z</time>
      </trkpt>
      <trkpt lat="45.73727" lon="4.80072">
        <ele>316.8917236</ele>
        <time>2010-12-05T08:40:01Z</time>
      </trkpt>
      <trkpt lat="45.73737" lon="4.8008">
        <ele>314.4884033</ele>
        <time>2010-12-05T08:40:06Z</time>
      </trkpt>
      <trkpt lat="45.73745" lon="4.80094">
        <ele>315.4498291</ele>
        <time>2010-12-05T08:40:11Z</time>
      </trkpt>
      <trkpt lat="45.73752" lon="4.80107">
        <ele>316.8917236</ele>
        <time>2010-12-05T08:40:15Z</time>
      </trkpt>
      <trkpt lat="45.73751" lon="4.80122">
        <ele>317.3724365</ele>
        <time>2010-12-05T08:40:19Z</time>
      </trkpt>
      <trkpt lat="45.73743" lon="4.80147">
        <ele>316.8917236</ele>
        <time>2010-12-05T08:40:26Z</time>
      </trkpt>
      <trkpt lat="45.73738" lon="4.80161">
        <ele>317.8530273</ele>
        <time>2010-12-05T08:40:30Z</time>
      </trkpt>
      <trkpt lat="45.73731" lon="4.80183">
        <ele>316.4110107</ele>
        <time>2010-12-05T08:40:36Z</time>
      </trkpt>
      <trkpt lat="45.73731" lon="4.80186">
        <ele>316.4110107</ele>
        <time>2010-12-05T08:40:37Z</time>
      </trkpt>
      <trkpt lat="45.73723" lon="4.80204">
        <ele>314.9691162</ele>
        <time>2010-12-05T08:40:42Z</time>
      </trkpt>
      <trkpt lat="45.7372" lon="4.80215">
        <ele>314.4884033</ele>
        <time>2010-12-05T08:40:45Z</time>
      </trkpt>
      <trkpt lat="45.73713" lon="4.80237">
        <ele>314.9691162</ele>
        <time>2010-12-05T08:40:51Z</time>
      </trkpt>
      <trkpt lat="45.73712" lon="4.80254">
        <ele>314.9691162</ele>
        <time>2010-12-05T08:40:55Z</time>
      </trkpt>
      <trkpt lat="45.7371" lon="4.80268">
        <ele>314.4884033</ele>
        <time>2010-12-05T08:40:59Z</time>
      </trkpt>
      <trkpt lat="45.73706" lon="4.80291">
        <ele>312.5657959</ele>
        <time>2010-12-05T08:41:04Z</time>
      </trkpt>
      <trkpt lat="45.73706" lon="4.80295">
        <ele>312.0852051</ele>
        <time>2010-12-05T08:41:05Z</time>
      </trkpt>
      <trkpt lat="45.73704" lon="4.80318">
        <ele>311.1237793</ele>
        <time>2010-12-05T08:41:10Z</time>
      </trkpt>
      <trkpt lat="45.73696" lon="4.8034">
        <ele>308.720459</ele>
        <time>2010-12-05T08:41:16Z</time>
      </trkpt>
      <trkpt lat="45.73693" lon="4.80358">
        <ele>307.2785645</ele>
        <time>2010-12-05T08:41:20Z</time>
      </trkpt>
      <trkpt lat="45.73688" lon="4.80376">
        <ele>305.8366699</ele>
        <time>2010-12-05T08:41:25Z</time>
      </trkpt>
      <trkpt lat="45.73684" lon="4.80393">
        <ele>305.8366699</ele>
        <time>2010-12-05T08:41:29Z</time>
      </trkpt>
      <trkpt lat="45.73685" lon="4.80404">
        <ele>306.3172607</ele>
        <time>2010-12-05T08:41:32Z</time>
      </trkpt>
      <trkpt lat="45.73691" lon="4.8041">
        <ele>305.355957</ele>
        <time>2010-12-05T08:41:35Z</time>
      </trkpt>
      <trkpt lat="45.73708" lon="4.80421">
        <ele>304.3946533</ele>
        <time>2010-12-05T08:41:42Z</time>
      </trkpt>
      <trkpt lat="45.73716" lon="4.80426">
        <ele>303.4332275</ele>
        <time>2010-12-05T08:41:45Z</time>
      </trkpt>
      <trkpt lat="45.73725" lon="4.80436">
        <ele>300.5493164</ele>
        <time>2010-12-05T08:41:49Z</time>
      </trkpt>
      <trkpt lat="45.73727" lon="4.80455">
        <ele>299.5880127</ele>
        <time>2010-12-05T08:41:54Z</time>
      </trkpt>
      <trkpt lat="45.73719" lon="4.80474">
        <ele>298.626709</ele>
        <time>2010-12-05T08:41:59Z</time>
      </trkpt>
      <trkpt lat="45.73718" lon="4.80482">
        <ele>298.1461182</ele>
        <time>2010-12-05T08:42:01Z</time>
      </trkpt>
      <trkpt lat="45.73719" lon="4.80509">
        <ele>296.2235107</ele>
        <time>2010-12-05T08:42:07Z</time>
      </trkpt>
      <trkpt lat="45.73719" lon="4.80531">
        <ele>294.7813721</ele>
        <time>2010-12-05T08:42:12Z</time>
      </trkpt>
      <trkpt lat="45.73721" lon="4.80543">
        <ele>294.3007813</ele>
        <time>2010-12-05T08:42:15Z</time>
      </trkpt>
      <trkpt lat="45.73726" lon="4.80556">
        <ele>292.8587646</ele>
        <time>2010-12-05T08:42:20Z</time>
      </trkpt>
      <trkpt lat="45.73725" lon="4.8056">
        <ele>292.8587646</ele>
        <time>2010-12-05T08:42:21Z</time>
      </trkpt>
      <trkpt lat="45.73724" lon="4.80581">
        <ele>290.9361572</ele>
        <time>2010-12-05T08:42:27Z</time>
      </trkpt>
      <trkpt lat="45.73728" lon="4.80598">
        <ele>288.532959</ele>
        <time>2010-12-05T08:42:32Z</time>
      </trkpt>
      <trkpt lat="45.73737" lon="4.80616">
        <ele>286.6102295</ele>
        <time>2010-12-05T08:42:37Z</time>
      </trkpt>
      <trkpt lat="45.73752" lon="4.80628">
        <ele>284.6876221</ele>
        <time>2010-12-05T08:42:42Z</time>
      </trkpt>
      <trkpt lat="45.73763" lon="4.80635">
        <ele>281.8035889</ele>
        <time>2010-12-05T08:42:46Z</time>
      </trkpt>
      <trkpt lat="45.73773" lon="4.8064">
        <ele>280.8424072</ele>
        <time>2010-12-05T08:42:49Z</time>
      </trkpt>
      <trkpt lat="45.73785" lon="4.80649">
        <ele>279.8808594</ele>
        <time>2010-12-05T08:42:53Z</time>
      </trkpt>
      <trkpt lat="45.73795" lon="4.80661">
        <ele>277.4776611</ele>
        <time>2010-12-05T08:42:57Z</time>
      </trkpt>
      <trkpt lat="45.73791" lon="4.80674">
        <ele>275.0744629</ele>
        <time>2010-12-05T08:43:02Z</time>
      </trkpt>
      <trkpt lat="45.73781" lon="4.80672">
        <ele>274.1130371</ele>
        <time>2010-12-05T08:43:05Z</time>
      </trkpt>
      <trkpt lat="45.73774" lon="4.80672">
        <ele>275.0744629</ele>
        <time>2010-12-05T08:43:08Z</time>
      </trkpt>
      <trkpt lat="45.73772" lon="4.80676">
        <ele>275.0744629</ele>
        <time>2010-12-05T08:43:11Z</time>
      </trkpt>
      <trkpt lat="45.73781" lon="4.80688">
        <ele>274.1130371</ele>
        <time>2010-12-05T08:43:16Z</time>
      </trkpt>
      <trkpt lat="45.73794" lon="4.80692">
        <ele>275.0744629</ele>
        <time>2010-12-05T08:43:20Z</time>
      </trkpt>
      <trkpt lat="45.73812" lon="4.80698">
        <ele>274.1130371</ele>
        <time>2010-12-05T08:43:25Z</time>
      </trkpt>
      <trkpt lat="45.73823" lon="4.80702">
        <ele>272.6711426</ele>
        <time>2010-12-05T08:43:29Z</time>
      </trkpt>
      <trkpt lat="45.73838" lon="4.80706">
        <ele>268.8258057</ele>
        <time>2010-12-05T08:43:34Z</time>
      </trkpt>
      <trkpt lat="45.73853" lon="4.80709">
        <ele>264.4998779</ele>
        <time>2010-12-05T08:43:39Z</time>
      </trkpt>
      <trkpt lat="45.73865" lon="4.80717">
        <ele>261.6159668</ele>
        <time>2010-12-05T08:43:43Z</time>
      </trkpt>
      <trkpt lat="45.73886" lon="4.80727">
        <ele>262.5771484</ele>
        <time>2010-12-05T08:43:49Z</time>
      </trkpt>
      <trkpt lat="45.73898" lon="4.80743">
        <ele>260.654541</ele>
        <time>2010-12-05T08:43:54Z</time>
      </trkpt>
      <trkpt lat="45.73901" lon="4.8076">
        <ele>257.770752</ele>
        <time>2010-12-05T08:43:58Z</time>
      </trkpt>
      <trkpt lat="45.73901" lon="4.80779">
        <ele>255.8480225</ele>
        <time>2010-12-05T08:44:02Z</time>
      </trkpt>
      <trkpt lat="45.73901" lon="4.80811">
        <ele>256.8093262</ele>
        <time>2010-12-05T08:44:08Z</time>
      </trkpt>
      <trkpt lat="45.73905" lon="4.80829">
        <ele>257.2900391</ele>
        <time>2010-12-05T08:44:12Z</time>
      </trkpt>
      <trkpt lat="45.73906" lon="4.80852">
        <ele>258.2513428</ele>
        <time>2010-12-05T08:44:17Z</time>
      </trkpt>
      <trkpt lat="45.73905" lon="4.80875">
        <ele>253.4447021</ele>
        <time>2010-12-05T08:44:22Z</time>
      </trkpt>
      <trkpt lat="45.73912" lon="4.80887">
        <ele>251.0413818</ele>
        <time>2010-12-05T08:44:26Z</time>
      </trkpt>
      <trkpt lat="45.73928" lon="4.80895">
        <ele>247.6767578</ele>
        <time>2010-12-05T08:44:32Z</time>
      </trkpt>
      <trkpt lat="45.73942" lon="4.80892">
        <ele>245.2734375</ele>
        <time>2010-12-05T08:44:36Z</time>
      </trkpt>
      <trkpt lat="45.73954" lon="4.80891">
        <ele>243.3508301</ele>
        <time>2010-12-05T08:44:40Z</time>
      </trkpt>
      <trkpt lat="45.73967" lon="4.80892">
        <ele>239.5054932</ele>
        <time>2010-12-05T08:44:44Z</time>
      </trkpt>
      <trkpt lat="45.73982" lon="4.8089">
        <ele>236.6217041</ele>
        <time>2010-12-05T08:44:49Z</time>
      </trkpt>
      <trkpt lat="45.73994" lon="4.80886">
        <ele>232.2957764</ele>
        <time>2010-12-05T08:44:54Z</time>
      </trkpt>
      <trkpt lat="45.74004" lon="4.80882">
        <ele>232.7764893</ele>
        <time>2010-12-05T08:44:58Z</time>
      </trkpt>
      <trkpt lat="45.7402" lon="4.80881">
        <ele>234.2183838</ele>
        <time>2010-12-05T08:45:04Z</time>
      </trkpt>
      <trkpt lat="45.74036" lon="4.80873">
        <ele>239.9862061</ele>
        <time>2010-12-05T08:45:08Z</time>
      </trkpt>
      <trkpt lat="45.74049" lon="4.80871">
        <ele>239.5054932</ele>
        <time>2010-12-05T08:45:13Z</time>
      </trkpt>
      <trkpt lat="45.7406" lon="4.80872">
        <ele>239.0249023</ele>
        <time>2010-12-05T08:45:18Z</time>
      </trkpt>
      <trkpt lat="45.74073" lon="4.80872">
        <ele>239.9862061</ele>
        <time>2010-12-05T08:45:23Z</time>
      </trkpt>
      <trkpt lat="45.74087" lon="4.80872">
        <ele>239.0249023</ele>
        <time>2010-12-05T08:45:28Z</time>
      </trkpt>
      <trkpt lat="45.74102" lon="4.80873">
        <ele>236.6217041</ele>
        <time>2010-12-05T08:45:34Z</time>
      </trkpt>
      <trkpt lat="45.74119" lon="4.80875">
        <ele>241.4282227</ele>
        <time>2010-12-05T08:45:39Z</time>
      </trkpt>
      <trkpt lat="45.74138" lon="4.8088">
        <ele>238.5443115</ele>
        <time>2010-12-05T08:45:45Z</time>
      </trkpt>
      <trkpt lat="45.74154" lon="4.80884">
        <ele>238.0635986</ele>
        <time>2010-12-05T08:45:50Z</time>
      </trkpt>
      <trkpt lat="45.74171" lon="4.80888">
        <ele>237.5828857</ele>
        <time>2010-12-05T08:45:56Z</time>
      </trkpt>
      <trkpt lat="45.74187" lon="4.80887">
        <ele>237.5828857</ele>
        <time>2010-12-05T08:46:02Z</time>
      </trkpt>
      <trkpt lat="45.74202" lon="4.80884">
        <ele>241.4282227</ele>
        <time>2010-12-05T08:46:07Z</time>
      </trkpt>
      <trkpt lat="45.74222" lon="4.80884">
        <ele>248.1575928</ele>
        <time>2010-12-05T08:46:13Z</time>
      </trkpt>
      <trkpt lat="45.74234" lon="4.80883">
        <ele>251.0413818</ele>
        <time>2010-12-05T08:46:17Z</time>
      </trkpt>
      <trkpt lat="45.7425" lon="4.80886">
        <ele>255.3673096</ele>
        <time>2010-12-05T08:46:23Z</time>
      </trkpt>
      <trkpt lat="45.74269" lon="4.80895">
        <ele>253.4447021</ele>
        <time>2010-12-05T08:46:29Z</time>
      </trkpt>
      <trkpt lat="45.74279" lon="4.80907">
        <ele>248.1575928</ele>
        <time>2010-12-05T08:46:33Z</time>
      </trkpt>
      <trkpt lat="45.74289" lon="4.80925">
        <ele>243.831543</ele>
        <time>2010-12-05T08:46:38Z</time>
      </trkpt>
      <trkpt lat="45.74294" lon="4.80941">
        <ele>241.4282227</ele>
        <time>2010-12-05T08:46:42Z</time>
      </trkpt>
      <trkpt lat="45.74299" lon="4.80961">
        <ele>237.5828857</ele>
        <time>2010-12-05T08:46:47Z</time>
      </trkpt>
      <trkpt lat="45.743" lon="4.80966">
        <ele>237.1022949</ele>
        <time>2010-12-05T08:46:48Z</time>
      </trkpt>
      <trkpt lat="45.74311" lon="4.80979">
        <ele>235.1796875</ele>
        <time>2010-12-05T08:46:53Z</time>
      </trkpt>
      <trkpt lat="45.74325" lon="4.80987">
        <ele>235.6602783</ele>
        <time>2010-12-05T08:46:57Z</time>
      </trkpt>
      <trkpt lat="45.74337" lon="4.80996">
        <ele>234.2183838</ele>
        <time>2010-12-05T08:47:02Z</time>
      </trkpt>
      <trkpt lat="45.74349" lon="4.81005">
        <ele>234.6990967</ele>
        <time>2010-12-05T08:47:07Z</time>
      </trkpt>
      <trkpt lat="45.74356" lon="4.81015">
        <ele>233.7376709</ele>
        <time>2010-12-05T08:47:11Z</time>
      </trkpt>
      <trkpt lat="45.74367" lon="4.81028">
        <ele>233.2570801</ele>
        <time>2010-12-05T08:47:16Z</time>
      </trkpt>
      <trkpt lat="45.74376" lon="4.81039">
        <ele>232.2957764</ele>
        <time>2010-12-05T08:47:21Z</time>
      </trkpt>
      <trkpt lat="45.74384" lon="4.81047">
        <ele>229.892334</ele>
        <time>2010-12-05T08:47:25Z</time>
      </trkpt>
      <trkpt lat="45.74396" lon="4.81057">
        <ele>229.4117432</ele>
        <time>2010-12-05T08:47:30Z</time>
      </trkpt>
      <trkpt lat="45.74406" lon="4.81066">
        <ele>229.892334</ele>
        <time>2010-12-05T08:47:34Z</time>
      </trkpt>
      <trkpt lat="45.74416" lon="4.81077">
        <ele>231.3343506</ele>
        <time>2010-12-05T08:47:39Z</time>
      </trkpt>
      <trkpt lat="45.74428" lon="4.81086">
        <ele>233.7376709</ele>
        <time>2010-12-05T08:47:44Z</time>
      </trkpt>
      <trkpt lat="45.74439" lon="4.81095">
        <ele>234.6990967</ele>
        <time>2010-12-05T08:47:49Z</time>
      </trkpt>
      <trkpt lat="45.74443" lon="4.81099">
        <ele>234.6990967</ele>
        <time>2010-12-05T08:47:51Z</time>
      </trkpt>
      <trkpt lat="45.7446" lon="4.81103">
        <ele>233.7376709</ele>
        <time>2010-12-05T08:47:57Z</time>
      </trkpt>
      <trkpt lat="45.74474" lon="4.81108">
        <ele>234.2183838</ele>
        <time>2010-12-05T08:48:02Z</time>
      </trkpt>
      <trkpt lat="45.74486" lon="4.81113">
        <ele>234.2183838</ele>
        <time>2010-12-05T08:48:07Z</time>
      </trkpt>
      <trkpt lat="45.74498" lon="4.81113">
        <ele>234.6990967</ele>
        <time>2010-12-05T08:48:11Z</time>
      </trkpt>
      <trkpt lat="45.74514" lon="4.81113">
        <ele>231.8149414</ele>
        <time>2010-12-05T08:48:17Z</time>
      </trkpt>
      <trkpt lat="45.74523" lon="4.81121">
        <ele>230.3730469</ele>
        <time>2010-12-05T08:48:21Z</time>
      </trkpt>
      <trkpt lat="45.74534" lon="4.81132">
        <ele>229.892334</ele>
        <time>2010-12-05T08:48:26Z</time>
      </trkpt>
      <trkpt lat="45.74545" lon="4.81142">
        <ele>230.8537598</ele>
        <time>2010-12-05T08:48:31Z</time>
      </trkpt>
      <trkpt lat="45.74556" lon="4.81161">
        <ele>229.892334</ele>
        <time>2010-12-05T08:48:38Z</time>
      </trkpt>
      <trkpt lat="45.74564" lon="4.81178">
        <ele>229.4117432</ele>
        <time>2010-12-05T08:48:44Z</time>
      </trkpt>
      <trkpt lat="45.74573" lon="4.81198">
        <ele>228.4504395</ele>
        <time>2010-12-05T08:48:50Z</time>
      </trkpt>
      <trkpt lat="45.74583" lon="4.81209">
        <ele>227.4891357</ele>
        <time>2010-12-05T08:48:55Z</time>
      </trkpt>
      <trkpt lat="45.74597" lon="4.81223">
        <ele>226.527832</ele>
        <time>2010-12-05T08:49:01Z</time>
      </trkpt>
      <trkpt lat="45.7461" lon="4.81233">
        <ele>228.4504395</ele>
        <time>2010-12-05T08:49:06Z</time>
      </trkpt>
      <trkpt lat="45.74621" lon="4.81236">
        <ele>231.3343506</ele>
        <time>2010-12-05T08:49:10Z</time>
      </trkpt>
      <trkpt lat="45.74634" lon="4.81232">
        <ele>231.3343506</ele>
        <time>2010-12-05T08:49:15Z</time>
      </trkpt>
      <trkpt lat="45.74647" lon="4.81225">
        <ele>229.892334</ele>
        <time>2010-12-05T08:49:20Z</time>
      </trkpt>
      <trkpt lat="45.74663" lon="4.81224">
        <ele>230.3730469</ele>
        <time>2010-12-05T08:49:25Z</time>
      </trkpt>
      <trkpt lat="45.74678" lon="4.81223">
        <ele>233.2570801</ele>
        <time>2010-12-05T08:49:30Z</time>
      </trkpt>
      <trkpt lat="45.74689" lon="4.81229">
        <ele>232.2957764</ele>
        <time>2010-12-05T08:49:35Z</time>
      </trkpt>
      <trkpt lat="45.74698" lon="4.81234">
        <ele>234.2183838</ele>
        <time>2010-12-05T08:49:39Z</time>
      </trkpt>
      <trkpt lat="45.74711" lon="4.81237">
        <ele>233.7376709</ele>
        <time>2010-12-05T08:49:44Z</time>
      </trkpt>
      <trkpt lat="45.74717" lon="4.8124">
        <ele>234.2183838</ele>
        <time>2010-12-05T08:49:46Z</time>
      </trkpt>
      <trkpt lat="45.7473" lon="4.8124">
        <ele>236.1409912</ele>
        <time>2010-12-05T08:49:50Z</time>
      </trkpt>
      <trkpt lat="45.74748" lon="4.81248">
        <ele>238.5443115</ele>
        <time>2010-12-05T08:49:56Z</time>
      </trkpt>
      <trkpt lat="45.74749" lon="4.81265">
        <ele>237.5828857</ele>
        <time>2010-12-05T08:50:00Z</time>
      </trkpt>
      <trkpt lat="45.74755" lon="4.81283">
        <ele>237.5828857</ele>
        <time>2010-12-05T08:50:05Z</time>
      </trkpt>
      <trkpt lat="45.74759" lon="4.81291">
        <ele>237.5828857</ele>
        <time>2010-12-05T08:50:07Z</time>
      </trkpt>
      <trkpt lat="45.74766" lon="4.81302">
        <ele>236.6217041</ele>
        <time>2010-12-05T08:50:11Z</time>
      </trkpt>
      <trkpt lat="45.74776" lon="4.81317">
        <ele>237.1022949</ele>
        <time>2010-12-05T08:50:16Z</time>
      </trkpt>
      <trkpt lat="45.74778" lon="4.81319">
        <ele>237.1022949</ele>
        <time>2010-12-05T08:50:17Z</time>
      </trkpt>
      <trkpt lat="45.74793" lon="4.81335">
        <ele>237.5828857</ele>
        <time>2010-12-05T08:50:24Z</time>
      </trkpt>
      <trkpt lat="45.74803" lon="4.81342">
        <ele>236.6217041</ele>
        <time>2010-12-05T08:50:29Z</time>
      </trkpt>
      <trkpt lat="45.74814" lon="4.81352">
        <ele>238.5443115</ele>
        <time>2010-12-05T08:50:34Z</time>
      </trkpt>
      <trkpt lat="45.74829" lon="4.81366">
        <ele>239.0249023</ele>
        <time>2010-12-05T08:50:40Z</time>
      </trkpt>
      <trkpt lat="45.7484" lon="4.81377">
        <ele>239.9862061</ele>
        <time>2010-12-05T08:50:45Z</time>
      </trkpt>
      <trkpt lat="45.74852" lon="4.81391">
        <ele>241.4282227</ele>
        <time>2010-12-05T08:50:50Z</time>
      </trkpt>
      <trkpt lat="45.7486" lon="4.81405">
        <ele>242.3896484</ele>
        <time>2010-12-05T08:50:54Z</time>
      </trkpt>
      <trkpt lat="45.74869" lon="4.81418">
        <ele>242.3896484</ele>
        <time>2010-12-05T08:50:58Z</time>
      </trkpt>
      <trkpt lat="45.74883" lon="4.81428">
        <ele>239.5054932</ele>
        <time>2010-12-05T08:51:03Z</time>
      </trkpt>
      <trkpt lat="45.74892" lon="4.81443">
        <ele>239.0249023</ele>
        <time>2010-12-05T08:51:08Z</time>
      </trkpt>
      <trkpt lat="45.74903" lon="4.81448">
        <ele>238.0635986</ele>
        <time>2010-12-05T08:51:12Z</time>
      </trkpt>
      <trkpt lat="45.7492" lon="4.81447">
        <ele>238.5443115</ele>
        <time>2010-12-05T08:51:17Z</time>
      </trkpt>
      <trkpt lat="45.74931" lon="4.8145">
        <ele>237.5828857</ele>
        <time>2010-12-05T08:51:21Z</time>
      </trkpt>
      <trkpt lat="45.74944" lon="4.81458">
        <ele>235.6602783</ele>
        <time>2010-12-05T08:51:26Z</time>
      </trkpt>
      <trkpt lat="45.74959" lon="4.81465">
        <ele>234.2183838</ele>
        <time>2010-12-05T08:51:32Z</time>
      </trkpt>
      <trkpt lat="45.74968" lon="4.81468">
        <ele>232.2957764</ele>
        <time>2010-12-05T08:51:36Z</time>
      </trkpt>
      <trkpt lat="45.74976" lon="4.8147">
        <ele>233.7376709</ele>
        <time>2010-12-05T08:51:39Z</time>
      </trkpt>
      <trkpt lat="45.74992" lon="4.81472">
        <ele>236.1409912</ele>
        <time>2010-12-05T08:51:45Z</time>
      </trkpt>
      <trkpt lat="45.75004" lon="4.81472">
        <ele>237.1022949</ele>
        <time>2010-12-05T08:51:49Z</time>
      </trkpt>
      <trkpt lat="45.75026" lon="4.81467">
        <ele>236.1409912</ele>
        <time>2010-12-05T08:51:56Z</time>
      </trkpt>
      <trkpt lat="45.7504" lon="4.8146">
        <ele>235.1796875</ele>
        <time>2010-12-05T08:52:01Z</time>
      </trkpt>
      <trkpt lat="45.75058" lon="4.81453">
        <ele>237.5828857</ele>
        <time>2010-12-05T08:52:07Z</time>
      </trkpt>
      <trkpt lat="45.75065" lon="4.81465">
        <ele>237.5828857</ele>
        <time>2010-12-05T08:52:11Z</time>
      </trkpt>
      <trkpt lat="45.75062" lon="4.81491">
        <ele>236.1409912</ele>
        <time>2010-12-05T08:52:17Z</time>
      </trkpt>
      <trkpt lat="45.75058" lon="4.81516">
        <ele>236.6217041</ele>
        <time>2010-12-05T08:52:22Z</time>
      </trkpt>
      <trkpt lat="45.75057" lon="4.81544">
        <ele>235.1796875</ele>
        <time>2010-12-05T08:52:28Z</time>
      </trkpt>
      <trkpt lat="45.75062" lon="4.81572">
        <ele>232.2957764</ele>
        <time>2010-12-05T08:52:34Z</time>
      </trkpt>
      <trkpt lat="45.75062" lon="4.81581">
        <ele>231.8149414</ele>
        <time>2010-12-05T08:52:36Z</time>
      </trkpt>
      <trkpt lat="45.75069" lon="4.81596">
        <ele>232.2957764</ele>
        <time>2010-12-05T08:52:41Z</time>
      </trkpt>
      <trkpt lat="45.75075" lon="4.81615">
        <ele>232.2957764</ele>
        <time>2010-12-05T08:52:46Z</time>
      </trkpt>
      <trkpt lat="45.75085" lon="4.81633">
        <ele>230.8537598</ele>
        <time>2010-12-05T08:52:51Z</time>
      </trkpt>
      <trkpt lat="45.75092" lon="4.81652">
        <ele>228.4504395</ele>
        <time>2010-12-05T08:52:56Z</time>
      </trkpt>
      <trkpt lat="45.75098" lon="4.81675">
        <ele>228.4504395</ele>
        <time>2010-12-05T08:53:01Z</time>
      </trkpt>
      <trkpt lat="45.75104" lon="4.81698">
        <ele>227.0085449</ele>
        <time>2010-12-05T08:53:06Z</time>
      </trkpt>
      <trkpt lat="45.75111" lon="4.81716">
        <ele>222.6824951</ele>
        <time>2010-12-05T08:53:11Z</time>
      </trkpt>
      <trkpt lat="45.75113" lon="4.81732">
        <ele>218.3565674</ele>
        <time>2010-12-05T08:53:15Z</time>
      </trkpt>
      <trkpt lat="45.75114" lon="4.81752">
        <ele>213.5500488</ele>
        <time>2010-12-05T08:53:20Z</time>
      </trkpt>
      <trkpt lat="45.75112" lon="4.8177">
        <ele>211.1467285</ele>
        <time>2010-12-05T08:53:24Z</time>
      </trkpt>
      <trkpt lat="45.7511" lon="4.81788">
        <ele>209.2241211</ele>
        <time>2010-12-05T08:53:28Z</time>
      </trkpt>
      <trkpt lat="45.75112" lon="4.81806">
        <ele>206.8206787</ele>
        <time>2010-12-05T08:53:32Z</time>
      </trkpt>
      <trkpt lat="45.75119" lon="4.81821">
        <ele>204.8980713</ele>
        <time>2010-12-05T08:53:36Z</time>
      </trkpt>
      <trkpt lat="45.75132" lon="4.81839">
        <ele>201.0528564</ele>
        <time>2010-12-05T08:53:42Z</time>
      </trkpt>
      <trkpt lat="45.75141" lon="4.8185">
        <ele>199.6108398</ele>
        <time>2010-12-05T08:53:46Z</time>
      </trkpt>
      <trkpt lat="45.75151" lon="4.8186">
        <ele>199.130127</ele>
        <time>2010-12-05T08:53:50Z</time>
      </trkpt>
      <trkpt lat="45.75162" lon="4.8188">
        <ele>196.7269287</ele>
        <time>2010-12-05T08:53:56Z</time>
      </trkpt>
      <trkpt lat="45.75169" lon="4.81893">
        <ele>194.8043213</ele>
        <time>2010-12-05T08:54:00Z</time>
      </trkpt>
      <trkpt lat="45.75176" lon="4.81913">
        <ele>193.8430176</ele>
        <time>2010-12-05T08:54:05Z</time>
      </trkpt>
      <trkpt lat="45.75181" lon="4.81929">
        <ele>194.3237305</ele>
        <time>2010-12-05T08:54:09Z</time>
      </trkpt>
      <trkpt lat="45.75187" lon="4.81949">
        <ele>192.401123</ele>
        <time>2010-12-05T08:54:14Z</time>
      </trkpt>
      <trkpt lat="45.75188" lon="4.81956">
        <ele>191.9202881</ele>
        <time>2010-12-05T08:54:16Z</time>
      </trkpt>
      <trkpt lat="45.75199" lon="4.81966">
        <ele>189.9976807</ele>
        <time>2010-12-05T08:54:21Z</time>
      </trkpt>
      <trkpt lat="45.75213" lon="4.81974">
        <ele>188.0750732</ele>
        <time>2010-12-05T08:54:26Z</time>
      </trkpt>
      <trkpt lat="45.75221" lon="4.81988">
        <ele>185.6717529</ele>
        <time>2010-12-05T08:54:30Z</time>
      </trkpt>
      <trkpt lat="45.75222" lon="4.81991">
        <ele>185.1911621</ele>
        <time>2010-12-05T08:54:31Z</time>
      </trkpt>
      <trkpt lat="45.75218" lon="4.81997">
        <ele>183.2684326</ele>
        <time>2010-12-05T08:54:36Z</time>
      </trkpt>
      <trkpt lat="45.75207" lon="4.81995">
        <ele>178.942627</ele>
        <time>2010-12-05T08:54:44Z</time>
      </trkpt>
      <trkpt lat="45.752" lon="4.81996">
        <ele>177.5006104</ele>
        <time>2010-12-05T08:54:47Z</time>
      </trkpt>
      <trkpt lat="45.75186" lon="4.82">
        <ele>176.0585938</ele>
        <time>2010-12-05T08:54:52Z</time>
      </trkpt>
      <trkpt lat="45.75172" lon="4.82006">
        <ele>174.1358643</ele>
        <time>2010-12-05T08:54:57Z</time>
      </trkpt>
      <trkpt lat="45.75161" lon="4.82013">
        <ele>172.6939697</ele>
        <time>2010-12-05T08:55:02Z</time>
      </trkpt>
      <trkpt lat="45.75149" lon="4.82029">
        <ele>171.732666</ele>
        <time>2010-12-05T08:55:08Z</time>
      </trkpt>
      <trkpt lat="45.75142" lon="4.82041">
        <ele>170.7713623</ele>
        <time>2010-12-05T08:55:12Z</time>
      </trkpt>
      <trkpt lat="45.75141" lon="4.82048">
        <ele>170.7713623</ele>
        <time>2010-12-05T08:55:14Z</time>
      </trkpt>
      <trkpt lat="45.75139" lon="4.82063">
        <ele>170.7713623</ele>
        <time>2010-12-05T08:55:18Z</time>
      </trkpt>
      <trkpt lat="45.75132" lon="4.82093">
        <ele>170.2906494</ele>
        <time>2010-12-05T08:55:25Z</time>
      </trkpt>
      <trkpt lat="45.7513" lon="4.82112">
        <ele>171.2520752</ele>
        <time>2010-12-05T08:55:30Z</time>
      </trkpt>
      <trkpt lat="45.7513" lon="4.82116">
        <ele>171.732666</ele>
        <time>2010-12-05T08:55:31Z</time>
      </trkpt>
      <trkpt lat="45.75134" lon="4.82133">
        <ele>172.6939697</ele>
        <time>2010-12-05T08:55:37Z</time>
      </trkpt>
      <trkpt lat="45.75147" lon="4.82151">
        <ele>170.2906494</ele>
        <time>2010-12-05T08:55:43Z</time>
      </trkpt>
      <trkpt lat="45.7515" lon="4.82169">
        <ele>170.7713623</ele>
        <time>2010-12-05T08:55:48Z</time>
      </trkpt>
      <trkpt lat="45.75148" lon="4.82181">
        <ele>169.8100586</ele>
        <time>2010-12-05T08:55:52Z</time>
      </trkpt>
      <trkpt lat="45.75141" lon="4.82201">
        <ele>169.8100586</ele>
        <time>2010-12-05T08:55:57Z</time>
      </trkpt>
      <trkpt lat="45.75137" lon="4.82215">
        <ele>170.2906494</ele>
        <time>2010-12-05T08:56:01Z</time>
      </trkpt>
      <trkpt lat="45.75132" lon="4.8223">
        <ele>170.7713623</ele>
        <time>2010-12-05T08:56:06Z</time>
      </trkpt>
      <trkpt lat="45.75124" lon="4.82251">
        <ele>171.2520752</ele>
        <time>2010-12-05T08:56:12Z</time>
      </trkpt>
      <trkpt lat="45.75121" lon="4.82267">
        <ele>172.2132568</ele>
        <time>2010-12-05T08:56:16Z</time>
      </trkpt>
      <trkpt lat="45.75118" lon="4.82279">
        <ele>173.6552734</ele>
        <time>2010-12-05T08:56:20Z</time>
      </trkpt>
      <trkpt lat="45.75114" lon="4.82291">
        <ele>174.1358643</ele>
        <time>2010-12-05T08:56:23Z</time>
      </trkpt>
      <trkpt lat="45.75107" lon="4.82305">
        <ele>175.09729</ele>
        <time>2010-12-05T08:56:27Z</time>
      </trkpt>
      <trkpt lat="45.75102" lon="4.82311">
        <ele>175.09729</ele>
        <time>2010-12-05T08:56:29Z</time>
      </trkpt>
      <trkpt lat="45.75093" lon="4.82307">
        <ele>175.5778809</ele>
        <time>2010-12-05T08:56:33Z</time>
      </trkpt>
      <trkpt lat="45.7508" lon="4.82298">
        <ele>172.6939697</ele>
        <time>2010-12-05T08:56:39Z</time>
      </trkpt>
      <trkpt lat="45.75075" lon="4.82286">
        <ele>170.7713623</ele>
        <time>2010-12-05T08:56:43Z</time>
      </trkpt>
      <trkpt lat="45.75074" lon="4.82281">
        <ele>169.3294678</ele>
        <time>2010-12-05T08:56:45Z</time>
      </trkpt>
      <trkpt lat="45.75061" lon="4.82266">
        <ele>167.8873291</ele>
        <time>2010-12-05T08:56:50Z</time>
      </trkpt>
      <trkpt lat="45.7505" lon="4.82251">
        <ele>167.4067383</ele>
        <time>2010-12-05T08:56:55Z</time>
      </trkpt>
      <trkpt lat="45.75035" lon="4.82235">
        <ele>168.368042</ele>
        <time>2010-12-05T08:57:01Z</time>
      </trkpt>
      <trkpt lat="45.75028" lon="4.82227">
        <ele>169.8100586</ele>
        <time>2010-12-05T08:57:04Z</time>
      </trkpt>
      <trkpt lat="45.75013" lon="4.82214">
        <ele>167.8873291</ele>
        <time>2010-12-05T08:57:10Z</time>
      </trkpt>
      <trkpt lat="45.75004" lon="4.82209">
        <ele>166.9260254</ele>
        <time>2010-12-05T08:57:14Z</time>
      </trkpt>
      <trkpt lat="45.74992" lon="4.82204">
        <ele>158.2741699</ele>
        <time>2010-12-05T08:57:18Z</time>
      </trkpt>
      <trkpt lat="45.74987" lon="4.82193">
        <ele>156.8321533</ele>
        <time>2010-12-05T08:57:22Z</time>
      </trkpt>
      <trkpt lat="45.7498" lon="4.82182">
        <ele>156.3515625</ele>
        <time>2010-12-05T08:57:26Z</time>
      </trkpt>
      <trkpt lat="45.74971" lon="4.82157">
        <ele>159.7161865</ele>
        <time>2010-12-05T08:57:33Z</time>
      </trkpt>
      <trkpt lat="45.74962" lon="4.82136">
        <ele>160.6774902</ele>
        <time>2010-12-05T08:57:39Z</time>
      </trkpt>
      <trkpt lat="45.74952" lon="4.82121">
        <ele>163.0808105</ele>
        <time>2010-12-05T08:57:44Z</time>
      </trkpt>
      <trkpt lat="45.7495" lon="4.82114">
        <ele>165.4841309</ele>
        <time>2010-12-05T08:57:46Z</time>
      </trkpt>
      <trkpt lat="45.74936" lon="4.82095">
        <ele>166.9260254</ele>
        <time>2010-12-05T08:57:53Z</time>
      </trkpt>
      <trkpt lat="45.74928" lon="4.82081">
        <ele>166.9260254</ele>
        <time>2010-12-05T08:57:58Z</time>
      </trkpt>
      <trkpt lat="45.74918" lon="4.82071">
        <ele>166.9260254</ele>
        <time>2010-12-05T08:58:03Z</time>
      </trkpt>
      <trkpt lat="45.74912" lon="4.82059">
        <ele>167.4067383</ele>
        <time>2010-12-05T08:58:07Z</time>
      </trkpt>
      <trkpt lat="45.74901" lon="4.82044">
        <ele>166.4453125</ele>
        <time>2010-12-05T08:58:13Z</time>
      </trkpt>
      <trkpt lat="45.74892" lon="4.82031">
        <ele>166.9260254</ele>
        <time>2010-12-05T08:58:18Z</time>
      </trkpt>
      <trkpt lat="45.7488" lon="4.82016">
        <ele>167.4067383</ele>
        <time>2010-12-05T08:58:24Z</time>
      </trkpt>
      <trkpt lat="45.74871" lon="4.82006">
        <ele>165.9647217</ele>
        <time>2010-12-05T08:58:28Z</time>
      </trkpt>
      <trkpt lat="45.7486" lon="4.81996">
        <ele>166.4453125</ele>
        <time>2010-12-05T08:58:33Z</time>
      </trkpt>
      <trkpt lat="45.74851" lon="4.81982">
        <ele>166.4453125</ele>
        <time>2010-12-05T08:58:38Z</time>
      </trkpt>
      <trkpt lat="45.74838" lon="4.81969">
        <ele>165.4841309</ele>
        <time>2010-12-05T08:58:44Z</time>
      </trkpt>
      <trkpt lat="45.74825" lon="4.81957">
        <ele>163.5615234</ele>
        <time>2010-12-05T08:58:50Z</time>
      </trkpt>
      <trkpt lat="45.74811" lon="4.81939">
        <ele>161.638916</ele>
        <time>2010-12-05T08:58:57Z</time>
      </trkpt>
      <trkpt lat="45.74803" lon="4.81929">
        <ele>162.1195068</ele>
        <time>2010-12-05T08:59:01Z</time>
      </trkpt>
      <trkpt lat="45.74793" lon="4.81908">
        <ele>166.4453125</ele>
        <time>2010-12-05T08:59:07Z</time>
      </trkpt>
      <trkpt lat="45.74788" lon="4.81898">
        <ele>165.9647217</ele>
        <time>2010-12-05T08:59:10Z</time>
      </trkpt>
      <trkpt lat="45.74771" lon="4.81886">
        <ele>163.5615234</ele>
        <time>2010-12-05T08:59:16Z</time>
      </trkpt>
      <trkpt lat="45.74764" lon="4.81874">
        <ele>165.003418</ele>
        <time>2010-12-05T08:59:20Z</time>
      </trkpt>
      <trkpt lat="45.7475" lon="4.8186">
        <ele>164.5227051</ele>
        <time>2010-12-05T08:59:26Z</time>
      </trkpt>
      <trkpt lat="45.74739" lon="4.81842">
        <ele>165.003418</ele>
        <time>2010-12-05T08:59:32Z</time>
      </trkpt>
      <trkpt lat="45.74726" lon="4.81828">
        <ele>164.5227051</ele>
        <time>2010-12-05T08:59:38Z</time>
      </trkpt>
      <trkpt lat="45.74714" lon="4.81812">
        <ele>165.4841309</ele>
        <time>2010-12-05T08:59:44Z</time>
      </trkpt>
      <trkpt lat="45.74702" lon="4.81804">
        <ele>165.4841309</ele>
        <time>2010-12-05T08:59:49Z</time>
      </trkpt>
      <trkpt lat="45.74692" lon="4.81799">
        <ele>165.003418</ele>
        <time>2010-12-05T08:59:53Z</time>
      </trkpt>
      <trkpt lat="45.7468" lon="4.81795">
        <ele>164.0421143</ele>
        <time>2010-12-05T08:59:58Z</time>
      </trkpt>
      <trkpt lat="45.74666" lon="4.81785">
        <ele>160.6774902</ele>
        <time>2010-12-05T09:00:04Z</time>
      </trkpt>
      <trkpt lat="45.74653" lon="4.81771">
        <ele>160.1968994</ele>
        <time>2010-12-05T09:00:10Z</time>
      </trkpt>
      <trkpt lat="45.74644" lon="4.81756">
        <ele>160.1968994</ele>
        <time>2010-12-05T09:00:15Z</time>
      </trkpt>
      <trkpt lat="45.74636" lon="4.81735">
        <ele>160.6774902</ele>
        <time>2010-12-05T09:00:21Z</time>
      </trkpt>
      <trkpt lat="45.74628" lon="4.81718">
        <ele>160.6774902</ele>
        <time>2010-12-05T09:00:26Z</time>
      </trkpt>
      <trkpt lat="45.74619" lon="4.81703">
        <ele>160.6774902</ele>
        <time>2010-12-05T09:00:31Z</time>
      </trkpt>
      <trkpt lat="45.74606" lon="4.81688">
        <ele>160.6774902</ele>
        <time>2010-12-05T09:00:37Z</time>
      </trkpt>
      <trkpt lat="45.74589" lon="4.81674">
        <ele>161.638916</ele>
        <time>2010-12-05T09:00:44Z</time>
      </trkpt>
      <trkpt lat="45.74577" lon="4.81661">
        <ele>162.6000977</ele>
        <time>2010-12-05T09:00:49Z</time>
      </trkpt>
      <trkpt lat="45.74569" lon="4.8165">
        <ele>163.5615234</ele>
        <time>2010-12-05T09:00:53Z</time>
      </trkpt>
      <trkpt lat="45.7456" lon="4.81629">
        <ele>165.003418</ele>
        <time>2010-12-05T09:00:59Z</time>
      </trkpt>
      <trkpt lat="45.74546" lon="4.81616">
        <ele>167.4067383</ele>
        <time>2010-12-05T09:01:05Z</time>
      </trkpt>
      <trkpt lat="45.74534" lon="4.81605">
        <ele>167.8873291</ele>
        <time>2010-12-05T09:01:10Z</time>
      </trkpt>
      <trkpt lat="45.74528" lon="4.81595">
        <ele>167.4067383</ele>
        <time>2010-12-05T09:01:13Z</time>
      </trkpt>
      <trkpt lat="45.74519" lon="4.8158">
        <ele>167.8873291</ele>
        <time>2010-12-05T09:01:19Z</time>
      </trkpt>
      <trkpt lat="45.74508" lon="4.81571">
        <ele>168.8487549</ele>
        <time>2010-12-05T09:01:24Z</time>
      </trkpt>
      <trkpt lat="45.74497" lon="4.81562">
        <ele>168.8487549</ele>
        <time>2010-12-05T09:01:29Z</time>
      </trkpt>
      <trkpt lat="45.74488" lon="4.81558">
        <ele>168.8487549</ele>
        <time>2010-12-05T09:01:33Z</time>
      </trkpt>
      <trkpt lat="45.74477" lon="4.81548">
        <ele>168.8487549</ele>
        <time>2010-12-05T09:01:38Z</time>
      </trkpt>
      <trkpt lat="45.74466" lon="4.81538">
        <ele>168.8487549</ele>
        <time>2010-12-05T09:01:43Z</time>
      </trkpt>
      <trkpt lat="45.74455" lon="4.81527">
        <ele>169.8100586</ele>
        <time>2010-12-05T09:01:48Z</time>
      </trkpt>
      <trkpt lat="45.74443" lon="4.81518">
        <ele>169.3294678</ele>
        <time>2010-12-05T09:01:53Z</time>
      </trkpt>
      <trkpt lat="45.74431" lon="4.81511">
        <ele>169.8100586</ele>
        <time>2010-12-05T09:01:58Z</time>
      </trkpt>
      <trkpt lat="45.74423" lon="4.81504">
        <ele>168.8487549</ele>
        <time>2010-12-05T09:02:02Z</time>
      </trkpt>
      <trkpt lat="45.74408" lon="4.81492">
        <ele>169.8100586</ele>
        <time>2010-12-05T09:02:08Z</time>
      </trkpt>
      <trkpt lat="45.74399" lon="4.81484">
        <ele>169.8100586</ele>
        <time>2010-12-05T09:02:12Z</time>
      </trkpt>
      <trkpt lat="45.74392" lon="4.81479">
        <ele>169.8100586</ele>
        <time>2010-12-05T09:02:15Z</time>
      </trkpt>
      <trkpt lat="45.7438" lon="4.81472">
        <ele>169.3294678</ele>
        <time>2010-12-05T09:02:20Z</time>
      </trkpt>
      <trkpt lat="45.74366" lon="4.81469">
        <ele>167.8873291</ele>
        <time>2010-12-05T09:02:26Z</time>
      </trkpt>
      <trkpt lat="45.74357" lon="4.81461">
        <ele>166.9260254</ele>
        <time>2010-12-05T09:02:31Z</time>
      </trkpt>
      <trkpt lat="45.7435" lon="4.81455">
        <ele>166.9260254</ele>
        <time>2010-12-05T09:02:35Z</time>
      </trkpt>
      <trkpt lat="45.7434" lon="4.81457">
        <ele>164.5227051</ele>
        <time>2010-12-05T09:02:40Z</time>
      </trkpt>
      <trkpt lat="45.74332" lon="4.8146">
        <ele>163.5615234</ele>
        <time>2010-12-05T09:02:44Z</time>
      </trkpt>
      <trkpt lat="45.74318" lon="4.8146">
        <ele>163.5615234</ele>
        <time>2010-12-05T09:02:50Z</time>
      </trkpt>
      <trkpt lat="45.74305" lon="4.81457">
        <ele>165.003418</ele>
        <time>2010-12-05T09:02:55Z</time>
      </trkpt>
      <trkpt lat="45.74293" lon="4.81454">
        <ele>165.4841309</ele>
        <time>2010-12-05T09:03:00Z</time>
      </trkpt>
      <trkpt lat="45.74278" lon="4.8145">
        <ele>165.9647217</ele>
        <time>2010-12-05T09:03:06Z</time>
      </trkpt>
      <trkpt lat="45.74265" lon="4.81447">
        <ele>165.9647217</ele>
        <time>2010-12-05T09:03:11Z</time>
      </trkpt>
      <trkpt lat="45.74253" lon="4.81442">
        <ele>165.9647217</ele>
        <time>2010-12-05T09:03:16Z</time>
      </trkpt>
      <trkpt lat="45.74241" lon="4.8144">
        <ele>166.9260254</ele>
        <time>2010-12-05T09:03:20Z</time>
      </trkpt>
      <trkpt lat="45.74225" lon="4.81436">
        <ele>168.8487549</ele>
        <time>2010-12-05T09:03:26Z</time>
      </trkpt>
      <trkpt lat="45.74215" lon="4.81434">
        <ele>168.368042</ele>
        <time>2010-12-05T09:03:30Z</time>
      </trkpt>
      <trkpt lat="45.74209" lon="4.81433">
        <ele>167.8873291</ele>
        <time>2010-12-05T09:03:32Z</time>
      </trkpt>
      <trkpt lat="45.74195" lon="4.81431">
        <ele>166.4453125</ele>
        <time>2010-12-05T09:03:37Z</time>
      </trkpt>
      <trkpt lat="45.74179" lon="4.81427">
        <ele>164.5227051</ele>
        <time>2010-12-05T09:03:43Z</time>
      </trkpt>
      <trkpt lat="45.74162" lon="4.81429">
        <ele>162.6000977</ele>
        <time>2010-12-05T09:03:48Z</time>
      </trkpt>
      <trkpt lat="45.74151" lon="4.81427">
        <ele>162.1195068</ele>
        <time>2010-12-05T09:03:52Z</time>
      </trkpt>
      <trkpt lat="45.74142" lon="4.81422">
        <ele>163.5615234</ele>
        <time>2010-12-05T09:03:56Z</time>
      </trkpt>
      <trkpt lat="45.74137" lon="4.81416">
        <ele>166.4453125</ele>
        <time>2010-12-05T09:04:00Z</time>
      </trkpt>
      <trkpt lat="45.74123" lon="4.81411">
        <ele>167.4067383</ele>
        <time>2010-12-05T09:04:07Z</time>
      </trkpt>
      <trkpt lat="45.74112" lon="4.81407">
        <ele>165.9647217</ele>
        <time>2010-12-05T09:04:12Z</time>
      </trkpt>
      <trkpt lat="45.74099" lon="4.81407">
        <ele>165.003418</ele>
        <time>2010-12-05T09:04:18Z</time>
      </trkpt>
      <trkpt lat="45.74085" lon="4.81404">
        <ele>165.003418</ele>
        <time>2010-12-05T09:04:24Z</time>
      </trkpt>
      <trkpt lat="45.74073" lon="4.81403">
        <ele>165.003418</ele>
        <time>2010-12-05T09:04:29Z</time>
      </trkpt>
      <trkpt lat="45.74059" lon="4.81398">
        <ele>165.003418</ele>
        <time>2010-12-05T09:04:35Z</time>
      </trkpt>
      <trkpt lat="45.74049" lon="4.814">
        <ele>165.9647217</ele>
        <time>2010-12-05T09:04:39Z</time>
      </trkpt>
      <trkpt lat="45.74037" lon="4.81401">
        <ele>166.9260254</ele>
        <time>2010-12-05T09:04:44Z</time>
      </trkpt>
      <trkpt lat="45.74023" lon="4.81399">
        <ele>167.8873291</ele>
        <time>2010-12-05T09:04:50Z</time>
      </trkpt>
      <trkpt lat="45.7401" lon="4.81399">
        <ele>168.368042</ele>
        <time>2010-12-05T09:04:55Z</time>
      </trkpt>
      <trkpt lat="45.73998" lon="4.81402">
        <ele>168.368042</ele>
        <time>2010-12-05T09:05:00Z</time>
      </trkpt>
      <trkpt lat="45.73985" lon="4.81405">
        <ele>165.9647217</ele>
        <time>2010-12-05T09:05:05Z</time>
      </trkpt>
      <trkpt lat="45.7397" lon="4.8141">
        <ele>165.4841309</ele>
        <time>2010-12-05T09:05:11Z</time>
      </trkpt>
      <trkpt lat="45.73968" lon="4.81411">
        <ele>165.4841309</ele>
        <time>2010-12-05T09:05:12Z</time>
      </trkpt>
      <trkpt lat="45.7396" lon="4.81413">
        <ele>165.4841309</ele>
        <time>2010-12-05T09:05:16Z</time>
      </trkpt>
      <trkpt lat="45.73948" lon="4.81413">
        <ele>169.8100586</ele>
        <time>2010-12-05T09:05:21Z</time>
      </trkpt>
      <trkpt lat="45.7394" lon="4.81413">
        <ele>171.732666</ele>
        <time>2010-12-05T09:05:25Z</time>
      </trkpt>
      <trkpt lat="45.7393" lon="4.81414">
        <ele>171.2520752</ele>
        <time>2010-12-05T09:05:29Z</time>
      </trkpt>
      <trkpt lat="45.73923" lon="4.8142">
        <ele>170.2906494</ele>
        <time>2010-12-05T09:05:32Z</time>
      </trkpt>
      <trkpt lat="45.73913" lon="4.81423">
        <ele>169.8100586</ele>
        <time>2010-12-05T09:05:36Z</time>
      </trkpt>
      <trkpt lat="45.73908" lon="4.81423">
        <ele>170.2906494</ele>
        <time>2010-12-05T09:05:38Z</time>
      </trkpt>
      <trkpt lat="45.73892" lon="4.81426">
        <ele>172.2132568</ele>
        <time>2010-12-05T09:05:44Z</time>
      </trkpt>
      <trkpt lat="45.73885" lon="4.81427">
        <ele>172.6939697</ele>
        <time>2010-12-05T09:05:47Z</time>
      </trkpt>
      <trkpt lat="45.73875" lon="4.8143">
        <ele>171.732666</ele>
        <time>2010-12-05T09:05:51Z</time>
      </trkpt>
      <trkpt lat="45.73862" lon="4.81431">
        <ele>172.2132568</ele>
        <time>2010-12-05T09:05:56Z</time>
      </trkpt>
      <trkpt lat="45.73844" lon="4.81435">
        <ele>173.1746826</ele>
        <time>2010-12-05T09:06:02Z</time>
      </trkpt>
      <trkpt lat="45.73839" lon="4.81434">
        <ele>172.6939697</ele>
        <time>2010-12-05T09:06:05Z</time>
      </trkpt>
      <trkpt lat="45.73827" lon="4.81437">
        <ele>173.1746826</ele>
        <time>2010-12-05T09:06:09Z</time>
      </trkpt>
      <trkpt lat="45.73815" lon="4.81441">
        <ele>174.6165771</ele>
        <time>2010-12-05T09:06:14Z</time>
      </trkpt>
      <trkpt lat="45.73805" lon="4.81446">
        <ele>173.6552734</ele>
        <time>2010-12-05T09:06:18Z</time>
      </trkpt>
      <trkpt lat="45.73793" lon="4.81449">
        <ele>174.6165771</ele>
        <time>2010-12-05T09:06:23Z</time>
      </trkpt>
      <trkpt lat="45.73778" lon="4.81451">
        <ele>174.6165771</ele>
        <time>2010-12-05T09:06:29Z</time>
      </trkpt>
      <trkpt lat="45.73762" lon="4.81454">
        <ele>173.1746826</ele>
        <time>2010-12-05T09:06:36Z</time>
      </trkpt>
      <trkpt lat="45.73756" lon="4.81453">
        <ele>175.09729</ele>
        <time>2010-12-05T09:06:39Z</time>
      </trkpt>
      <trkpt lat="45.73741" lon="4.81457">
        <ele>172.6939697</ele>
        <time>2010-12-05T09:06:45Z</time>
      </trkpt>
      <trkpt lat="45.73728" lon="4.8146">
        <ele>170.7713623</ele>
        <time>2010-12-05T09:06:50Z</time>
      </trkpt>
      <trkpt lat="45.73717" lon="4.81462">
        <ele>170.2906494</ele>
        <time>2010-12-05T09:06:54Z</time>
      </trkpt>
      <trkpt lat="45.73705" lon="4.81467">
        <ele>170.7713623</ele>
        <time>2010-12-05T09:06:59Z</time>
      </trkpt>
      <trkpt lat="45.73691" lon="4.81468">
        <ele>170.7713623</ele>
        <time>2010-12-05T09:07:03Z</time>
      </trkpt>
      <trkpt lat="45.73683" lon="4.81472">
        <ele>171.2520752</ele>
        <time>2010-12-05T09:07:07Z</time>
      </trkpt>
      <trkpt lat="45.7367" lon="4.81473">
        <ele>176.5393066</ele>
        <time>2010-12-05T09:07:12Z</time>
      </trkpt>
      <trkpt lat="45.73658" lon="4.81476">
        <ele>177.5006104</ele>
        <time>2010-12-05T09:07:16Z</time>
      </trkpt>
      <trkpt lat="45.73647" lon="4.81478">
        <ele>177.9812012</ele>
        <time>2010-12-05T09:07:20Z</time>
      </trkpt>
      <trkpt lat="45.73639" lon="4.81479">
        <ele>176.0585938</ele>
        <time>2010-12-05T09:07:24Z</time>
      </trkpt>
      <trkpt lat="45.7363" lon="4.8148">
        <ele>174.6165771</ele>
        <time>2010-12-05T09:07:28Z</time>
      </trkpt>
      <trkpt lat="45.73622" lon="4.81483">
        <ele>172.2132568</ele>
        <time>2010-12-05T09:07:32Z</time>
      </trkpt>
      <trkpt lat="45.73613" lon="4.81483">
        <ele>171.2520752</ele>
        <time>2010-12-05T09:07:36Z</time>
      </trkpt>
      <trkpt lat="45.73602" lon="4.81484">
        <ele>167.8873291</ele>
        <time>2010-12-05T09:07:41Z</time>
      </trkpt>
      <trkpt lat="45.73591" lon="4.81485">
        <ele>165.4841309</ele>
        <time>2010-12-05T09:07:46Z</time>
      </trkpt>
      <trkpt lat="45.7358" lon="4.81487">
        <ele>164.5227051</ele>
        <time>2010-12-05T09:07:51Z</time>
      </trkpt>
      <trkpt lat="45.73562" lon="4.81491">
        <ele>164.5227051</ele>
        <time>2010-12-05T09:07:59Z</time>
      </trkpt>
      <trkpt lat="45.7355" lon="4.81494">
        <ele>165.4841309</ele>
        <time>2010-12-05T09:08:04Z</time>
      </trkpt>
      <trkpt lat="45.73535" lon="4.81496">
        <ele>165.003418</ele>
        <time>2010-12-05T09:08:10Z</time>
      </trkpt>
      <trkpt lat="45.73528" lon="4.81496">
        <ele>164.0421143</ele>
        <time>2010-12-05T09:08:14Z</time>
      </trkpt>
      <trkpt lat="45.7351" lon="4.81505">
        <ele>162.1195068</ele>
        <time>2010-12-05T09:08:20Z</time>
      </trkpt>
      <trkpt lat="45.735" lon="4.81508">
        <ele>161.1582031</ele>
        <time>2010-12-05T09:08:24Z</time>
      </trkpt>
      <trkpt lat="45.73491" lon="4.81509">
        <ele>161.1582031</ele>
        <time>2010-12-05T09:08:28Z</time>
      </trkpt>
      <trkpt lat="45.7348" lon="4.8151">
        <ele>159.7161865</ele>
        <time>2010-12-05T09:08:33Z</time>
      </trkpt>
      <trkpt lat="45.7347" lon="4.81511">
        <ele>158.7547607</ele>
        <time>2010-12-05T09:08:37Z</time>
      </trkpt>
      <trkpt lat="45.73459" lon="4.81514">
        <ele>159.2354736</ele>
        <time>2010-12-05T09:08:42Z</time>
      </trkpt>
      <trkpt lat="45.73447" lon="4.81517">
        <ele>159.2354736</ele>
        <time>2010-12-05T09:08:47Z</time>
      </trkpt>
      <trkpt lat="45.73436" lon="4.81519">
        <ele>159.7161865</ele>
        <time>2010-12-05T09:08:51Z</time>
      </trkpt>
      <trkpt lat="45.73423" lon="4.81522">
        <ele>160.1968994</ele>
        <time>2010-12-05T09:08:56Z</time>
      </trkpt>
      <trkpt lat="45.73421" lon="4.81523">
        <ele>160.6774902</ele>
        <time>2010-12-05T09:08:57Z</time>
      </trkpt>
      <trkpt lat="45.73411" lon="4.81524">
        <ele>161.638916</ele>
        <time>2010-12-05T09:09:01Z</time>
      </trkpt>
      <trkpt lat="45.734" lon="4.81526">
        <ele>161.638916</ele>
        <time>2010-12-05T09:09:06Z</time>
      </trkpt>
      <trkpt lat="45.7339" lon="4.81529">
        <ele>162.1195068</ele>
        <time>2010-12-05T09:09:10Z</time>
      </trkpt>
      <trkpt lat="45.7338" lon="4.8153">
        <ele>162.6000977</ele>
        <time>2010-12-05T09:09:14Z</time>
      </trkpt>
      <trkpt lat="45.73368" lon="4.81533">
        <ele>162.6000977</ele>
        <time>2010-12-05T09:09:19Z</time>
      </trkpt>
      <trkpt lat="45.73356" lon="4.81534">
        <ele>162.6000977</ele>
        <time>2010-12-05T09:09:25Z</time>
      </trkpt>
      <trkpt lat="45.73347" lon="4.81538">
        <ele>162.6000977</ele>
        <time>2010-12-05T09:09:29Z</time>
      </trkpt>
      <trkpt lat="45.73334" lon="4.81542">
        <ele>163.0808105</ele>
        <time>2010-12-05T09:09:34Z</time>
      </trkpt>
      <trkpt lat="45.73325" lon="4.8155">
        <ele>163.5615234</ele>
        <time>2010-12-05T09:09:39Z</time>
      </trkpt>
      <trkpt lat="45.73312" lon="4.81561">
        <ele>164.0421143</ele>
        <time>2010-12-05T09:09:45Z</time>
      </trkpt>
      <trkpt lat="45.73297" lon="4.81565">
        <ele>163.0808105</ele>
        <time>2010-12-05T09:09:51Z</time>
      </trkpt>
      <trkpt lat="45.73285" lon="4.81567">
        <ele>162.1195068</ele>
        <time>2010-12-05T09:09:56Z</time>
      </trkpt>
      <trkpt lat="45.73273" lon="4.81571">
        <ele>161.638916</ele>
        <time>2010-12-05T09:10:01Z</time>
      </trkpt>
      <trkpt lat="45.7326" lon="4.81572">
        <ele>161.1582031</ele>
        <time>2010-12-05T09:10:06Z</time>
      </trkpt>
      <trkpt lat="45.73251" lon="4.81574">
        <ele>160.1968994</ele>
        <time>2010-12-05T09:10:10Z</time>
      </trkpt>
      <trkpt lat="45.73238" lon="4.81576">
        <ele>159.7161865</ele>
        <time>2010-12-05T09:10:15Z</time>
      </trkpt>
      <trkpt lat="45.73229" lon="4.81581">
        <ele>160.1968994</ele>
        <time>2010-12-05T09:10:19Z</time>
      </trkpt>
      <trkpt lat="45.73222" lon="4.81585">
        <ele>162.1195068</ele>
        <time>2010-12-05T09:10:23Z</time>
      </trkpt>
      <trkpt lat="45.73213" lon="4.81597">
        <ele>164.0421143</ele>
        <time>2010-12-05T09:10:27Z</time>
      </trkpt>
      <trkpt lat="45.73212" lon="4.81601">
        <ele>165.4841309</ele>
        <time>2010-12-05T09:10:29Z</time>
      </trkpt>
      <trkpt lat="45.7321" lon="4.81609">
        <ele>165.9647217</ele>
        <time>2010-12-05T09:10:32Z</time>
      </trkpt>
      <trkpt lat="45.73199" lon="4.81619">
        <ele>170.2906494</ele>
        <time>2010-12-05T09:10:36Z</time>
      </trkpt>
      <trkpt lat="45.73194" lon="4.81632">
        <ele>169.8100586</ele>
        <time>2010-12-05T09:10:41Z</time>
      </trkpt>
      <trkpt lat="45.73193" lon="4.81634">
        <ele>169.8100586</ele>
        <time>2010-12-05T09:10:42Z</time>
      </trkpt>
      <trkpt lat="45.73179" lon="4.81645">
        <ele>170.7713623</ele>
        <time>2010-12-05T09:10:48Z</time>
      </trkpt>
      <trkpt lat="45.73174" lon="4.81674">
        <ele>171.732666</ele>
        <time>2010-12-05T09:10:54Z</time>
      </trkpt>
      <trkpt lat="45.73166" lon="4.81689">
        <ele>172.2132568</ele>
        <time>2010-12-05T09:10:59Z</time>
      </trkpt>
      <trkpt lat="45.73161" lon="4.81697">
        <ele>171.732666</ele>
        <time>2010-12-05T09:11:02Z</time>
      </trkpt>
      <trkpt lat="45.73153" lon="4.81706">
        <ele>171.2520752</ele>
        <time>2010-12-05T09:11:06Z</time>
      </trkpt>
      <trkpt lat="45.73141" lon="4.81721">
        <ele>171.732666</ele>
        <time>2010-12-05T09:11:11Z</time>
      </trkpt>
      <trkpt lat="45.73133" lon="4.81732">
        <ele>170.2906494</ele>
        <time>2010-12-05T09:11:16Z</time>
      </trkpt>
      <trkpt lat="45.73125" lon="4.81743">
        <ele>167.4067383</ele>
        <time>2010-12-05T09:11:21Z</time>
      </trkpt>
      <trkpt lat="45.73123" lon="4.81745">
        <ele>167.4067383</ele>
        <time>2010-12-05T09:11:22Z</time>
      </trkpt>
      <trkpt lat="45.73116" lon="4.81752">
        <ele>165.9647217</ele>
        <time>2010-12-05T09:11:26Z</time>
      </trkpt>
      <trkpt lat="45.73105" lon="4.81764">
        <ele>164.0421143</ele>
        <time>2010-12-05T09:11:31Z</time>
      </trkpt>
      <trkpt lat="45.73098" lon="4.81766">
        <ele>163.5615234</ele>
        <time>2010-12-05T09:11:35Z</time>
      </trkpt>
      <trkpt lat="45.73095" lon="4.81768">
        <ele>164.0421143</ele>
        <time>2010-12-05T09:11:37Z</time>
      </trkpt>
      <trkpt lat="45.73084" lon="4.81776">
        <ele>163.5615234</ele>
        <time>2010-12-05T09:11:46Z</time>
      </trkpt>
      <trkpt lat="45.73077" lon="4.81781">
        <ele>162.6000977</ele>
        <time>2010-12-05T09:11:52Z</time>
      </trkpt>
      <trkpt lat="45.73063" lon="4.81789">
        <ele>161.638916</ele>
        <time>2010-12-05T09:11:58Z</time>
      </trkpt>
      <trkpt lat="45.73061" lon="4.8179">
        <ele>161.638916</ele>
        <time>2010-12-05T09:11:59Z</time>
      </trkpt>
      <trkpt lat="45.73051" lon="4.81798">
        <ele>161.1582031</ele>
        <time>2010-12-05T09:12:04Z</time>
      </trkpt>
      <trkpt lat="45.73037" lon="4.81803">
        <ele>161.638916</ele>
        <time>2010-12-05T09:12:09Z</time>
      </trkpt>
      <trkpt lat="45.7303" lon="4.81807">
        <ele>162.1195068</ele>
        <time>2010-12-05T09:12:12Z</time>
      </trkpt>
      <trkpt lat="45.73021" lon="4.81811">
        <ele>163.0808105</ele>
        <time>2010-12-05T09:12:15Z</time>
      </trkpt>
      <trkpt lat="45.73014" lon="4.81816">
        <ele>163.0808105</ele>
        <time>2010-12-05T09:12:18Z</time>
      </trkpt>
      <trkpt lat="45.73004" lon="4.81819">
        <ele>165.4841309</ele>
        <time>2010-12-05T09:12:22Z</time>
      </trkpt>
      <trkpt lat="45.72995" lon="4.81821">
        <ele>167.4067383</ele>
        <time>2010-12-05T09:12:26Z</time>
      </trkpt>
      <trkpt lat="45.7298" lon="4.81825">
        <ele>168.8487549</ele>
        <time>2010-12-05T09:12:32Z</time>
      </trkpt>
      <trkpt lat="45.72967" lon="4.81829">
        <ele>168.368042</ele>
        <time>2010-12-05T09:12:37Z</time>
      </trkpt>
      <trkpt lat="45.72957" lon="4.8183">
        <ele>167.4067383</ele>
        <time>2010-12-05T09:12:41Z</time>
      </trkpt>
      <trkpt lat="45.72947" lon="4.81833">
        <ele>168.368042</ele>
        <time>2010-12-05T09:12:46Z</time>
      </trkpt>
      <trkpt lat="45.72931" lon="4.81835">
        <ele>166.4453125</ele>
        <time>2010-12-05T09:12:52Z</time>
      </trkpt>
      <trkpt lat="45.7292" lon="4.81837">
        <ele>167.4067383</ele>
        <time>2010-12-05T09:12:56Z</time>
      </trkpt>
      <trkpt lat="45.72902" lon="4.8184">
        <ele>167.8873291</ele>
        <time>2010-12-05T09:13:03Z</time>
      </trkpt>
      <trkpt lat="45.72888" lon="4.81842">
        <ele>165.4841309</ele>
        <time>2010-12-05T09:13:09Z</time>
      </trkpt>
      <trkpt lat="45.72885" lon="4.81851">
        <ele>165.003418</ele>
        <time>2010-12-05T09:13:13Z</time>
      </trkpt>
      <trkpt lat="45.72894" lon="4.81856">
        <ele>164.5227051</ele>
        <time>2010-12-05T09:13:17Z</time>
      </trkpt>
      <trkpt lat="45.72896" lon="4.81856">
        <ele>164.5227051</ele>
        <time>2010-12-05T09:13:18Z</time>
      </trkpt>
      <trkpt lat="45.72917" lon="4.81853">
        <ele>164.5227051</ele>
        <time>2010-12-05T09:13:26Z</time>
      </trkpt>
      <trkpt lat="45.72929" lon="4.81853">
        <ele>164.0421143</ele>
        <time>2010-12-05T09:13:31Z</time>
      </trkpt>
      <trkpt lat="45.72942" lon="4.81854">
        <ele>163.0808105</ele>
        <time>2010-12-05T09:13:36Z</time>
      </trkpt>
      <trkpt lat="45.72957" lon="4.81856">
        <ele>163.0808105</ele>
        <time>2010-12-05T09:13:42Z</time>
      </trkpt>
      <trkpt lat="45.72971" lon="4.81855">
        <ele>162.6000977</ele>
        <time>2010-12-05T09:13:47Z</time>
      </trkpt>
      <trkpt lat="45.72983" lon="4.81856">
        <ele>162.1195068</ele>
        <time>2010-12-05T09:13:52Z</time>
      </trkpt>
      <trkpt lat="45.72999" lon="4.81857">
        <ele>161.638916</ele>
        <time>2010-12-05T09:13:58Z</time>
      </trkpt>
      <trkpt lat="45.73012" lon="4.81857">
        <ele>161.1582031</ele>
        <time>2010-12-05T09:14:03Z</time>
      </trkpt>
      <trkpt lat="45.73028" lon="4.81858">
        <ele>159.2354736</ele>
        <time>2010-12-05T09:14:09Z</time>
      </trkpt>
      <trkpt lat="45.73041" lon="4.81858">
        <ele>159.2354736</ele>
        <time>2010-12-05T09:14:14Z</time>
      </trkpt>
      <trkpt lat="45.73054" lon="4.8186">
        <ele>159.7161865</ele>
        <time>2010-12-05T09:14:19Z</time>
      </trkpt>
      <trkpt lat="45.73065" lon="4.8186">
        <ele>159.2354736</ele>
        <time>2010-12-05T09:14:24Z</time>
      </trkpt>
      <trkpt lat="45.73077" lon="4.81863">
        <ele>160.1968994</ele>
        <time>2010-12-05T09:14:29Z</time>
      </trkpt>
      <trkpt lat="45.73089" lon="4.81864">
        <ele>160.1968994</ele>
        <time>2010-12-05T09:14:34Z</time>
      </trkpt>
      <trkpt lat="45.73101" lon="4.81865">
        <ele>160.6774902</ele>
        <time>2010-12-05T09:14:38Z</time>
      </trkpt>
      <trkpt lat="45.73115" lon="4.81865">
        <ele>162.6000977</ele>
        <time>2010-12-05T09:14:44Z</time>
      </trkpt>
      <trkpt lat="45.73128" lon="4.81868">
        <ele>163.5615234</ele>
        <time>2010-12-05T09:14:49Z</time>
      </trkpt>
      <trkpt lat="45.73139" lon="4.8187">
        <ele>164.5227051</ele>
        <time>2010-12-05T09:14:54Z</time>
      </trkpt>
      <trkpt lat="45.73153" lon="4.81872">
        <ele>165.4841309</ele>
        <time>2010-12-05T09:14:59Z</time>
      </trkpt>
      <trkpt lat="45.73172" lon="4.81875">
        <ele>165.4841309</ele>
        <time>2010-12-05T09:15:06Z</time>
      </trkpt>
      <trkpt lat="45.73185" lon="4.81878">
        <ele>165.003418</ele>
        <time>2010-12-05T09:15:11Z</time>
      </trkpt>
      <trkpt lat="45.73201" lon="4.8188">
        <ele>165.4841309</ele>
        <time>2010-12-05T09:15:17Z</time>
      </trkpt>
      <trkpt lat="45.73219" lon="4.81885">
        <ele>164.5227051</ele>
        <time>2010-12-05T09:15:24Z</time>
      </trkpt>
      <trkpt lat="45.73234" lon="4.81887">
        <ele>163.0808105</ele>
        <time>2010-12-05T09:15:30Z</time>
      </trkpt>
      <trkpt lat="45.73247" lon="4.8189">
        <ele>164.5227051</ele>
        <time>2010-12-05T09:15:35Z</time>
      </trkpt>
      <trkpt lat="45.73259" lon="4.81893">
        <ele>165.003418</ele>
        <time>2010-12-05T09:15:40Z</time>
      </trkpt>
      <trkpt lat="45.73272" lon="4.81896">
        <ele>165.4841309</ele>
        <time>2010-12-05T09:15:45Z</time>
      </trkpt>
      <trkpt lat="45.73285" lon="4.81899">
        <ele>165.003418</ele>
        <time>2010-12-05T09:15:50Z</time>
      </trkpt>
      <trkpt lat="45.73296" lon="4.81899">
        <ele>165.4841309</ele>
        <time>2010-12-05T09:15:54Z</time>
      </trkpt>
      <trkpt lat="45.73312" lon="4.81904">
        <ele>165.4841309</ele>
        <time>2010-12-05T09:16:00Z</time>
      </trkpt>
      <trkpt lat="45.73323" lon="4.81907">
        <ele>165.9647217</ele>
        <time>2010-12-05T09:16:04Z</time>
      </trkpt>
      <trkpt lat="45.73335" lon="4.81914">
        <ele>165.9647217</ele>
        <time>2010-12-05T09:16:10Z</time>
      </trkpt>
      <trkpt lat="45.73347" lon="4.81917">
        <ele>165.9647217</ele>
        <time>2010-12-05T09:16:14Z</time>
      </trkpt>
      <trkpt lat="45.73357" lon="4.81921">
        <ele>164.5227051</ele>
        <time>2010-12-05T09:16:18Z</time>
      </trkpt>
      <trkpt lat="45.73371" lon="4.81923">
        <ele>164.5227051</ele>
        <time>2010-12-05T09:16:23Z</time>
      </trkpt>
      <trkpt lat="45.7339" lon="4.81931">
        <ele>163.5615234</ele>
        <time>2010-12-05T09:16:30Z</time>
      </trkpt>
      <trkpt lat="45.73393" lon="4.8193">
        <ele>163.5615234</ele>
        <time>2010-12-05T09:16:33Z</time>
      </trkpt>
      <trkpt lat="45.73396" lon="4.81922">
        <ele>165.003418</ele>
        <time>2010-12-05T09:16:39Z</time>
      </trkpt>
      <trkpt lat="45.73394" lon="4.81914">
        <ele>168.368042</ele>
        <time>2010-12-05T09:16:44Z</time>
      </trkpt>
      <trkpt lat="45.73387" lon="4.81911">
        <ele>170.7713623</ele>
        <time>2010-12-05T09:16:49Z</time>
      </trkpt>
      <trkpt lat="45.73384" lon="4.81915">
        <ele>171.732666</ele>
        <time>2010-12-05T09:16:53Z</time>
      </trkpt>
      <trkpt lat="45.73382" lon="4.8192">
        <ele>172.2132568</ele>
        <time>2010-12-05T09:16:55Z</time>
      </trkpt>
      <trkpt lat="45.73375" lon="4.81943">
        <ele>171.732666</ele>
        <time>2010-12-05T09:17:02Z</time>
      </trkpt>
      <trkpt lat="45.73371" lon="4.81958">
        <ele>172.6939697</ele>
        <time>2010-12-05T09:17:07Z</time>
      </trkpt>
      <trkpt lat="45.73363" lon="4.8198">
        <ele>173.6552734</ele>
        <time>2010-12-05T09:17:14Z</time>
      </trkpt>
      <trkpt lat="45.73358" lon="4.81998">
        <ele>173.6552734</ele>
        <time>2010-12-05T09:17:19Z</time>
      </trkpt>
      <trkpt lat="45.73352" lon="4.82014">
        <ele>173.1746826</ele>
        <time>2010-12-05T09:17:23Z</time>
      </trkpt>
      <trkpt lat="45.7335" lon="4.82022">
        <ele>172.6939697</ele>
        <time>2010-12-05T09:17:25Z</time>
      </trkpt>
      <trkpt lat="45.73345" lon="4.82039">
        <ele>172.6939697</ele>
        <time>2010-12-05T09:17:30Z</time>
      </trkpt>
      <trkpt lat="45.73342" lon="4.82052">
        <ele>173.1746826</ele>
        <time>2010-12-05T09:17:34Z</time>
      </trkpt>
      <trkpt lat="45.73337" lon="4.82067">
        <ele>173.1746826</ele>
        <time>2010-12-05T09:17:38Z</time>
      </trkpt>
      <trkpt lat="45.73332" lon="4.82083">
        <ele>171.732666</ele>
        <time>2010-12-05T09:17:42Z</time>
      </trkpt>
      <trkpt lat="45.73328" lon="4.82097">
        <ele>171.2520752</ele>
        <time>2010-12-05T09:17:46Z</time>
      </trkpt>
      <trkpt lat="45.73325" lon="4.82115">
        <ele>171.732666</ele>
        <time>2010-12-05T09:17:51Z</time>
      </trkpt>
      <trkpt lat="45.73321" lon="4.82138">
        <ele>173.6552734</ele>
        <time>2010-12-05T09:17:57Z</time>
      </trkpt>
      <trkpt lat="45.73318" lon="4.82149">
        <ele>174.1358643</ele>
        <time>2010-12-05T09:18:00Z</time>
      </trkpt>
      <trkpt lat="45.73312" lon="4.82168">
        <ele>173.6552734</ele>
        <time>2010-12-05T09:18:05Z</time>
      </trkpt>
      <trkpt lat="45.73305" lon="4.82185">
        <ele>172.2132568</ele>
        <time>2010-12-05T09:18:09Z</time>
      </trkpt>
      <trkpt lat="45.73299" lon="4.82199">
        <ele>173.1746826</ele>
        <time>2010-12-05T09:18:13Z</time>
      </trkpt>
      <trkpt lat="45.73297" lon="4.82205">
        <ele>172.6939697</ele>
        <time>2010-12-05T09:18:15Z</time>
      </trkpt>
      <trkpt lat="45.73295" lon="4.82225">
        <ele>171.2520752</ele>
        <time>2010-12-05T09:18:20Z</time>
      </trkpt>
      <trkpt lat="45.73302" lon="4.82223">
        <ele>171.2520752</ele>
        <time>2010-12-05T09:18:23Z</time>
      </trkpt>
      <trkpt lat="45.73313" lon="4.82212">
        <ele>170.7713623</ele>
        <time>2010-12-05T09:18:28Z</time>
      </trkpt>
      <trkpt lat="45.73318" lon="4.82203">
        <ele>171.2520752</ele>
        <time>2010-12-05T09:18:32Z</time>
      </trkpt>
      <trkpt lat="45.73325" lon="4.82196">
        <ele>174.6165771</ele>
        <time>2010-12-05T09:18:37Z</time>
      </trkpt>
      <trkpt lat="45.73321" lon="4.82188">
        <ele>173.6552734</ele>
        <time>2010-12-05T09:18:41Z</time>
      </trkpt>
      <trkpt lat="45.73316" lon="4.82188">
        <ele>171.2520752</ele>
        <time>2010-12-05T09:18:44Z</time>
      </trkpt>
      <trkpt lat="45.73303" lon="4.8219">
        <ele>167.4067383</ele>
        <time>2010-12-05T09:18:50Z</time>
      </trkpt>
      <trkpt lat="45.73271" lon="4.82182">
        <ele>168.8487549</ele>
        <time>2010-12-05T09:18:55Z</time>
      </trkpt>
      <trkpt lat="45.73262" lon="4.82176">
        <ele>166.9260254</ele>
        <time>2010-12-05T09:19:00Z</time>
      </trkpt>
      <trkpt lat="45.73255" lon="4.82166">
        <ele>166.4453125</ele>
        <time>2010-12-05T09:19:05Z</time>
      </trkpt>
      <trkpt lat="45.73244" lon="4.82156">
        <ele>165.003418</ele>
        <time>2010-12-05T09:19:10Z</time>
      </trkpt>
      <trkpt lat="45.73227" lon="4.82148">
        <ele>165.4841309</ele>
        <time>2010-12-05T09:19:16Z</time>
      </trkpt>
      <trkpt lat="45.73212" lon="4.8214">
        <ele>164.5227051</ele>
        <time>2010-12-05T09:19:22Z</time>
      </trkpt>
      <trkpt lat="45.73199" lon="4.8213">
        <ele>165.003418</ele>
        <time>2010-12-05T09:19:28Z</time>
      </trkpt>
      <trkpt lat="45.73196" lon="4.82129">
        <ele>165.4841309</ele>
        <time>2010-12-05T09:19:29Z</time>
      </trkpt>
      <trkpt lat="45.73183" lon="4.82128">
        <ele>166.4453125</ele>
        <time>2010-12-05T09:19:34Z</time>
      </trkpt>
      <trkpt lat="45.73172" lon="4.82122">
        <ele>166.4453125</ele>
        <time>2010-12-05T09:19:39Z</time>
      </trkpt>
      <trkpt lat="45.73158" lon="4.82122">
        <ele>165.4841309</ele>
        <time>2010-12-05T09:19:44Z</time>
      </trkpt>
      <trkpt lat="45.73144" lon="4.8212">
        <ele>164.0421143</ele>
        <time>2010-12-05T09:19:49Z</time>
      </trkpt>
      <trkpt lat="45.73136" lon="4.82119">
        <ele>163.5615234</ele>
        <time>2010-12-05T09:19:52Z</time>
      </trkpt>
      <trkpt lat="45.73125" lon="4.82116">
        <ele>162.1195068</ele>
        <time>2010-12-05T09:19:56Z</time>
      </trkpt>
      <trkpt lat="45.7312" lon="4.82114">
        <ele>162.1195068</ele>
        <time>2010-12-05T09:19:58Z</time>
      </trkpt>
      <trkpt lat="45.73106" lon="4.82114">
        <ele>163.0808105</ele>
        <time>2010-12-05T09:20:02Z</time>
      </trkpt>
      <trkpt lat="45.73101" lon="4.82114">
        <ele>163.0808105</ele>
        <time>2010-12-05T09:20:04Z</time>
      </trkpt>
      <trkpt lat="45.73087" lon="4.82112">
        <ele>162.1195068</ele>
        <time>2010-12-05T09:20:09Z</time>
      </trkpt>
      <trkpt lat="45.73076" lon="4.82111">
        <ele>162.1195068</ele>
        <time>2010-12-05T09:20:13Z</time>
      </trkpt>
      <trkpt lat="45.73062" lon="4.82107">
        <ele>161.638916</ele>
        <time>2010-12-05T09:20:18Z</time>
      </trkpt>
      <trkpt lat="45.7305" lon="4.82105">
        <ele>162.6000977</ele>
        <time>2010-12-05T09:20:23Z</time>
      </trkpt>
      <trkpt lat="45.73031" lon="4.821">
        <ele>164.0421143</ele>
        <time>2010-12-05T09:20:30Z</time>
      </trkpt>
      <trkpt lat="45.73019" lon="4.82096">
        <ele>164.5227051</ele>
        <time>2010-12-05T09:20:35Z</time>
      </trkpt>
      <trkpt lat="45.73003" lon="4.82097">
        <ele>165.4841309</ele>
        <time>2010-12-05T09:20:41Z</time>
      </trkpt>
      <trkpt lat="45.73001" lon="4.82099">
        <ele>165.9647217</ele>
        <time>2010-12-05T09:20:42Z</time>
      </trkpt>
      <trkpt lat="45.72997" lon="4.82114">
        <ele>167.8873291</ele>
        <time>2010-12-05T09:20:47Z</time>
      </trkpt>
      <trkpt lat="45.72996" lon="4.82127">
        <ele>168.8487549</ele>
        <time>2010-12-05T09:20:51Z</time>
      </trkpt>
      <trkpt lat="45.72993" lon="4.82137">
        <ele>169.8100586</ele>
        <time>2010-12-05T09:20:54Z</time>
      </trkpt>
      <trkpt lat="45.72988" lon="4.82153">
        <ele>171.2520752</ele>
        <time>2010-12-05T09:20:59Z</time>
      </trkpt>
      <trkpt lat="45.72978" lon="4.82163">
        <ele>171.732666</ele>
        <time>2010-12-05T09:21:04Z</time>
      </trkpt>
      <trkpt lat="45.72968" lon="4.8216">
        <ele>170.7713623</ele>
        <time>2010-12-05T09:21:08Z</time>
      </trkpt>
      <trkpt lat="45.72966" lon="4.82158">
        <ele>170.7713623</ele>
        <time>2010-12-05T09:21:09Z</time>
      </trkpt>
      <trkpt lat="45.72952" lon="4.82147">
        <ele>169.3294678</ele>
        <time>2010-12-05T09:21:15Z</time>
      </trkpt>
      <trkpt lat="45.72943" lon="4.82136">
        <ele>169.8100586</ele>
        <time>2010-12-05T09:21:19Z</time>
      </trkpt>
      <trkpt lat="45.72936" lon="4.82125">
        <ele>168.368042</ele>
        <time>2010-12-05T09:21:23Z</time>
      </trkpt>
      <trkpt lat="45.72925" lon="4.82119">
        <ele>167.4067383</ele>
        <time>2010-12-05T09:21:28Z</time>
      </trkpt>
      <trkpt lat="45.72913" lon="4.82117">
        <ele>166.9260254</ele>
        <time>2010-12-05T09:21:33Z</time>
      </trkpt>
      <trkpt lat="45.72897" lon="4.82113">
        <ele>166.9260254</ele>
        <time>2010-12-05T09:21:39Z</time>
      </trkpt>
      <trkpt lat="45.72883" lon="4.82107">
        <ele>166.4453125</ele>
        <time>2010-12-05T09:21:45Z</time>
      </trkpt>
      <trkpt lat="45.72873" lon="4.82104">
        <ele>166.4453125</ele>
        <time>2010-12-05T09:21:49Z</time>
      </trkpt>
      <trkpt lat="45.72855" lon="4.82102">
        <ele>166.9260254</ele>
        <time>2010-12-05T09:21:55Z</time>
      </trkpt>
      <trkpt lat="45.72842" lon="4.82102">
        <ele>166.4453125</ele>
        <time>2010-12-05T09:22:00Z</time>
      </trkpt>
      <trkpt lat="45.72832" lon="4.82098">
        <ele>166.9260254</ele>
        <time>2010-12-05T09:22:04Z</time>
      </trkpt>
      <trkpt lat="45.72819" lon="4.82096">
        <ele>166.4453125</ele>
        <time>2010-12-05T09:22:09Z</time>
      </trkpt>
      <trkpt lat="45.72816" lon="4.82096">
        <ele>166.4453125</ele>
        <time>2010-12-05T09:22:10Z</time>
      </trkpt>
      <trkpt lat="45.72804" lon="4.82094">
        <ele>166.9260254</ele>
        <time>2010-12-05T09:22:15Z</time>
      </trkpt>
      <trkpt lat="45.72793" lon="4.82092">
        <ele>168.8487549</ele>
        <time>2010-12-05T09:22:19Z</time>
      </trkpt>
      <trkpt lat="45.72783" lon="4.82089">
        <ele>168.368042</ele>
        <time>2010-12-05T09:22:23Z</time>
      </trkpt>
      <trkpt lat="45.72772" lon="4.82087">
        <ele>167.4067383</ele>
        <time>2010-12-05T09:22:28Z</time>
      </trkpt>
      <trkpt lat="45.72762" lon="4.82089">
        <ele>169.3294678</ele>
        <time>2010-12-05T09:22:33Z</time>
      </trkpt>
      <trkpt lat="45.72754" lon="4.82092">
        <ele>171.732666</ele>
        <time>2010-12-05T09:22:36Z</time>
      </trkpt>
      <trkpt lat="45.72742" lon="4.82093">
        <ele>173.1746826</ele>
        <time>2010-12-05T09:22:41Z</time>
      </trkpt>
      <trkpt lat="45.72736" lon="4.82091">
        <ele>173.1746826</ele>
        <time>2010-12-05T09:22:43Z</time>
      </trkpt>
      <trkpt lat="45.72728" lon="4.8209">
        <ele>173.1746826</ele>
        <time>2010-12-05T09:22:46Z</time>
      </trkpt>
      <trkpt lat="45.72716" lon="4.82087">
        <ele>172.6939697</ele>
        <time>2010-12-05T09:22:52Z</time>
      </trkpt>
      <trkpt lat="45.72705" lon="4.82087">
        <ele>172.6939697</ele>
        <time>2010-12-05T09:22:56Z</time>
      </trkpt>
      <trkpt lat="45.72684" lon="4.82088">
        <ele>170.7713623</ele>
        <time>2010-12-05T09:23:04Z</time>
      </trkpt>
      <trkpt lat="45.72667" lon="4.82087">
        <ele>169.8100586</ele>
        <time>2010-12-05T09:23:10Z</time>
      </trkpt>
      <trkpt lat="45.72653" lon="4.82087">
        <ele>169.8100586</ele>
        <time>2010-12-05T09:23:15Z</time>
      </trkpt>
      <trkpt lat="45.72638" lon="4.82087">
        <ele>170.2906494</ele>
        <time>2010-12-05T09:23:20Z</time>
      </trkpt>
      <trkpt lat="45.72627" lon="4.82088">
        <ele>170.2906494</ele>
        <time>2010-12-05T09:23:24Z</time>
      </trkpt>
      <trkpt lat="45.72614" lon="4.8209">
        <ele>169.8100586</ele>
        <time>2010-12-05T09:23:29Z</time>
      </trkpt>
      <trkpt lat="45.72602" lon="4.82091">
        <ele>170.7713623</ele>
        <time>2010-12-05T09:23:34Z</time>
      </trkpt>
      <trkpt lat="45.72588" lon="4.82096">
        <ele>170.2906494</ele>
        <time>2010-12-05T09:23:39Z</time>
      </trkpt>
      <trkpt lat="45.72572" lon="4.82101">
        <ele>168.368042</ele>
        <time>2010-12-05T09:23:45Z</time>
      </trkpt>
      <trkpt lat="45.72558" lon="4.82107">
        <ele>168.368042</ele>
        <time>2010-12-05T09:23:51Z</time>
      </trkpt>
      <trkpt lat="45.72545" lon="4.82113">
        <ele>168.8487549</ele>
        <time>2010-12-05T09:23:56Z</time>
      </trkpt>
      <trkpt lat="45.72538" lon="4.82116">
        <ele>170.2906494</ele>
        <time>2010-12-05T09:23:59Z</time>
      </trkpt>
      <trkpt lat="45.72532" lon="4.82122">
        <ele>171.2520752</ele>
        <time>2010-12-05T09:24:02Z</time>
      </trkpt>
      <trkpt lat="45.72523" lon="4.82127">
        <ele>171.2520752</ele>
        <time>2010-12-05T09:24:05Z</time>
      </trkpt>
      <trkpt lat="45.72508" lon="4.82139">
        <ele>172.6939697</ele>
        <time>2010-12-05T09:24:10Z</time>
      </trkpt>
      <trkpt lat="45.725" lon="4.82149">
        <ele>173.6552734</ele>
        <time>2010-12-05T09:24:14Z</time>
      </trkpt>
      <trkpt lat="45.72493" lon="4.82157">
        <ele>173.6552734</ele>
        <time>2010-12-05T09:24:17Z</time>
      </trkpt>
      <trkpt lat="45.72485" lon="4.82167">
        <ele>172.6939697</ele>
        <time>2010-12-05T09:24:21Z</time>
      </trkpt>
      <trkpt lat="45.72479" lon="4.82174">
        <ele>171.732666</ele>
        <time>2010-12-05T09:24:24Z</time>
      </trkpt>
      <trkpt lat="45.72468" lon="4.82183">
        <ele>170.7713623</ele>
        <time>2010-12-05T09:24:29Z</time>
      </trkpt>
      <trkpt lat="45.72457" lon="4.82198">
        <ele>171.2520752</ele>
        <time>2010-12-05T09:24:34Z</time>
      </trkpt>
      <trkpt lat="45.72447" lon="4.82212">
        <ele>171.2520752</ele>
        <time>2010-12-05T09:24:39Z</time>
      </trkpt>
      <trkpt lat="45.72438" lon="4.82222">
        <ele>171.2520752</ele>
        <time>2010-12-05T09:24:43Z</time>
      </trkpt>
      <trkpt lat="45.72427" lon="4.82238">
        <ele>170.7713623</ele>
        <time>2010-12-05T09:24:49Z</time>
      </trkpt>
      <trkpt lat="45.72416" lon="4.82251">
        <ele>170.7713623</ele>
        <time>2010-12-05T09:24:54Z</time>
      </trkpt>
      <trkpt lat="45.72407" lon="4.8226">
        <ele>170.7713623</ele>
        <time>2010-12-05T09:24:58Z</time>
      </trkpt>
      <trkpt lat="45.72399" lon="4.82272">
        <ele>171.732666</ele>
        <time>2010-12-05T09:25:02Z</time>
      </trkpt>
      <trkpt lat="45.72387" lon="4.82285">
        <ele>173.1746826</ele>
        <time>2010-12-05T09:25:07Z</time>
      </trkpt>
      <trkpt lat="45.72375" lon="4.82302">
        <ele>174.1358643</ele>
        <time>2010-12-05T09:25:13Z</time>
      </trkpt>
      <trkpt lat="45.72365" lon="4.82317">
        <ele>174.1358643</ele>
        <time>2010-12-05T09:25:18Z</time>
      </trkpt>
      <trkpt lat="45.72351" lon="4.82331">
        <ele>175.09729</ele>
        <time>2010-12-05T09:25:24Z</time>
      </trkpt>
      <trkpt lat="45.72343" lon="4.82341">
        <ele>174.6165771</ele>
        <time>2010-12-05T09:25:27Z</time>
      </trkpt>
      <trkpt lat="45.72337" lon="4.82348">
        <ele>174.1358643</ele>
        <time>2010-12-05T09:25:30Z</time>
      </trkpt>
      <trkpt lat="45.72335" lon="4.8235">
        <ele>174.1358643</ele>
        <time>2010-12-05T09:25:31Z</time>
      </trkpt>
      <trkpt lat="45.72324" lon="4.82361">
        <ele>173.1746826</ele>
        <time>2010-12-05T09:25:36Z</time>
      </trkpt>
      <trkpt lat="45.72325" lon="4.82369">
        <ele>172.6939697</ele>
        <time>2010-12-05T09:25:38Z</time>
      </trkpt>
      <trkpt lat="45.72332" lon="4.82393">
        <ele>170.7713623</ele>
        <time>2010-12-05T09:25:44Z</time>
      </trkpt>
      <trkpt lat="45.72337" lon="4.82412">
        <ele>169.3294678</ele>
        <time>2010-12-05T09:25:49Z</time>
      </trkpt>
      <trkpt lat="45.72345" lon="4.82435">
        <ele>167.8873291</ele>
        <time>2010-12-05T09:25:55Z</time>
      </trkpt>
      <trkpt lat="45.72351" lon="4.82459">
        <ele>165.9647217</ele>
        <time>2010-12-05T09:26:01Z</time>
      </trkpt>
      <trkpt lat="45.72359" lon="4.82485">
        <ele>165.4841309</ele>
        <time>2010-12-05T09:26:07Z</time>
      </trkpt>
      <trkpt lat="45.72369" lon="4.82514">
        <ele>164.0421143</ele>
        <time>2010-12-05T09:26:14Z</time>
      </trkpt>
      <trkpt lat="45.72373" lon="4.82535">
        <ele>162.6000977</ele>
        <time>2010-12-05T09:26:19Z</time>
      </trkpt>
      <trkpt lat="45.72377" lon="4.82558">
        <ele>162.1195068</ele>
        <time>2010-12-05T09:26:24Z</time>
      </trkpt>
      <trkpt lat="45.72383" lon="4.82578">
        <ele>161.638916</ele>
        <time>2010-12-05T09:26:29Z</time>
      </trkpt>
      <trkpt lat="45.72388" lon="4.82596">
        <ele>161.638916</ele>
        <time>2010-12-05T09:26:33Z</time>
      </trkpt>
      <trkpt lat="45.72397" lon="4.82626">
        <ele>162.1195068</ele>
        <time>2010-12-05T09:26:40Z</time>
      </trkpt>
      <trkpt lat="45.72401" lon="4.82643">
        <ele>163.0808105</ele>
        <time>2010-12-05T09:26:44Z</time>
      </trkpt>
      <trkpt lat="45.72406" lon="4.82659">
        <ele>163.5615234</ele>
        <time>2010-12-05T09:26:48Z</time>
      </trkpt>
      <trkpt lat="45.7241" lon="4.82676">
        <ele>164.5227051</ele>
        <time>2010-12-05T09:26:52Z</time>
      </trkpt>
      <trkpt lat="45.72417" lon="4.82694">
        <ele>164.5227051</ele>
        <time>2010-12-05T09:26:57Z</time>
      </trkpt>
      <trkpt lat="45.72419" lon="4.82711">
        <ele>164.0421143</ele>
        <time>2010-12-05T09:27:01Z</time>
      </trkpt>
      <trkpt lat="45.72426" lon="4.82731">
        <ele>164.5227051</ele>
        <time>2010-12-05T09:27:06Z</time>
      </trkpt>
      <trkpt lat="45.72432" lon="4.82755">
        <ele>165.9647217</ele>
        <time>2010-12-05T09:27:12Z</time>
      </trkpt>
      <trkpt lat="45.72432" lon="4.82764">
        <ele>165.9647217</ele>
        <time>2010-12-05T09:27:14Z</time>
      </trkpt>
      <trkpt lat="45.72426" lon="4.82774">
        <ele>166.4453125</ele>
        <time>2010-12-05T09:27:18Z</time>
      </trkpt>
      <trkpt lat="45.7242" lon="4.82781">
        <ele>167.4067383</ele>
        <time>2010-12-05T09:27:23Z</time>
      </trkpt>
      <trkpt lat="45.72422" lon="4.82796">
        <ele>167.4067383</ele>
        <time>2010-12-05T09:27:29Z</time>
      </trkpt>
    </trkseg>
  </trk>
</gpx>